[[{"header":{"parameterUnit":"m.s-1","parameterCategory":1,"la1":31.0,"la2":29.5877,"lo1":-88.7671,"lo2":-86.6584,"dy":0.0162,"dx":0.0185,"nx":115,"ny":88,"refTime":"2023-04-16T18:00:00:Z","depth":0,"parameterNumber":2,"parameterNumberName":"U-component_of_WINDS"},"data":[0.0,0.0,0.0,0.0,0.0,0.0,0.0,0.0,0.0,0.0,0.0,0.0,0.0,0.0,0.0,0.0,0.0,0.0,0.0,0.0,0.0,0.0,0.0,0.0,0.0,0.0,0.0,0.0,0.0,0.0,0.0,0.0,0.0,0.0,0.0,0.0,0.0,0.0,0.0,0.0,0.0,0.0,0.0,0.0,0.0,0.0,0.0,0.0,0.0,0.0,0.0,0.0,0.0,0.0,0.0,0.0,0.0,0.0,0.0,0.0,0.0,0.0,0.0,0.0,0.0,0.0,0.0,0.0,0.0,0.0,0.0,0.0,0.0,0.0,0.0,0.0,0.0,0.0,0.0,0.0,0.0,0.0,0.0,0.0,0.0,0.0,0.0,0.0,0.0,0.0,0.0,0.0,0.0,0.0,0.0,0.0,0.0,0.0,0.0,0.0,0.0,0.0,0.0,0.0,0.0,0.0,0.0,0.0,0.0,0.0,0.0,0.0,0.0,0.0,0.0,0.0,0.0,0.0,0.0,0.0,0.0,0.0,0.0,0.0,0.0,0.0,0.0,0.0,0.0,0.0,0.0,0.0,0.0,0.0,0.0,0.0,0.0,0.0,0.0,0.0,0.0,0.0,0.0,0.0,0.0,0.0,0.0,0.0,0.0,0.0,0.0,0.0,0.0,0.0,0.0,0.0,0.0,0.0,0.0,0.0,0.0,0.0,0.0,0.0,0.0,0.0,0.0,0.0,0.0,0.0,0.0,0.0,0.0,0.0,0.0,0.0,0.0,0.0,0.0,0.0,0.0,0.0,0.0,0.0,0.0,0.0,0.0,0.0,0.0,0.0,0.0,0.0,0.0,0.0,0.0,0.0,0.0,0.0,0.0,0.0,0.0,0.0,0.0,0.0,0.0,0.0,0.0,0.0,0.0,0.0,0.0,0.0,0.0,0.0,0.0,0.0,0.0,0.0,0.0,0.0,0.0,0.0,0.0,0.0,0.0,0.0,0.0,0.0,0.0,0.0,0.0,0.0,0.0,0.0,0.0,0.0,0.0,0.0,0.0,0.0,0.0,0.0,0.0,0.0,0.0,0.0,0.0,0.0,0.0,0.0,0.0,0.0,0.0,0.0,0.0,0.0,0.0,0.0,0.0,0.0,0.0,0.0,0.0,0.0,0.0,0.0,0.0,0.0,0.0,0.0,0.0,0.0,0.0,0.0,0.0,0.0,0.0,0.0,0.0,0.0,0.0,0.0,0.0,0.0,0.0,0.0,0.0,0.0,0.0,0.0,0.0,0.0,0.0,0.0,0.0,0.0,0.0,0.0,0.0,0.0,0.0,0.0,0.0,0.0,0.0,0.0,0.0,0.0,0.0,0.0,0.0,0.0,0.0,0.0,0.0,0.0,0.0,0.0,0.0,0.0,0.0,0.0,0.0,0.0,0.0,0.0,0.0,0.0,0.0,0.0,0.0,0.0,0.0,0.0,0.0,0.0,0.0,0.0,0.0,0.0,0.0,0.0,0.0,0.0,0.0,0.0,0.0,0.0,0.0,0.0,0.0,0.0,0.0,0.0,0.0,0.0,0.0,0.0,0.0,0.0,0.0,0.0,0.0,0.0,0.0,0.0,0.0,0.0,0.0,0.0,0.0,0.0,0.0,0.0,0.0,0.0,0.0,0.0,0.0,0.0,0.0,0.0,0.0,0.0,0.0,0.0,0.0,0.0,0.0,0.0,0.0,0.0,0.0,0.0,0.0,0.0,0.0,0.0,0.0,0.0,0.0,0.0,0.0,0.0,0.0,0.0,0.0,0.0,0.0,0.0,0.0,0.0,0.0,0.0,0.0,0.0,0.0,0.0,0.0,0.0,0.0,0.0,0.0,0.0,0.0,0.0,0.0,0.0,0.0,0.0,0.0,0.0,0.0,0.0,0.0,0.0,0.0,0.0,0.0,0.0,0.0,0.0,0.0,0.0,0.0,0.0,0.0,0.0,0.0,0.0,0.0,0.0,0.0,0.0,0.0,0.0,0.0,0.0,0.0,0.0,0.0,0.0,0.0,0.0,0.0,0.0,0.0,0.0,0.0,0.0,0.0,0.0,0.0,0.0,0.0,0.0,0.0,0.0,0.0,0.0,0.0,0.0,0.0,0.0,0.0,0.0,0.0,0.0,0.0,0.0,0.0,0.0,0.0,0.0,0.0,0.0,0.0,0.0,0.0,0.0,0.0,0.0,0.0,0.0,0.0,0.0,0.0,0.0,0.0,0.0,0.0,0.0,0.0,0.0,0.0,0.0,0.0,0.0,0.0,0.0,0.0,0.0,0.0,0.0,0.0,0.0,0.0,0.0,0.0,0.0,0.0,0.0,0.0,0.0,0.0,0.0,0.0,0.0,0.0,0.0,0.0,0.0,0.0,0.0,0.0,0.0,0.0,0.0,0.0,0.0,0.0,0.0,0.0,0.0,0.0,0.0,0.0,0.0,0.0,0.0,0.0,0.0,0.0,0.0,0.0,0.0,0.0,0.0,0.0,0.0,0.0,0.0,0.0,0.0,0.0,0.0,0.0,0.0,0.0,0.0,0.0,0.0,0.0,0.0,0.0,0.0,0.0,0.0,0.0,0.0,0.0,0.0,0.0,0.0,0.0,0.0,0.0,0.0,0.0,0.0,0.0,0.0,0.0,0.0,0.0,0.0,0.0,0.0,0.0,0.0,0.0,0.0,0.0,0.0,0.0,0.0,0.0,0.0,0.0,0.0,0.0,0.0,0.0,0.0,0.0,0.0,0.0,0.0,0.0,0.0,0.0,0.0,0.0,0.0,0.0,0.0,0.0,0.0,0.0,0.0,0.0,0.0,0.0,0.0,0.0,0.0,0.0,0.0,0.0,0.0,0.0,0.0,0.0,0.0,0.0,0.0,0.0,0.0,0.0,0.0,0.0,0.0,0.0,0.0,0.0,0.0,0.0,0.0,0.0,0.0,0.0,0.0,0.0,0.0,0.0,0.0,0.0,0.0,0.0,0.0,0.0,0.0,0.0,0.0,0.0,0.0,0.0,0.0,0.0,0.0,0.0,0.0,0.0,0.0,0.0,0.0,0.0,0.0,0.0,0.0,0.0,0.0,0.0,0.0,0.0,0.0,0.0,0.0,0.0,0.0,0.0,0.0,0.0,0.0,0.0,0.0,0.0,0.0,0.0,0.0,0.0,0.0,0.0,0.0,0.0,0.0,0.0,0.0,0.0,0.0,0.0,0.0,0.0,0.0,0.0,0.0,0.0,0.0,0.0,0.0,0.0,0.0,0.0,0.0,0.0,0.0,0.0,0.0,0.0,0.0,0.0,0.0,0.0,0.0,0.0,0.0,0.0,0.0,0.0,0.0,0.0,0.0,0.0,0.0,0.0,0.0,0.0,0.0,0.0,0.0,0.0,0.0,0.0,0.0,0.0,0.0,0.0,0.0,0.0,0.0,0.0,0.0,0.0,0.0,0.0,0.0,0.0,0.0,0.0,0.0,0.0,0.0,0.0,0.0,0.0,0.0,0.0,0.0,0.0,0.0,0.0,0.0,0.0,0.0,0.0,0.0,0.0,0.0,0.0,0.0,0.0,0.0,0.0,0.0,0.0,0.0,0.0,0.0,0.0,0.0,0.0,0.0,0.0,0.0,0.0,0.0,0.0,0.0,0.0,0.0,0.0,0.0,0.0,0.0,0.0,0.0,0.0,0.0,0.0,0.0,0.0,0.0,0.0,0.0,0.0,0.0,0.0,0.0,0.0,0.0,0.0,0.0,0.0,0.0,0.0,0.0,0.0,0.0,0.0,0.0,0.0,0.0,0.0,0.0,0.0,0.0,0.0,0.0,0.0,0.0,0.0,0.0,0.0,0.0,0.0,0.0,0.0,0.0,0.0,0.0,0.0,0.0,0.0,0.0,0.0,0.0,0.0,0.0,0.0,0.0,0.0,0.0,0.0,0.0,0.0,0.0,0.0,0.0,0.0,0.0,0.0,0.0,0.0,0.0,0.0,0.0,0.0,0.0,0.0,0.0,0.0,0.0,0.0,0.0,0.0,0.0,0.0,0.0,0.0,0.0,0.0,0.0,0.0,0.0,0.0,0.0,0.0,0.0,0.0,0.0,0.0,0.0,0.0,0.0,0.0,0.0,0.0,0.0,0.0,0.0,0.0,0.0,0.0,0.0,0.0,0.0,0.0,0.0,0.0,0.0,0.0,0.0,0.0,0.0,0.0,0.0,0.0,0.0,0.0,0.0,0.0,0.0,0.0,0.0,0.0,0.0,-1.5004,0.0,0.0,0.0,0.0,0.0,0.0,0.0,0.0,0.0,0.0,0.0,0.0,0.0,0.0,0.0,0.0,0.0,0.0,0.0,0.0,0.0,0.0,0.0,0.0,0.0,0.0,0.0,0.0,0.0,0.0,0.0,0.0,0.0,0.0,0.0,0.0,0.0,0.0,0.0,0.0,0.0,0.0,0.0,0.0,0.0,0.0,0.0,0.0,0.0,0.0,0.0,0.0,0.0,0.0,0.0,0.0,0.0,0.0,0.0,0.0,0.0,0.0,0.0,0.0,0.0,0.0,0.0,0.0,0.0,0.0,0.0,0.0,0.0,0.0,0.0,0.0,0.0,0.0,0.0,0.0,0.0,0.0,0.0,0.0,0.0,0.0,0.0,0.0,0.0,0.0,0.0,0.0,0.0,0.0,0.0,0.0,0.0,0.0,0.0,0.0,0.0,0.0,0.0,0.0,0.0,0.0,0.0,0.0,0.0,0.0,-1.5125,-1.5105,-1.5064,-1.5023,-1.5019,0.0,0.0,0.0,0.0,0.0,0.0,0.0,0.0,0.0,0.0,0.0,0.0,0.0,0.0,0.0,0.0,0.0,0.0,0.0,0.0,0.0,0.0,0.0,0.0,0.0,0.0,0.0,0.0,0.0,0.0,0.0,0.0,0.0,0.0,0.0,0.0,0.0,0.0,0.0,0.0,0.0,0.0,0.0,0.0,0.0,0.0,0.0,0.0,0.0,0.0,0.0,0.0,0.0,0.0,0.0,0.0,0.0,0.0,0.0,0.0,0.0,0.0,0.0,0.0,0.0,0.0,0.0,0.0,0.0,0.0,0.0,0.0,0.0,0.0,0.0,0.0,0.0,0.0,0.0,0.0,0.0,0.0,0.0,0.0,0.0,0.0,0.0,0.0,0.0,0.0,0.0,0.0,0.0,0.0,0.0,0.0,0.0,0.0,0.0,0.0,0.0,0.0,0.0,0.0,0.0,0.0,0.0,0.0,0.0,0.0,0.0,0.0,-1.5293,-1.5277,-1.5261,0.0,0.0,0.0,0.0,0.0,0.0,0.0,0.0,0.0,0.0,0.0,0.0,0.0,0.0,0.0,0.0,0.0,0.0,0.0,0.0,0.0,0.0,0.0,0.0,0.0,0.0,0.0,0.0,0.0,0.0,0.0,0.0,0.0,0.0,0.0,0.0,0.0,0.0,0.0,0.0,0.0,0.0,0.0,0.0,0.0,0.0,0.0,0.0,0.0,0.0,0.0,0.0,0.0,0.0,0.0,0.0,0.0,0.0,0.0,0.0,0.0,0.0,0.0,0.0,0.0,0.0,0.0,0.0,0.0,0.0,0.0,0.0,0.0,0.0,0.0,0.0,0.0,0.0,0.0,0.0,0.0,0.0,0.0,0.0,0.0,0.0,0.0,0.0,0.0,0.0,0.0,0.0,0.0,0.0,0.0,0.0,0.0,0.0,0.0,0.0,0.0,0.0,0.0,0.0,0.0,0.0,0.0,0.0,0.0,0.0,-1.4612,-1.6052,-1.6079,0.0,-1.605,0.0,0.0,0.0,0.0,0.0,0.0,0.0,0.0,0.0,0.0,0.0,0.0,0.0,0.0,0.0,0.0,0.0,0.0,0.0,0.0,0.0,0.0,0.0,0.0,0.0,0.0,0.0,0.0,0.0,0.0,0.0,0.0,0.0,0.0,0.0,0.0,0.0,0.0,0.0,0.0,0.0,0.0,0.0,0.0,0.0,0.0,0.0,0.0,0.0,0.0,0.0,0.0,0.0,0.0,0.0,0.0,0.0,0.0,0.0,0.0,0.0,0.0,0.0,0.0,0.0,0.0,0.0,0.0,0.0,0.0,0.0,0.0,0.0,0.0,0.0,0.0,0.0,0.0,0.0,0.0,0.0,0.0,0.0,0.0,0.0,0.0,0.0,0.0,0.0,0.0,0.0,0.0,0.0,0.0,0.0,0.0,0.0,0.0,0.0,0.0,0.0,0.0,0.0,0.0,0.0,0.0,0.0,0.0,0.0,0.0,-1.4273,-1.5393,-1.5894,-1.5903,0.0,0.0,0.0,0.0,0.0,0.0,0.0,0.0,0.0,0.0,0.0,0.0,0.0,0.0,0.0,0.0,0.0,0.0,0.0,0.0,0.0,0.0,0.0,0.0,0.0,0.0,0.0,0.0,0.0,0.0,0.0,0.0,0.0,0.0,0.0,0.0,0.0,0.0,0.0,0.0,0.0,0.0,0.0,0.0,0.0,0.0,0.0,0.0,0.0,0.0,0.0,0.0,0.0,0.0,0.0,0.0,0.0,0.0,0.0,0.0,0.0,0.0,0.0,0.0,0.0,0.0,0.0,0.0,0.0,0.0,0.0,0.0,0.0,0.0,0.0,0.0,0.0,0.0,0.0,0.0,0.0,0.0,0.0,0.0,0.0,0.0,0.0,0.0,0.0,0.0,0.0,0.0,0.0,0.0,0.0,0.0,0.0,0.0,0.0,0.0,0.0,0.0,0.0,0.0,0.0,0.0,0.0,0.0,0.0,0.0,-1.3304,-1.429,-1.5508,-1.5479,-1.528,-1.4902,0.0,0.0,0.0,0.0,0.0,0.0,0.0,0.0,0.0,0.0,0.0,0.0,0.0,0.0,0.0,0.0,0.0,0.0,0.0,0.0,0.0,0.0,0.0,0.0,0.0,0.0,0.0,0.0,0.0,0.0,0.0,0.0,0.0,0.0,0.0,0.0,0.0,0.0,0.0,0.0,0.0,0.0,0.0,0.0,0.0,0.0,0.0,0.0,0.0,0.0,0.0,0.0,0.0,0.0,0.0,0.0,0.0,0.0,0.0,0.0,0.0,0.0,0.0,0.0,0.0,0.0,0.0,0.0,0.0,0.0,0.0,0.0,0.0,0.0,0.0,0.0,0.0,0.0,0.0,0.0,0.0,0.0,0.0,0.0,0.0,0.0,0.0,0.0,0.0,0.0,0.0,0.0,0.0,0.0,0.0,0.0,0.0,0.0,0.0,0.0,0.0,0.0,0.0,0.0,0.0,0.0,0.0,0.0,-1.5602,-1.4403,-1.4818,-1.7045,-1.5016,-1.4163,0.0,0.0,0.0,0.0,0.0,0.0,0.0,0.0,0.0,0.0,0.0,0.0,0.0,0.0,0.0,0.0,0.0,0.0,0.0,0.0,0.0,0.0,0.0,0.0,0.0,0.0,0.0,0.0,0.0,0.0,0.0,0.0,0.0,0.0,0.0,0.0,0.0,0.0,0.0,0.0,0.0,0.0,0.0,0.0,0.0,0.0,0.0,0.0,0.0,0.0,0.0,0.0,0.0,0.0,0.0,0.0,0.0,0.0,0.0,0.0,0.0,0.0,0.0,0.0,0.0,0.0,0.0,0.0,0.0,0.0,0.0,0.0,0.0,0.0,0.0,0.0,0.0,0.0,0.0,0.0,0.0,0.0,0.0,0.0,0.0,0.0,0.0,0.0,0.0,0.0,0.0,0.0,0.0,0.0,0.0,0.0,0.0,0.0,0.0,0.0,0.0,0.0,0.0,0.0,0.0,0.0,0.0,0.0,0.0,-1.2098,-1.2599,-1.3513,-1.4859,-1.4088,-1.3769,0.0,0.0,0.0,0.0,0.0,0.0,0.0,0.0,0.0,0.0,0.0,0.0,0.0,0.0,0.0,0.0,0.0,0.0,0.0,0.0,0.0,0.0,0.0,0.0,0.0,0.0,0.0,0.0,0.0,0.0,0.0,0.0,0.0,0.0,0.0,0.0,0.0,0.0,0.0,0.0,0.0,0.0,0.0,0.0,0.0,0.0,0.0,0.0,0.0,0.0,0.0,0.0,0.0,0.0,0.0,0.0,0.0,0.0,0.0,0.0,0.0,0.0,0.0,0.0,0.0,0.0,0.0,0.0,0.0,0.0,0.0,0.0,0.0,0.0,0.0,0.0,0.0,0.0,0.0,0.0,0.0,0.0,0.0,0.0,0.0,0.0,0.0,0.0,0.0,0.0,0.0,0.0,0.0,0.0,0.0,0.0,0.0,0.0,0.0,0.0,0.0,0.0,0.0,0.0,0.0,0.0,0.0,0.0,0.0,-1.0703,0.0,-1.3048,-1.3519,-1.3305,-1.3069,0.0,0.0,0.0,0.0,0.0,0.0,0.0,0.0,0.0,0.0,0.0,0.0,0.0,0.0,0.0,0.0,0.0,0.0,0.0,0.0,0.0,0.0,0.0,0.0,0.0,0.0,0.0,0.0,0.0,0.0,0.0,0.0,0.0,0.0,0.0,0.0,0.0,0.0,0.0,0.0,0.0,0.0,0.0,0.0,0.0,0.0,0.0,0.0,0.0,0.0,0.0,0.0,0.0,0.0,0.0,0.0,0.0,0.0,0.0,0.0,0.0,0.0,0.0,0.0,0.0,0.0,0.0,0.0,0.0,0.0,0.0,0.0,0.0,0.0,0.0,0.0,0.0,0.0,0.0,0.0,0.0,0.0,0.0,0.0,0.0,0.0,0.0,0.0,0.0,0.0,0.0,0.0,0.0,0.0,0.0,0.0,0.0,0.0,0.0,0.0,0.0,0.0,0.0,0.0,0.0,0.0,0.0,0.0,-1.1513,-1.2226,-1.3042,-1.3437,-1.3494,-1.2689,-1.1929,0.0,0.0,0.0,0.0,0.0,0.0,0.0,0.0,0.0,0.0,0.0,0.0,0.0,0.0,0.0,0.0,0.0,0.0,0.0,0.0,0.0,0.0,0.0,0.0,0.0,0.0,0.0,0.0,0.0,0.0,0.0,0.0,0.0,0.0,0.0,0.0,0.0,0.0,0.0,0.0,0.0,0.0,0.0,0.0,0.0,0.0,0.0,0.0,0.0,0.0,0.0,0.0,0.0,0.0,0.0,0.0,0.0,0.0,0.0,0.0,0.0,0.0,0.0,0.0,0.0,0.0,0.0,0.0,0.0,0.0,0.0,0.0,0.0,0.0,0.0,0.0,0.0,0.0,0.0,0.0,0.0,0.0,0.0,0.0,0.0,0.0,0.0,0.0,0.0,0.0,0.0,0.0,0.0,0.0,0.0,0.0,0.0,0.0,0.0,0.0,0.0,0.0,0.0,0.0,0.0,0.0,0.0,0.0,0.0,-1.0623,-1.1386,-1.2367,-1.3374,-1.1583,-1.1243,0.0,0.0,0.0,0.0,0.0,0.0,0.0,0.0,0.0,0.0,0.0,0.0,0.0,0.0,0.0,0.0,0.0,0.0,0.0,0.0,0.0,0.0,0.0,0.0,0.0,0.0,0.0,0.0,0.0,0.0,0.0,0.0,0.0,0.0,0.0,0.0,0.0,0.0,0.0,0.0,0.0,0.0,0.0,0.0,0.0,0.0,0.0,0.0,0.0,0.0,0.0,0.0,0.0,0.0,0.0,0.0,0.0,0.0,0.0,0.0,0.0,0.0,0.0,0.0,0.0,0.0,0.0,0.0,0.0,0.0,0.0,0.0,0.0,0.0,0.0,0.0,0.0,0.0,0.0,0.0,0.0,0.0,0.0,0.0,0.0,0.0,0.0,0.0,0.0,0.0,0.0,0.0,0.0,0.0,0.0,0.0,0.0,0.0,0.0,0.0,0.0,0.0,0.0,0.0,0.0,0.0,0.0,0.0,0.0,-1.1288,-1.1977,-1.2723,-1.3449,-1.1979,-1.1442,-1.1957,0.0,0.0,0.0,0.0,0.0,0.0,0.0,0.0,0.0,0.0,0.0,0.0,0.0,0.0,0.0,0.0,0.0,0.0,0.0,0.0,0.0,0.0,0.0,0.0,0.0,0.0,0.0,0.0,0.0,0.0,0.0,0.0,0.0,0.0,0.0,0.0,0.0,0.0,0.0,0.0,0.0,0.0,0.0,0.0,0.0,0.0,0.0,0.0,0.0,0.0,0.0,0.0,0.0,0.0,0.0,0.0,0.0,0.0,0.0,0.0,0.0,0.0,0.0,0.0,0.0,0.0,0.0,0.0,0.0,0.0,0.0,0.0,0.0,0.0,0.0,0.0,0.0,0.0,0.0,0.0,0.0,0.0,0.0,0.0,0.0,0.0,0.0,0.0,0.0,0.0,0.0,0.0,0.0,0.0,0.0,0.0,0.0,0.0,0.0,0.0,0.0,0.0,0.0,0.0,0.0,0.0,0.0,0.0,-1.3783,-1.4612,-1.4602,-1.3688,-1.3523,-1.239,0.0,0.0,0.0,0.0,0.0,0.0,0.0,0.0,0.0,0.0,0.0,0.0,0.0,0.0,0.0,0.0,0.0,0.0,0.0,0.0,0.0,0.0,0.0,0.0,0.0,0.0,0.0,0.0,0.0,0.0,0.0,0.0,0.0,0.0,0.0,0.0,0.0,0.0,0.0,0.0,0.0,0.0,0.0,0.0,0.0,0.0,0.0,0.0,0.0,0.0,0.0,0.0,0.0,0.0,0.0,0.0,0.0,0.0,0.0,0.0,0.0,0.0,0.0,0.0,0.0,0.0,0.0,0.0,0.0,0.0,0.0,0.0,0.0,0.0,0.0,0.0,0.0,0.0,0.0,0.0,0.0,0.0,0.0,0.0,0.0,0.0,0.0,0.0,0.0,0.0,0.0,0.0,0.0,0.0,0.0,0.0,0.0,0.0,0.0,0.0,0.0,0.0,0.0,0.0,0.0,0.0,0.0,0.0,0.0,-1.7096,-1.8464,-1.8228,-1.6188,-1.4383,-1.3352,0.0,0.0,0.0,0.0,0.0,0.0,0.0,0.0,0.0,0.0,0.0,0.0,0.0,0.0,0.0,0.0,0.0,0.0,0.0,0.0,0.0,0.0,0.0,0.0,0.0,0.0,0.0,0.0,0.0,0.0,0.0,0.0,0.0,0.0,0.0,0.0,0.0,0.0,0.0,0.0,0.0,0.0,0.0,0.0,0.0,0.0,0.0,0.0,0.0,0.0,0.0,0.0,0.0,0.0,0.0,0.0,0.0,0.0,0.0,0.0,0.0,0.0,0.0,0.0,0.0,0.0,0.0,0.0,0.0,0.0,0.0,0.0,0.0,0.0,0.0,0.0,0.0,0.0,0.0,0.0,0.0,0.0,0.0,0.0,0.0,0.0,0.0,0.0,0.0,0.0,0.0,0.0,0.0,0.0,0.0,0.0,0.0,0.0,0.0,0.0,0.0,0.0,0.0,0.0,0.0,0.0,0.0,0.0,-1.8191,-1.8326,-2.0957,-2.1146,-1.8647,-1.651,-1.4724,0.0,0.0,0.0,0.0,0.0,0.0,0.0,0.0,0.0,0.0,0.0,0.0,0.0,0.0,0.0,0.0,0.0,0.0,0.0,0.0,0.0,0.0,0.0,0.0,0.0,0.0,0.0,0.0,0.0,0.0,0.0,0.0,0.0,0.0,0.0,0.0,0.0,0.0,0.0,0.0,0.0,0.0,0.0,0.0,0.0,0.0,0.0,0.0,0.0,0.0,0.0,0.0,0.0,0.0,0.0,0.0,0.0,0.0,0.0,0.0,0.0,0.0,0.0,0.0,0.0,0.0,0.0,0.0,0.0,0.0,0.0,0.0,0.0,0.0,0.0,0.0,0.0,0.0,0.0,0.0,0.0,0.0,0.0,0.0,0.0,0.0,0.0,0.0,0.0,0.0,0.0,0.0,0.0,0.0,0.0,0.0,0.0,0.0,0.0,0.0,0.0,0.0,0.0,0.0,0.0,0.0,0.0,0.0,-1.9068,-1.8355,-2.224,-2.308,-2.0512,-1.8842,-1.6143,0.0,0.0,0.0,0.0,0.0,0.0,0.0,0.0,0.0,0.0,0.0,0.0,0.0,0.0,0.0,0.0,0.0,0.0,0.0,0.0,0.0,0.0,0.0,0.0,0.0,0.0,0.0,0.0,0.0,0.0,0.0,0.0,0.0,0.0,0.0,0.0,0.0,0.0,0.0,0.0,0.0,0.0,0.0,0.0,0.0,0.0,0.0,0.0,0.0,0.0,0.0,0.0,0.0,0.0,0.0,0.0,0.0,0.0,0.0,0.0,0.0,0.0,0.0,0.0,0.0,0.0,0.0,0.0,0.0,0.0,0.0,0.0,0.0,0.0,0.0,0.0,0.0,0.0,0.0,0.0,0.0,0.0,0.0,0.0,0.0,0.0,0.0,0.0,0.0,0.0,0.0,0.0,0.0,0.0,0.0,0.0,0.0,0.0,0.0,0.0,0.0,0.0,0.0,0.0,0.0,0.0,0.0,0.0,-1.8407,-1.8301,-2.1434,-2.1935,-1.9408,-1.7954,-1.612,0.0,0.0,0.0,0.0,0.0,0.0,0.0,0.0,0.0,0.0,0.0,0.0,0.0,0.0,0.0,0.0,0.0,0.0,0.0,0.0,0.0,0.0,0.0,0.0,0.0,0.0,0.0,0.0,0.0,0.0,0.0,0.0,0.0,0.0,0.0,0.0,0.0,0.0,0.0,0.0,0.0,0.0,0.0,0.0,0.0,0.0,0.0,0.0,-1.0125,0.0,0.0,0.0,0.0,0.0,0.0,0.0,0.0,0.0,0.0,0.0,0.0,0.0,0.0,0.0,0.0,0.0,0.0,0.0,0.0,0.0,0.0,0.0,0.0,0.0,0.0,0.0,0.0,0.0,0.0,0.0,0.0,0.0,0.0,0.0,0.0,0.0,0.0,0.0,0.0,0.0,0.0,0.0,0.0,0.0,0.0,0.0,0.0,0.0,0.0,0.0,0.0,0.0,0.0,0.0,0.0,0.0,0.0,0.0,-1.7837,-1.851,-2.0861,-2.1079,-1.8984,-1.7493,-1.6067,0.0,0.0,0.0,0.0,0.0,0.0,0.0,0.0,0.0,0.0,0.0,0.0,0.0,0.0,0.0,0.0,0.0,0.0,0.0,0.0,0.0,0.0,0.0,0.0,0.0,0.0,0.0,0.0,0.0,0.0,0.0,0.0,0.0,0.0,0.0,0.0,0.0,0.0,0.0,0.0,0.0,0.0,0.0,0.0,0.0,0.0,0.0,0.0,0.0,0.0,0.0,0.0,0.0,0.0,0.0,0.0,0.0,0.0,0.0,0.0,0.0,0.0,0.0,0.0,0.0,0.0,0.0,0.0,0.0,0.0,0.0,0.0,0.0,0.0,0.0,0.0,0.0,0.0,0.0,0.0,0.0,0.0,0.0,0.0,0.0,0.0,0.0,0.0,0.0,0.0,0.0,0.0,0.0,0.0,0.0,0.0,0.0,0.0,0.0,0.0,0.0,0.0,0.0,0.0,0.0,0.0,0.0,-1.6327,-1.7372,-1.8789,-2.028,-2.026,-1.861,-1.7007,-1.5855,-1.5188,0.0,0.0,0.0,0.0,0.0,0.0,0.0,0.0,0.0,0.0,0.0,0.0,0.0,0.0,0.0,0.0,0.0,0.0,0.0,0.0,0.0,0.0,0.0,0.0,0.0,0.0,0.0,0.0,0.0,0.0,0.0,0.0,0.0,0.0,0.0,0.0,0.0,0.0,-1.0012,-0.9534,0.0,0.0,0.0,0.0,0.0,0.0,0.0,0.0,-0.9024,0.0,0.0,0.0,0.0,0.0,0.0,0.0,0.0,0.0,0.0,0.0,0.0,0.0,0.0,0.0,0.0,0.0,0.0,0.0,0.0,0.0,0.0,0.0,0.0,0.0,0.0,0.0,0.0,0.0,0.0,0.0,0.0,0.0,0.0,0.0,0.0,0.0,0.0,0.0,0.0,0.0,0.0,0.0,0.0,0.0,0.0,0.0,0.0,0.0,0.0,0.0,0.0,0.0,0.0,0.0,0.0,-1.6307,-1.6514,-1.7329,-1.8771,-1.9548,-1.9204,-1.7575,-1.5941,-1.5017,-1.4873,0.0,0.0,0.0,0.0,0.0,0.0,0.0,0.0,0.0,0.0,0.0,0.0,0.0,0.0,0.0,0.0,0.0,0.0,0.0,0.0,0.0,0.0,0.0,0.0,0.0,0.0,0.0,0.0,0.0,0.0,0.0,0.0,0.0,0.0,0.0,0.0,0.0,0.0,0.0,-0.9596,-0.9761,0.0,0.0,0.0,0.0,0.0,0.0,0.0,0.0,-0.9989,0.0,0.0,0.0,0.0,0.0,0.0,0.0,0.0,0.0,0.0,0.0,0.0,0.0,0.0,0.0,0.0,0.0,0.0,0.0,0.0,0.0,0.0,0.0,0.0,0.0,0.0,0.0,0.0,0.0,0.0,0.0,0.0,0.0,0.0,0.0,0.0,0.0,0.0,0.0,0.0,0.0,0.0,0.0,0.0,0.0,0.0,0.0,0.0,0.0,0.0,0.0,0.0,0.0,0.0,0.0,-1.5124,-1.5518,-1.62,-1.7274,-1.7951,-1.7561,-1.6063,-1.5245,-1.4671,0.0,0.0,0.0,0.0,0.0,0.0,0.0,0.0,0.0,0.0,0.0,0.0,0.0,0.0,0.0,0.0,0.0,0.0,0.0,0.0,0.0,0.0,0.0,0.0,0.0,0.0,0.0,0.0,0.0,0.0,0.0,0.0,0.0,0.0,0.0,0.0,0.0,0.0,0.0,0.0,-0.9484,-0.9617,-0.9992,0.0,0.0,0.0,0.0,0.0,0.0,-0.9965,-0.985,0.0,0.0,0.0,0.0,0.0,0.0,0.0,0.0,0.0,0.0,0.0,0.0,0.0,0.0,0.0,0.0,0.0,0.0,0.0,0.0,0.0,0.0,0.0,0.0,0.0,0.0,0.0,0.0,0.0,0.0,0.0,0.0,0.0,0.0,0.0,0.0,0.0,0.0,0.0,0.0,0.0,0.0,0.0,0.0,0.0,0.0,0.0,0.0,0.0,0.0,0.0,0.0,0.0,0.0,0.0,-1.42,-1.4926,-1.5505,-1.5899,-1.6622,-1.6297,-1.4865,-1.4707,-1.4389,0.0,0.0,0.0,0.0,0.0,0.0,0.0,0.0,0.0,0.0,0.0,0.0,0.0,0.0,0.0,0.0,0.0,0.0,0.0,0.0,0.0,0.0,0.0,0.0,0.0,0.0,0.0,0.0,0.0,0.0,0.0,0.0,0.0,0.0,0.0,0.0,0.0,0.0,0.0,0.0,0.0,-0.9597,-1.0979,-0.9987,0.0,0.0,0.0,0.0,-1.044,-1.0063,0.0,0.0,0.0,0.0,0.0,0.0,0.0,0.0,0.0,0.0,0.0,0.0,0.0,0.0,0.0,0.0,0.0,0.0,0.0,0.0,0.0,0.0,0.0,0.0,0.0,0.0,0.0,0.0,0.0,0.0,0.0,0.0,0.0,0.0,0.0,0.0,0.0,0.0,0.0,0.0,0.0,0.0,0.0,0.0,0.0,0.0,0.0,0.0,0.0,0.0,0.0,0.0,0.0,0.0,0.0,0.0,-1.5013,-1.6308,-1.6654,-1.5986,-1.6605,-1.6314,-1.4848,-1.4234,-1.3861,0.0,0.0,0.0,0.0,0.0,0.0,0.0,0.0,0.0,0.0,0.0,0.0,0.0,0.0,0.0,0.0,0.0,0.0,0.0,0.0,0.0,0.0,0.0,0.0,0.0,0.0,0.0,0.0,0.0,0.0,0.0,0.0,0.0,0.0,0.0,0.0,0.0,0.0,0.0,0.0,0.0,-1.0268,-1.1091,-1.0483,-1.0263,0.0,0.0,-1.1536,-1.2064,-1.2456,0.0,0.0,0.0,0.0,0.0,0.0,0.0,0.0,0.0,0.0,0.0,0.0,0.0,0.0,0.0,0.0,0.0,0.0,0.0,0.0,0.0,0.0,0.0,0.0,0.0,0.0,0.0,0.0,0.0,0.0,0.0,0.0,0.0,0.0,0.0,0.0,0.0,0.0,0.0,0.0,0.0,0.0,0.0,0.0,0.0,0.0,0.0,0.0,0.0,0.0,0.0,0.0,0.0,0.0,0.0,-1.4527,-1.4491,-1.6202,-1.6734,-1.595,-1.6209,-1.5883,-1.483,-1.4146,-1.3759,0.0,0.0,0.0,0.0,0.0,0.0,0.0,0.0,0.0,0.0,0.0,0.0,0.0,0.0,0.0,0.0,0.0,0.0,0.0,0.0,0.0,0.0,0.0,0.0,0.0,0.0,0.0,0.0,0.0,0.0,0.0,0.0,0.0,0.0,0.0,0.0,0.0,0.0,0.0,0.0,0.0,0.0,-1.1162,-1.0931,0.0,0.0,0.0,-1.1361,-1.1146,0.0,0.0,0.0,0.0,0.0,0.0,0.0,0.0,0.0,0.0,0.0,0.0,0.0,0.0,0.0,0.0,0.0,0.0,0.0,0.0,0.0,0.0,0.0,0.0,0.0,0.0,0.0,0.0,0.0,0.0,0.0,0.0,0.0,0.0,0.0,0.0,0.0,0.0,0.0,0.0,0.0,0.0,0.0,0.0,0.0,0.0,0.0,0.0,0.0,0.0,0.0,0.0,0.0,0.0,0.0,0.0,0.0,-1.4515,-1.6337,-1.6863,-1.5933,-1.5899,-1.564,-1.509,-1.4428,0.0,0.0,0.0,0.0,0.0,0.0,0.0,0.0,0.0,0.0,0.0,0.0,0.0,0.0,0.0,0.0,0.0,0.0,0.0,0.0,0.0,0.0,0.0,0.0,0.0,0.0,0.0,0.0,0.0,0.0,0.0,0.0,0.0,0.0,0.0,0.0,0.0,0.0,0.0,0.0,0.0,0.0,-1.1503,-1.1509,-1.1327,-1.1345,0.0,0.0,-1.1307,-1.0747,-1.1589,-1.2155,0.0,0.0,0.0,0.0,0.0,0.0,0.0,0.0,0.0,0.0,0.0,0.0,0.0,0.0,0.0,0.0,0.0,0.0,0.0,0.0,0.0,0.0,0.0,0.0,0.0,0.0,0.0,0.0,0.0,0.0,0.0,0.0,0.0,0.0,0.0,0.0,0.0,0.0,0.0,0.0,0.0,0.0,0.0,0.0,0.0,0.0,0.0,0.0,0.0,0.0,0.0,0.0,0.0,0.0,0.0,-1.6133,-1.7413,-1.738,-1.5985,-1.5899,-1.5864,-1.5813,-1.5176,-1.4809,0.0,0.0,0.0,0.0,0.0,0.0,0.0,0.0,0.0,0.0,0.0,0.0,0.0,0.0,0.0,0.0,0.0,0.0,0.0,0.0,0.0,0.0,0.0,0.0,0.0,0.0,0.0,0.0,0.0,0.0,0.0,0.0,0.0,0.0,0.0,0.0,0.0,0.0,0.0,0.0,0.0,-1.2401,-1.2331,-1.1685,-1.1721,0.0,0.0,-1.2286,-1.2165,-1.4064,-1.4605,-1.1705,0.0,0.0,0.0,0.0,0.0,0.0,0.0,0.0,0.0,0.0,0.0,0.0,0.0,0.0,0.0,0.0,0.0,0.0,0.0,0.0,0.0,0.0,0.0,0.0,0.0,0.0,0.0,0.0,0.0,0.0,0.0,0.0,0.0,0.0,0.0,0.0,0.0,0.0,0.0,0.0,0.0,0.0,0.0,0.0,0.0,0.0,0.0,0.0,0.0,0.0,0.0,0.0,0.0,-1.7096,-1.6887,-1.7685,-1.7876,-1.7311,-1.6398,-1.6123,-1.657,-1.5453,-1.4429,0.0,0.0,0.0,0.0,0.0,0.0,0.0,0.0,0.0,0.0,0.0,0.0,0.0,0.0,0.0,0.0,0.0,0.0,0.0,0.0,0.0,0.0,0.0,0.0,0.0,0.0,0.0,0.0,-1.0937,-1.1982,-1.3036,0.0,0.0,0.0,0.0,0.0,0.0,0.0,0.0,0.0,0.0,-1.3769,-1.3223,-1.329,0.0,0.0,-1.2965,-1.2764,-1.1727,-1.2738,-1.3364,-1.2512,-1.2093,0.0,0.0,0.0,0.0,0.0,0.0,0.0,0.0,0.0,0.0,0.0,0.0,0.0,0.0,0.0,0.0,0.0,0.0,0.0,0.0,0.0,0.0,0.0,0.0,0.0,0.0,0.0,0.0,0.0,0.0,0.0,0.0,0.0,0.0,0.0,0.0,0.0,0.0,0.0,0.0,0.0,0.0,0.0,0.0,0.0,0.0,0.0,0.0,0.0,0.0,0.0,0.0,-1.7753,-1.764,-1.817,-1.8375,-1.8172,-1.6674,-1.6347,-1.7239,-1.5883,-1.471,0.0,0.0,0.0,0.0,0.0,0.0,0.0,0.0,0.0,0.0,0.0,0.0,0.0,0.0,0.0,0.0,0.0,0.0,0.0,0.0,0.0,0.0,0.0,0.0,0.0,0.0,0.0,0.0,-1.1888,-1.3344,-1.4904,0.0,0.0,0.0,0.0,0.0,0.0,0.0,0.0,0.0,0.0,-1.5198,-1.4118,-1.4465,-1.4399,-1.3253,-1.3398,-1.324,-1.2062,-1.2753,-1.3397,-1.3265,0.0,0.0,0.0,0.0,0.0,0.0,0.0,0.0,0.0,0.0,0.0,0.0,0.0,0.0,0.0,0.0,0.0,0.0,0.0,0.0,0.0,0.0,0.0,0.0,0.0,0.0,0.0,0.0,0.0,0.0,-1.5901,0.0,0.0,0.0,0.0,0.0,0.0,0.0,0.0,0.0,0.0,0.0,0.0,0.0,0.0,0.0,0.0,0.0,0.0,0.0,0.0,0.0,0.0,-1.9084,-1.8385,-1.8966,-1.893,-1.8207,-1.6708,-1.662,-1.7975,-1.6581,-1.6098,-1.673,0.0,0.0,0.0,0.0,0.0,0.0,0.0,0.0,0.0,0.0,0.0,0.0,0.0,0.0,0.0,0.0,0.0,0.0,0.0,0.0,0.0,0.0,0.0,0.0,0.0,0.0,-1.221,-1.2804,-1.3688,0.0,0.0,0.0,0.0,0.0,0.0,0.0,0.0,0.0,0.0,-1.6204,-1.6563,-1.501,-1.4849,-1.4892,-1.4822,-1.4254,-1.3774,-1.3636,-1.4919,-1.5489,0.0,0.0,0.0,0.0,0.0,0.0,0.0,0.0,0.0,0.0,0.0,0.0,0.0,0.0,0.0,0.0,0.0,0.0,0.0,0.0,0.0,0.0,0.0,0.0,0.0,0.0,0.0,-1.6713,-1.6721,0.0,0.0,0.0,0.0,0.0,0.0,0.0,0.0,0.0,0.0,0.0,-1.9662,-1.9563,0.0,0.0,0.0,0.0,0.0,0.0,0.0,0.0,0.0,0.0,0.0,0.0,-1.9287,-1.9104,-1.955,-1.9491,-1.8802,-1.7847,-1.7573,-1.8031,-1.7058,-1.6664,-1.6884,0.0,0.0,0.0,0.0,0.0,0.0,0.0,0.0,0.0,0.0,0.0,0.0,0.0,0.0,0.0,0.0,0.0,0.0,0.0,0.0,0.0,0.0,0.0,0.0,0.0,-1.3719,0.0,0.0,0.0,0.0,0.0,0.0,0.0,0.0,0.0,0.0,0.0,-1.6224,-1.646,-1.6477,-1.6269,-1.5734,-1.5631,-1.5621,0.0,0.0,0.0,0.0,0.0,0.0,0.0,0.0,0.0,0.0,0.0,0.0,0.0,0.0,-1.5074,-1.4753,-1.5749,-1.6663,-1.6726,0.0,0.0,0.0,0.0,0.0,0.0,0.0,0.0,0.0,0.0,0.0,0.0,0.0,0.0,-1.7561,0.0,-1.771,0.0,0.0,0.0,0.0,0.0,0.0,0.0,0.0,-1.9638,-2.0068,-2.0381,-2.0213,-2.0144,0.0,-1.9938,-1.9138,0.0,0.0,0.0,0.0,0.0,0.0,0.0,0.0,-1.9579,-1.9438,-2.0154,-2.0211,-1.9484,-1.8808,-1.8432,-1.8336,-1.7521,-1.705,-1.704,-1.4765,-1.3531,0.0,0.0,0.0,0.0,0.0,0.0,0.0,0.0,0.0,0.0,0.0,0.0,0.0,0.0,0.0,0.0,0.0,0.0,0.0,0.0,0.0,0.0,0.0,-1.4732,0.0,0.0,0.0,0.0,0.0,0.0,0.0,0.0,0.0,-1.6102,-1.6318,-1.6663,-1.7187,-1.7063,-1.6707,-1.6176,0.0,0.0,0.0,0.0,0.0,0.0,0.0,-1.4483,-1.4202,-1.4348,-1.4597,-1.4776,-1.4744,-1.4697,-1.4794,0.0,0.0,-1.543,-1.6385,-1.7281,-1.7355,-1.695,-1.6606,-1.672,-1.5801,-1.485,0.0,0.0,0.0,0.0,0.0,0.0,0.0,0.0,-1.8587,-1.8392,0.0,-1.833,0.0,0.0,0.0,0.0,0.0,-1.8776,0.0,0.0,-2.0736,-2.1289,-2.1005,-2.0447,-2.0162,-2.0179,-1.9583,-1.9256,-1.9256,-1.9993,0.0,0.0,0.0,0.0,0.0,0.0,-2.0114,-1.9554,-2.0761,-2.1037,-2.0245,-1.9546,-1.9114,-1.9015,-1.8031,-1.7434,-1.7305,-1.669,-1.6082,-1.5439,-1.5028,0.0,0.0,0.0,0.0,0.0,0.0,0.0,0.0,0.0,0.0,0.0,0.0,0.0,0.0,0.0,0.0,0.0,0.0,0.0,0.0,-1.4489,0.0,0.0,0.0,0.0,0.0,0.0,0.0,0.0,0.0,0.0,-1.6145,-1.6696,-1.718,-1.7202,0.0,0.0,0.0,0.0,-1.6801,-1.5339,-1.5145,-1.5184,-1.5233,-1.5784,-1.6441,-1.7118,0.0,0.0,-1.725,-1.5815,-1.4889,-1.4963,-1.6202,-1.6855,-1.6183,-1.6762,-1.7349,-1.7414,-1.7359,-1.73,-1.7439,-1.6323,-1.5144,-2.4215,0.0,0.0,0.0,0.0,-2.1402,-2.1598,-2.2335,-2.125,-2.0515,-2.0117,-1.9611,0.0,0.0,0.0,0.0,0.0,0.0,-1.9979,-2.0695,-2.1711,-2.2521,-2.3148,-2.261,-2.236,-2.2355,-2.1684,-2.1373,-2.139,-2.162,-2.0892,-1.9326,0.0,0.0,0.0,0.0,-2.0453,-2.0788,-2.1589,-2.1688,-2.0925,-2.0713,-2.034,-1.9779,-1.8913,-1.8382,-1.817,-1.7199,-1.6492,-1.6131,-1.6216,0.0,0.0,0.0,0.0,0.0,0.0,0.0,0.0,0.0,0.0,0.0,0.0,0.0,0.0,0.0,0.0,0.0,0.0,0.0,-1.5263,-1.1719,-1.0758,0.0,0.0,0.0,0.0,0.0,0.0,0.0,0.0,0.0,-1.6724,-1.6496,-1.657,0.0,0.0,-1.5978,-1.6129,-1.63,-1.6428,-1.657,-1.6591,0.0,0.0,-1.7204,-1.7063,-1.7267,-1.7826,-1.8162,-1.7979,-1.7882,-1.788,-1.8085,-1.8407,-1.8577,-1.8402,-1.8472,-1.8711,-1.892,-1.8901,-1.8683,-1.8281,-1.7802,-1.733,-2.7916,-2.577,-2.42,-2.3758,-2.4006,-2.3628,-2.3872,-2.4477,-2.3651,-2.2987,-2.246,-2.1988,-2.1235,-2.0273,-2.003,0.0,0.0,0.0,-2.114,-2.165,-2.2321,-2.3044,-2.3786,-2.352,-2.3329,-2.3274,-2.2895,-2.2552,-2.231,-2.1989,-2.1266,-2.0069,0.0,0.0,-1.978,-2.036,-2.0866,-2.1318,-2.1959,-2.2073,-2.1651,-2.1356,-2.0976,-2.0535,-1.9647,-1.9027,-1.8726,-1.7828,-1.7133,-1.6733,-1.6427,-1.5747,0.0,0.0,0.0,0.0,0.0,0.0,0.0,0.0,0.0,0.0,0.0,-1.4748,0.0,0.0,0.0,0.0,-1.4571,-1.4201,-1.2375,-1.0867,0.0,0.0,0.0,0.0,0.0,0.0,0.0,-1.5384,-1.6155,-1.6725,-1.6702,-1.64,-1.6528,-1.7534,-1.684,-1.6322,-1.6533,0.0,-1.6974,-1.713,-1.7176,-1.7356,-1.7813,-1.7835,-1.7839,-1.8112,-1.837,-1.8632,-1.8786,-1.8962,-1.9178,-1.9398,-1.9427,-1.938,-1.9376,-1.9323,-1.9311,-1.9471,-1.949,-1.9351,-1.8964,-1.8689,-1.8335,-3.139,-3.0552,-2.7715,-2.6376,-2.6101,-2.6086,-2.6038,-2.5914,-2.5869,-2.5558,-2.5122,-2.4777,-2.4187,-2.3293,-2.274,0.0,-2.1175,-2.2269,-2.2607,-2.2401,-2.2742,-2.3131,-2.3592,-2.3612,-2.349,-2.3284,-2.3248,-2.2904,-2.2237,-2.1583,-2.1254,-2.1298,-2.123,-2.0918,-2.036,-2.0833,-2.1181,-2.1318,-2.1908,-2.2226,-2.231,-2.1634,-2.1288,-2.1262,-2.0237,-1.9553,-1.9228,-1.8486,-1.7828,-1.7277,-1.604,-1.5484,-1.5684,0.0,0.0,0.0,0.0,0.0,0.0,0.0,0.0,0.0,0.0,0.0,0.0,0.0,0.0,0.0,-1.404,0.0,-0.8122,-1.1783,0.0,0.0,0.0,-1.5498,-1.6096,-1.6236,-1.627,-1.6281,0.0,0.0,-1.6399,-1.6447,-1.6923,-1.807,-1.8217,-1.7937,-1.7287,-1.7795,-1.8024,-1.7331,-1.7328,-1.7415,-1.7708,-1.8229,-1.8867,-1.9357,-1.9335,-1.9243,-1.9376,-1.9256,-1.9196,-1.9365,-1.9442,-1.9485,-1.949,-1.9423,-1.939,-1.9232,-1.9372,-1.9513,-1.9457,-1.9007,-1.859,-3.3679,-3.3425,-3.2212,-3.0533,-2.8704,-2.8689,-2.8689,-2.8607,-2.8098,-2.755,-2.6909,-2.5809,-2.4672,-2.3525,-2.3375,-2.3182,-2.302,-2.3767,-2.4024,-2.383,-2.4416,-2.4655,-2.4551,-2.4426,-2.3902,-2.3086,-2.2883,-2.2432,-2.1781,-2.1566,-2.1673,-2.1989,-2.1484,-2.0875,-2.0252,-2.0364,-2.0713,-2.1206,-2.1383,-2.1729,-2.2293,-2.2141,-2.204,-2.204,-2.0994,-2.0428,-2.0378,-1.8871,-1.799,-1.7861,-1.6524,-1.5152,-1.3801,-1.4307,0.0,0.0,0.0,0.0,0.0,0.0,0.0,0.0,0.0,-1.435,-1.3918,0.0,-1.4356,0.0,-1.4888,-1.5034,-1.397,-1.5123,0.0,0.0,-1.5767,-1.5836,-1.5886,-1.6517,-1.6747,-1.6202,-1.6677,-1.71,-1.7117,-1.7151,-1.7488,-1.836,-1.7739,-1.7393,-1.7956,-1.8146,-1.8167,-1.8019,-1.8444,-1.9095,-1.9582,-1.9881,-2.0049,-2.0276,-1.9685,-1.9235,-1.9282,-1.9184,-1.9134,-1.9289,-1.9305,-1.9335,-1.9409,-1.9518,-1.9476,-1.9209,-1.9305,-1.9527,-1.9612,-1.9599,-1.9545,-3.4936,-3.4906,-3.4532,-3.338,-3.1749,-3.145,-3.1165,-3.0851,-3.0507,-2.9789,-2.8816,-2.7829,-2.6797,-2.5839,-2.5824,-2.5495,-2.4971,-2.533,-2.5273,-2.4893,-2.5242,-2.5308,-2.5092,-2.5139,-2.4537,-2.3422,-2.3444,-2.2899,-2.1826,-2.192,-2.1988,-2.1974,-2.1613,-2.1099,-2.0439,-2.0247,-2.0526,-2.1223,-2.1213,-2.1559,-2.2231,-2.2152,-2.2,-2.1803,-2.1089,-2.0567,-2.0235,-1.8923,-1.816,-1.8022,-1.6719,-1.5533,-1.4496,-1.4386,-1.3831,0.0,0.0,0.0,0.0,0.0,0.0,0.0,0.0,0.0,0.0,0.0,-1.4693,0.0,-1.552,-1.5995,-1.5865,-1.6087,-1.6182,-1.6157,-1.6216,-1.6333,-1.6533,-1.7024,-1.7195,-1.6861,-1.7483,-1.7973,-1.8072,-1.8388,-1.8777,-1.9314,-1.887,-1.8448,-1.8494,-1.8492,-1.8474,-1.8587,-1.8953,-1.9554,-2.0342,-2.0468,-2.0505,-2.0383,-1.9747,-1.92,-1.9282,-1.917,-1.912,-1.9264,-1.9353,-1.9365,-1.935,-1.9458,-1.9513,-1.9372,-1.9405,-1.9541,-1.9609,-1.9643,-1.9638,-3.5489,-3.5489,-3.5489,-3.516,-3.4562,-3.3993,-3.3335,-3.2632,-3.2542,-3.1749,-3.0477,-2.9939,-2.934,-2.8742,-2.8622,-2.7964,-2.6856,-2.6767,-2.6363,-2.5749,-2.5734,-2.5606,-2.5369,-2.5753,-2.5208,-2.391,-2.434,-2.3706,-2.2189,-2.2328,-2.2166,-2.1746,-2.1612,-2.1279,-2.0771,-2.0217,-2.0382,-2.1275,-2.1247,-2.1498,-2.2141,-2.1786,-2.1389,-2.1049,-2.0705,-2.0235,-1.9578,-1.8866,-1.8358,-1.8022,-1.6816,-1.619,-1.6249,-1.4662,-1.4343,0.0,-1.5318,0.0,0.0,0.0,0.0,0.0,0.0,0.0,0.0,-1.5174,-1.5047,-1.563,-1.5998,-1.6071,-1.5795,-1.5967,-1.6336,-1.6778,-1.6925,-1.7183,-1.7712,-1.7771,-1.7826,-1.7967,-1.8538,-1.8966,-1.9029,-1.9646,-2.0142,-2.0209,-2.0223,-1.9826,-1.9004,-1.8858,-1.8968,-1.9017,-1.9139,-1.9608,-2.0118,-2.0368,-2.0386,-2.0173,-1.9611,-1.9237,-1.9329,-1.9168,-1.9087,-1.9251,-1.9402,-1.9442,-1.9259,-1.9361,-1.9444,-1.9405,-1.9467,-1.9527,-1.9513,-1.9481,-1.9452,-3.5489,-3.5489,-3.5489,-3.5429,-3.531,-3.5175,-3.4427,-3.3275,-3.2751,-3.1749,-3.0507,-3.0387,-2.9968,-2.937,-2.8831,-2.8472,-2.8188,-2.7634,-2.7036,-2.6408,-2.6393,-2.6096,-2.5574,-2.5953,-2.5277,-2.3743,-2.4128,-2.3842,-2.2786,-2.2266,-2.2165,-2.2359,-2.1289,-2.0868,-2.1043,0.0,0.0,0.0,-2.123,-2.1271,-2.1363,-2.0702,-2.0321,-2.0229,-1.988,0.0,-1.9786,-1.8821,-1.8254,-1.8215,-1.7087,0.0,0.0,0.0,0.0,0.0,0.0,0.0,0.0,0.0,0.0,0.0,-1.8343,-1.7623,-1.7073,-1.6442,-1.5904,-1.551,-1.5954,-1.6232,-1.6133,-1.72,-1.7946,-1.8071,-1.8643,-1.9074,-1.9197,-1.9233,-1.9301,-1.9327,-1.9486,-1.9638,-1.9698,-1.9858,-2.001,-2.0145,-2.0135,-1.9826,-1.9098,-1.9321,-1.9431,-1.9144,-1.9522,-1.9975,-1.9912,-2.0063,-2.0192,-2.0065,-1.9435,-1.9036,-1.9168,-1.9219,-1.917,-1.92,-1.9202,-1.9232,-1.9248,-1.9277,-1.924,-1.9117,-1.928,-1.9431,-1.9427,-1.9612,-1.972,-3.5489,0.0,-3.5489,-3.5489,0.0,-3.5489,-3.5115,-3.4442,-3.3769,-3.2736,-3.1509,-3.1495,-3.115,-3.0492,-2.952,-2.9086,-2.9026,-2.8023,-2.7445,-2.7081,-2.713,-2.6741,-2.6114,-2.6504,-2.5955,-2.4626,-2.4737,-2.4271,-2.3319,-2.2792,-2.2499,-2.242,-2.1736,-2.1545,-2.1813,-2.0797,-2.041,-2.0688,-2.0704,-2.0971,-2.1446,-2.0784,-2.0376,-2.0327,0.0,0.0,0.0,0.0,0.0,0.0,0.0,0.0,0.0,0.0,0.0,-1.8439,-1.8849,-1.9158,-1.9375,-1.9466,-1.9626,-1.9919,-1.978,-1.9023,-1.7453,-1.6992,-1.6591,-1.6285,-1.6574,-1.6855,-1.7191,-1.7913,-1.8539,-1.8884,-1.9316,-1.9547,-1.9601,-1.9611,-1.9664,-1.9741,-2.0067,-2.0338,-2.0374,-2.072,-2.0975,-2.1046,-2.0779,-2.0348,-1.9788,-1.9554,-1.9269,-1.8821,-1.9524,-2.0044,-1.981,-1.9893,-1.997,-1.9822,-1.9252,-1.8914,-1.8965,-1.9051,-1.912,-1.9102,-1.92,-1.928,-1.9137,-1.92,-1.9248,-1.9069,-1.9168,-1.9277,-1.9289,-1.949,-1.9688,-3.5489,-3.5489,-3.5489,-3.5489,-3.5489,-3.5489,-3.5489,-3.5459,0.0,0.0,0.0,-3.2392,-3.2048,-3.145,-3.0283,-2.9744,-2.9654,-2.8368,-2.7865,-2.7904,-2.773,-2.7355,-2.6988,-2.7155,-2.6738,-2.5779,-2.55,-2.4874,-2.3889,-2.3427,-2.2955,-2.2493,-2.2355,-2.2331,-2.2353,-2.1921,-2.129,-2.0575,-2.0297,-2.0635,-2.1447,-2.0813,-2.0461,-2.0397,-1.9865,-1.9383,-1.9001,-1.8968,-1.8968,-1.8984,-1.8914,-1.898,-1.9106,-1.9063,-1.9067,-1.9164,-1.9134,-1.9326,-1.9686,-1.983,-2.005,-2.0481,-2.0716,-1.9994,-1.7951,-1.7727,-1.7627,-1.7497,-1.7523,-1.7792,-1.8329,-1.8561,-1.8936,-1.9586,-1.9794,-1.9904,-1.9987,-1.9981,-2.0075,-2.0113,-2.0639,-2.1,-2.1072,-2.1568,-2.2044,-2.2068,-2.1591,-2.1059,-2.0514,-1.9608,-1.8797,-1.8499,-1.9217,-1.9795,-1.9453,-1.9684,-1.9743,-1.9366,-1.8974,-1.8734,-1.8771,-1.8878,-1.8966,-1.8966,-1.9214,-1.923,-1.9019,-1.912,-1.9216,-1.9036,-1.9066,-1.9164,-1.9162,-1.9305,-1.9481,-3.5504,-3.5489,-3.5489,-3.5489,-3.5489,-3.5489,-3.5489,-3.54,-3.4173,-3.3215,-3.2497,-3.1913,-3.1614,-3.1495,-3.0717,-3.0372,-3.0298,-2.9041,-2.8757,-2.9235,-2.8165,-2.7859,-2.8286,-2.7775,-2.7166,-2.6435,-2.5851,-2.5395,-2.4973,-2.382,-2.3185,-2.311,-2.2509,-2.2133,-2.1925,-2.1911,-2.1889,-2.1793,-2.0734,-2.0289,-2.04,-1.9667,-1.927,-1.9248,-1.9177,-1.9055,-1.8917,-1.8933,-1.8917,-1.8917,-1.8917,-1.9099,-1.9484,-1.9531,-1.9703,-2.0066,-2.0113,-2.0141,-2.0184,-2.0218,-2.0299,-2.0447,-2.0129,-1.9875,-1.99,-1.9852,-1.9592,-1.9005,-1.8843,-1.8956,-1.9086,-1.9646,-2.0049,-2.029,-2.0872,-2.1338,-2.1299,-2.1328,-2.1341,-2.1383,-2.1595,-2.1657,-2.1699,-2.1845,-2.1957,-2.1998,-2.1854,-2.172,-2.0866,-1.9562,-1.8422,-1.8237,-1.8926,-1.9146,-1.878,-1.9115,-1.9292,-1.8737,-1.8535,-1.8489,-1.866,-1.8771,-1.8807,-1.8825,-1.8983,-1.9035,-1.8984,-1.8985,-1.9002,-1.8949,-1.8983,-1.9067,-1.9196,-1.9289,-1.9335,-3.5833,-3.5504,-3.5489,-3.5489,-3.5489,-3.5489,-3.5489,-3.5415,-3.4457,-3.3664,-3.3006,-3.2347,-3.1869,-3.148,-3.0806,-3.0492,-3.0462,-2.9549,-2.9295,-2.949,-2.8577,-2.8321,-2.8493,-2.7931,-2.7434,-2.711,-2.6464,-2.6083,-2.5863,-2.4623,-2.3973,-2.3955,-2.3277,-2.2903,-2.2862,-2.2571,-2.2485,-2.2559,-2.1657,-2.1151,-2.107,-2.0476,-2.0097,-1.9987,-1.9815,-1.9703,-1.9671,-1.9999,-2.0186,-2.0202,-2.0545,-2.0683,-2.0534,-2.0876,-2.0856,-2.035,-2.0643,-2.069,-2.032,-2.0304,-2.0373,-2.0478,-2.0264,-2.0256,-2.0528,-1.9947,-1.9441,-1.922,-1.92,-1.9378,-1.9738,-2.0124,-2.0494,-2.0912,-2.1285,-2.1526,-2.1634,-2.1694,-2.1708,-2.1738,-2.1768,-2.1811,-2.184,-2.184,-2.1869,-2.1907,-2.1747,-2.1267,-2.0625,-1.9813,-1.9184,-1.9188,-1.9561,-1.9493,-1.8864,-1.9039,-1.9061,-1.8447,-1.8328,-1.8368,-1.8487,-1.8566,-1.8641,-1.8659,-1.877,-1.8843,-1.8789,-1.8878,-1.8914,-1.8896,-1.8913,-1.9,-1.9101,-1.9166,-1.9068,-3.6207,-3.5729,-3.5564,-3.5489,-3.5489,-3.5489,-3.5489,-3.5429,-3.4771,-3.4188,-3.3664,-3.2871,-3.2228,-3.1719,-3.1046,-3.0731,-3.0657,-3.0073,-2.9879,-2.9924,-2.9205,-2.8929,-2.8919,-2.8186,-2.7814,-2.7724,-2.6991,-2.6602,-2.6452,-2.5405,-2.4806,-2.4777,-2.4148,-2.3878,-2.3964,-2.3318,-2.3069,-2.3137,-2.2667,-2.2179,-2.1858,-2.1486,-2.1239,-2.1077,-2.0822,-2.0696,-2.0727,-2.1188,-2.1501,-2.148,-2.1993,-2.204,-2.1615,-2.1993,-2.1824,-2.0936,-2.1245,-2.126,-2.0597,-2.0381,-2.0339,-2.0441,-2.0475,-2.0527,-2.0634,-1.9846,-1.9347,-1.9599,-1.9722,-1.9949,-2.0418,-2.0548,-2.0773,-2.1306,-2.1386,-2.1433,-2.1526,-2.1603,-2.1664,-2.1664,-2.1721,-2.1768,-2.1797,-2.1797,-2.1811,-2.1816,-2.1456,-2.0916,-2.0468,-2.0377,-2.0456,-2.05,-2.0518,-2.0167,-1.9566,-1.9452,-1.9207,-1.8547,-1.8495,-1.8471,-1.8447,-1.849,-1.8586,-1.8573,-1.8604,-1.8679,-1.8642,-1.8752,-1.8861,-1.8878,-1.8896,-1.8931,-1.9001,-1.8853,-1.8808,-3.6447,-3.6312,-3.5744,-3.5489,-3.5489,-3.5489,-3.5489,-3.5415,-3.4786,-3.4442,-3.4277,-3.3066,-3.2512,-3.2332,-3.1734,-3.1377,-3.1287,-3.0731,-3.0746,-3.112,-3.0058,-2.9798,-3.0123,-2.9079,-2.848,-2.8375,-2.7255,-2.6782,-2.6737,-2.5929,-2.5525,-2.545,-2.4852,-2.4522,-2.4448,-2.3849,-2.3606,-2.3749,-2.3546,-2.2983,-2.2071,-2.1941,-2.1896,-2.1889,-2.1873,-2.1835,-2.1774,-2.1973,-2.2011,-2.2026,-2.2232,-2.2286,-2.2209,-2.227,-2.224,-2.2086,-2.2132,-2.1901,-2.126,-2.0643,-2.0304,-2.0304,-2.0339,-2.0373,-2.0494,-2.0436,-2.0523,-2.0767,-2.0972,-2.1035,-2.1195,-2.1195,-2.1195,-2.1276,-2.1309,-2.134,-2.1386,-2.1417,-2.1448,-2.162,-2.1664,-2.1708,-2.1708,-2.1768,-2.1811,-2.1882,-2.1766,-2.1645,-2.1613,-2.1653,-2.1731,-2.1787,-2.1559,-2.0875,-2.0237,-2.0082,-1.9822,-1.927,-1.9127,-1.8947,-1.8733,-1.8888,-1.9199,-1.8679,-1.8428,-1.8526,-1.8566,-1.8623,-1.8697,-1.8789,-1.8843,-1.8878,-1.8894,-1.8475,-1.8213,-3.6821,-3.6432,-3.5789,-3.5489,-3.5489,-3.5489,-3.5489,-3.5459,-3.5205,-3.5085,-3.4966,-3.4083,-3.3245,-3.2512,-3.2228,-3.1913,-3.1467,-3.124,-3.1198,-3.1435,-3.0552,-3.0287,-3.0357,-2.9615,-2.9197,-2.9193,-2.8614,-2.8353,-2.8173,-2.7305,-2.6378,-2.5674,-2.533,-2.5031,-2.4597,-2.4343,-2.4014,-2.3711,-2.3638,-2.3368,-2.2972,-2.2647,-2.2294,-2.2039,-2.1994,-2.1994,-2.2039,-2.2382,-2.2635,-2.2681,-2.3151,-2.3222,-2.2808,-2.32,-2.3117,-2.2378,-2.1901,-2.1578,-2.1337,-2.069,-2.0304,-2.0304,-2.0304,-2.0339,-2.0357,-2.046,-2.0595,-2.0728,-2.1006,-2.123,-2.1294,-2.1294,-2.1294,-2.1294,-2.1294,-2.1309,-2.134,-2.1355,-2.1417,-2.1481,-2.1573,-2.1664,-2.1694,-2.1768,-2.1827,-2.184,-2.184,-2.1869,-2.1928,-2.2003,-2.2032,-2.2056,-2.1905,-2.1549,-2.0925,-2.079,-2.0475,-2.0013,-1.9829,-1.967,-1.9522,-1.9245,-1.9243,-1.8914,-1.8603,-1.8406,-1.8393,-1.8528,-1.8641,-1.8698,-1.8396,-1.834,-1.8858,-1.7972,-1.7609,-3.715,-3.6641,-3.5863,-3.5489,-3.5489,-3.5489,-3.5489,-3.5489,-3.5489,-3.5489,-3.5459,-3.4966,-3.4128,-3.3125,-3.2871,-3.2512,-3.2108,-3.2078,-3.1973,-3.1764,-3.1285,-3.0962,-3.0745,-3.0142,-2.9854,-2.9818,-2.963,-2.9564,-2.9475,-2.8719,-2.7619,-2.6782,-2.6333,-2.5914,-2.5435,-2.5121,-2.4567,-2.3954,-2.3879,-2.3789,-2.3565,-2.323,-2.2847,-2.2491,-2.2445,-2.2445,-2.246,-2.297,-2.3212,-2.3228,-2.3823,-2.3895,-2.3422,-2.3917,-2.379,-2.2893,-2.2194,-2.184,-2.1824,-2.1245,-2.0859,-2.0844,-2.072,-2.0674,-2.0782,-2.076,-2.074,-2.0824,-2.1061,-2.1245,-2.123,-2.1262,-2.1246,-2.1277,-2.1294,-2.1294,-2.1309,-2.134,-2.1355,-2.1386,-2.1481,-2.1589,-2.1694,-2.1738,-2.1768,-2.1797,-2.1781,-2.1811,-2.1869,-2.1899,-2.1928,-2.1969,-2.2061,-2.1945,-2.1549,-2.1264,-2.0985,-2.0747,-2.0508,-2.0404,-2.0223,-1.9619,-1.9149,-1.8814,-1.852,-1.8339,-1.8348,-1.845,-1.8566,-1.8516,-1.8288,-1.8163,-1.8842,-1.7727,-1.7281,-3.7389,-3.7195,-3.6013,-3.5519,-3.5504,-3.5504,-3.5489,-3.5489,-3.5489,-3.5489,-3.5489,-3.5444,-3.504,-3.4322,-3.3769,-3.3455,-3.3365,-3.3305,-3.3006,-3.2497,-3.2407,-3.2093,-3.1422,-3.0791,-3.0507,-3.0511,-3.0118,-2.9744,-2.9639,-2.952,-2.9475,-2.928,-2.8068,-2.7455,-2.7141,-2.6153,-2.5255,-2.4612,-2.4492,-2.4283,-2.3729,-2.3595,-2.3505,-2.3503,-2.3518,-2.3458,-2.3488,-2.3649,-2.3764,-2.3721,-2.3909,-2.3994,-2.3921,-2.3994,-2.4006,-2.3994,-2.3508,-2.3163,-2.304,-2.2455,-2.2101,-2.207,-2.1532,-2.1522,-2.1916,-2.1568,-2.1347,-2.1439,-2.1459,-2.1434,-2.1245,-2.1183,-2.1167,-2.1277,-2.131,-2.1342,-2.1294,-2.1374,-2.1325,-2.1325,-2.1402,-2.1495,-2.1648,-2.1678,-2.1738,-2.1768,-2.1781,-2.1797,-2.1827,-2.1869,-2.1882,-2.1911,-2.194,-2.2027,-2.2062,-2.1731,-2.1356,-2.1196,-2.1113,-2.0858,-2.0123,-1.9521,-1.9133,-1.8731,-1.8396,-1.8256,-1.8304,-1.8351,-1.845,-1.8438,-1.8408,-1.8502,-1.8735,-1.7968,-1.7365,-3.7778,-3.73,-3.6043,-3.5744,-3.6073,-3.5684,-3.5489,-3.5489,-3.5489,-3.5489,-3.5489,-3.5489,-3.537,-3.5115,-3.4891,-3.4307,-3.3559,-3.3499,-3.3365,-3.3155,-3.314,-3.3021,-3.2796,-3.2512,-3.2183,-3.1794,-3.1569,-3.1001,-3.0223,-3.0163,-2.9968,-2.9594,-2.9131,-2.8457,-2.7634,-2.7126,-2.6348,-2.533,-2.4836,-2.4702,-2.4762,-2.4044,-2.3789,-2.4208,-2.3819,-2.3595,-2.3595,-2.3638,-2.3653,-2.3696,-2.3797,-2.3882,-2.3897,-2.394,-2.404,-2.4006,-2.3442,-2.3142,-2.309,-2.2554,-2.2194,-2.227,-2.2086,-2.2009,-2.2194,-2.207,-2.1954,-2.1991,-2.2028,-2.1983,-2.1918,-2.1413,-2.099,-2.1167,-2.1455,-2.1551,-2.1424,-2.1601,-2.1665,-2.1407,-2.1355,-2.1417,-2.1526,-2.1587,-2.1664,-2.1708,-2.1738,-2.1738,-2.1797,-2.1811,-2.184,-2.184,-2.1899,-2.1957,-2.1986,-2.1984,-2.1849,-2.1877,-2.1813,-2.1443,-2.0875,-2.0013,-1.9566,-1.8796,-1.8378,-1.8172,-1.8222,-1.8208,-1.831,-1.8417,-1.8388,-1.8295,-1.8534,-1.7485,-1.671,-3.7883,-3.706,-3.6402,-3.6252,-3.6417,-3.6013,-3.5699,-3.5519,-3.5489,-3.5489,-3.5489,-3.5489,-3.5489,-3.5489,-3.5489,-3.5055,-3.4203,-3.4158,-3.4038,-3.3814,-3.3814,-3.3709,-3.3529,-3.3499,-3.326,-3.2826,-3.2587,-3.1913,-3.0956,-3.0836,-3.0612,-3.0238,-2.9998,-2.9445,-2.8592,-2.8143,-2.7335,-2.6318,-2.5585,-2.542,-2.5465,-2.4507,-2.4133,-2.4403,-2.3954,-2.3595,-2.3595,-2.3595,-2.3595,-2.3595,-2.3696,-2.3739,-2.3739,-2.3882,-2.3925,-2.3879,-2.3557,-2.3355,-2.332,-2.298,-2.279,-2.2893,-2.2693,-2.2632,-2.2871,-2.2748,-2.264,-2.2624,-2.2609,-2.2655,-2.2381,-2.1744,-2.1405,-2.1623,-2.1919,-2.2014,-2.1807,-2.1984,-2.1842,-2.1439,-2.1324,-2.1355,-2.1386,-2.1464,-2.1495,-2.1479,-2.1587,-2.1648,-2.1448,-2.1631,-2.1631,-2.1493,-2.1554,-2.1661,-2.1631,-2.1579,-2.1857,-2.196,-2.1597,-2.1471,-2.1034,-2.0289,-1.959,-1.8881,-1.8466,-1.8224,-1.8113,-1.81,-1.8191,-1.8318,-1.8171,-1.8017,-1.7587,-1.682,-1.6402,-3.7689,-3.6821,-3.715,-3.703,-3.6671,-3.6537,-3.6118,-3.5639,-3.5579,-3.5579,-3.5519,-3.5489,-3.5489,-3.5489,-3.5489,-3.5444,-3.534,-3.528,-3.5011,-3.4517,-3.4487,-3.4188,-3.3709,-3.3724,-3.3649,-3.3469,-3.2826,-3.2213,-3.1601,-3.1437,-3.1362,-3.1317,-3.0791,-3.0357,-3.0372,-2.9116,-2.8233,-2.7425,-2.6722,-2.6213,-2.5644,-2.5016,-2.4657,-2.4627,-2.4044,-2.3655,-2.361,-2.3595,-2.3595,-2.3595,-2.3595,-2.3595,-2.3638,-2.3739,-2.3797,-2.3797,-2.3852,-2.3952,-2.3937,-2.3846,-2.3812,-2.3891,-2.3478,-2.3396,-2.3815,-2.3609,-2.3302,-2.3302,-2.3286,-2.3086,-2.2617,-2.2401,-2.2412,-2.2687,-2.2676,-2.2708,-2.2643,-2.2372,-2.1904,-2.1504,-2.1407,-2.1356,-2.1371,-2.1355,-2.1293,-2.1182,-2.1261,-2.1293,-2.0926,-2.1214,-2.1245,-2.0991,-2.1023,-2.1245,-2.1198,-2.1135,-2.1556,-2.179,-2.1233,-2.0849,-2.0197,-1.9513,-1.8784,-1.8114,-1.799,-1.7789,-1.7856,-1.7844,-1.7888,-1.7945,-1.7791,-1.774,-1.7403,-1.6963,-1.6624,-3.8437,-3.8392,-3.7689,-3.7584,-3.7704,-3.733,-3.6761,-3.6222,-3.6193,-3.5923,-3.5564,-3.5489,-3.5489,-3.5504,-3.5489,-3.5504,-3.5489,-3.5489,-3.5385,-3.519,-3.5175,-3.5055,-3.4876,-3.4846,-3.4622,-3.4053,-3.3036,-3.2662,-3.2662,-3.1915,-3.1734,-3.1988,-3.1539,-3.0731,-2.9998,-2.9445,-2.8757,-2.7685,-2.6916,-2.6677,-2.6797,-2.5869,-2.53,-2.5226,-2.4657,-2.4103,-2.364,-2.3595,-2.3595,-2.3595,-2.3595,-2.3595,-2.3595,-2.3638,-2.3653,-2.3653,-2.3696,-2.3782,-2.3839,-2.3882,-2.3925,-2.3994,-2.3895,-2.3937,-2.4131,-2.4076,-2.3963,-2.3979,-2.3994,-2.3856,-2.3733,-2.3686,-2.3405,-2.2727,-2.2932,-2.307,-2.2881,-2.269,-2.2388,-2.1968,-2.1857,-2.1714,-2.1375,-2.1183,-2.099,-2.0845,-2.0812,-2.0665,-2.0812,-2.0812,-2.0975,-2.0878,-2.0926,-2.0795,-2.0747,-2.073,-2.0974,-2.1066,-2.0678,-2.0216,-1.9553,-1.8739,-1.8021,-1.7626,-1.7508,-1.7479,-1.7549,-1.7572,-1.7572,-1.7641,-1.7614,-1.762,-1.767,-1.7231,-1.6534,-3.8886,-3.896,-3.8407,-3.8227,-3.8362,-3.7928,-3.7419,-3.6881,-3.6836,-3.6596,-3.6237,-3.5968,-3.5878,-3.5818,-3.5624,-3.5439,-3.5439,-3.5439,-3.5439,-3.5359,-3.5439,-3.5504,-3.5489,-3.5489,-3.5145,-3.4472,-3.3649,-3.332,-3.341,-3.2482,-3.2228,-3.2662,-3.1988,-3.1315,-3.0582,-2.9909,-2.9086,-2.8293,-2.7455,-2.7156,-2.7275,-2.6527,-2.5974,-2.5854,-2.5091,-2.4433,-2.3999,-2.3744,-2.3595,-2.3595,-2.3595,-2.3595,-2.3595,-2.3595,-2.3595,-2.3595,-2.3595,-2.3638,-2.3739,-2.3739,-2.3782,-2.3925,-2.4024,-2.4082,-2.4124,-2.4208,-2.4193,-2.4307,-2.4261,-2.4261,-2.4287,-2.4302,-2.3927,-2.3367,-2.3504,-2.3506,-2.3192,-2.3095,-2.287,-2.2493,-2.2236,-2.1922,-2.1446,-2.1075,-2.0727,-2.0488,-2.033,-2.0124,-2.0348,-2.0364,-2.0465,-2.0499,-2.0364,-2.0296,-2.033,-2.0345,-2.041,-2.0253,-2.0003,-1.9624,-1.9111,-1.8172,-1.736,-1.7221,-1.7093,-1.7126,-1.7175,-1.7117,-1.7101,-1.724,-1.7384,-1.7368,-1.7219,-1.642,-1.5818,-3.9035,-3.8556,-3.914,-3.9005,-3.8527,-3.8452,-3.8078,-3.7524,-3.7464,-3.7404,-3.721,-3.6679,-3.641,-3.6342,-3.5813,-3.5493,-3.5228,-3.5359,-3.5294,-3.5148,-3.5228,-3.5439,-3.5359,-3.5359,-3.5111,-3.4681,-3.4364,-3.408,-3.3737,-3.293,-3.2841,-3.3304,-3.2393,-3.1795,-3.1691,-3.0537,-2.9699,-2.9265,-2.8233,-2.773,-2.7664,-2.7006,-2.6572,-2.6497,-2.5495,-2.4837,-2.4582,-2.4103,-2.3684,-2.361,-2.3595,-2.3595,-2.3595,-2.3595,-2.3595,-2.3595,-2.3595,-2.3595,-2.3595,-2.3595,-2.3653,-2.3782,-2.3797,-2.3855,-2.3997,-2.404,-2.4067,-2.4166,-2.4166,-2.4208,-2.4219,-2.4276,-2.4199,-2.4287,-2.4107,-2.3943,-2.3693,-2.3569,-2.3243,-2.2842,-2.2512,-2.2093,-2.1502,-2.113,-2.0509,-2.0032,-1.995,-1.9717,-1.9645,-1.9752,-1.9823,-1.9859,-1.9894,-1.9859,-1.9894,-1.9909,-1.996,-1.9905,-1.9586,-1.9077,-1.8566,-1.7622,-1.6913,-1.6775,-1.6738,-1.6773,-1.6773,-1.6763,-1.6815,-1.6993,-1.7043,-1.7009,-1.6719,-1.614,-1.57,-3.932,-3.917,-3.9349,-3.932,-3.9155,-3.9155,-3.8751,-3.8182,-3.7998,-3.7744,-3.7396,-3.6912,-3.6526,-3.6261,-3.6082,-3.5689,-3.517,-3.5213,-3.5148,-3.4935,-3.5016,-3.5082,-3.5082,-3.5082,-3.5059,-3.4887,-3.45,-3.4332,-3.4639,-3.3568,-3.3342,-3.3843,-3.3212,-3.2378,-3.1456,-3.1155,-3.0365,-2.9431,-2.8734,-2.8338,-2.8233,-2.7664,-2.7081,-2.6587,-2.6228,-2.5794,-2.5314,-2.4702,-2.4088,-2.364,-2.3595,-2.3595,-2.3595,-2.3595,-2.3595,-2.3595,-2.3595,-2.3595,-2.3595,-2.3595,-2.3595,-2.3638,-2.3653,-2.3681,-2.3736,-2.3909,-2.3921,-2.3891,-2.3921,-2.4024,-2.4051,-2.4067,-2.4067,-2.4166,-2.4024,-2.3918,-2.3958,-2.3679,-2.3254,-2.2989,-2.2637,-2.2209,-2.1659,-2.0985,-2.0383,-1.9988,-1.9626,-1.9398,-1.9347,-1.9273,-1.9406,-1.9603,-1.9639,-1.9493,-1.9472,-1.9472,-1.953,-1.9585,-1.923,-1.8588,-1.793,-1.7053,-1.6555,-1.6274,-1.6382,-1.6448,-1.649,-1.649,-1.6623,-1.6738,-1.6712,-1.6712,-1.685,-1.6564,-1.6104,-3.9828,-3.9798,-3.9457,-3.9352,-3.9409,-3.9337,-3.9026,-3.8713,-3.8597,-3.8184,-3.7619,-3.7039,-3.6581,-3.6058,-3.5748,-3.5385,-3.4898,-3.5016,-3.4949,-3.4735,-3.4668,-3.4802,-3.4868,-3.4935,-3.5001,-3.5052,-3.4617,-3.4661,-3.483,-3.4002,-3.3878,-3.4144,-3.3636,-3.2924,-3.2446,-3.1457,-3.0908,-3.0007,-2.9302,-2.8836,-2.8845,-2.8181,-2.7735,-2.7235,-2.6862,-2.6143,-2.5535,-2.4834,-2.4164,-2.3716,-2.3595,-2.3595,-2.3595,-2.3595,-2.3595,-2.3595,-2.3595,-2.3595,-2.3595,-2.3595,-2.3595,-2.3595,-2.3595,-2.358,-2.3565,-2.3595,-2.3478,-2.3779,-2.3478,-2.3421,-2.3566,-2.3523,-2.348,-2.3523,-2.3377,-2.3436,-2.3994,-2.3623,-2.3301,-2.3046,-2.2797,-2.2245,-2.1569,-2.0801,-2.0229,-1.9686,-1.919,-1.9107,-1.9109,-1.9049,-1.9049,-1.925,-1.9362,-1.9265,-1.9288,-1.9325,-1.9376,-1.9398,-1.8939,-1.8308,-1.7593,-1.6774,-1.6347,-1.6098,-1.6111,-1.6123,-1.6234,-1.6289,-1.6328,-1.6409,-1.6409,-1.6448,-1.6565,-1.6517,-1.6149,-4.0397,-4.0263,-3.946,-3.9192,-3.9337,-3.9192,-3.9075,-3.9017,-3.8972,-3.8603,-3.7927,-3.7222,-3.6663,-3.5967,-3.5472,-3.4919,-3.4698,-3.4802,-3.4683,-3.4549,-3.4481,-3.4534,-3.4787,-3.4787,-3.4802,-3.4868,-3.4868,-3.4839,-3.4736,-3.4316,-3.4324,-3.4471,-3.3691,-3.3534,-3.3279,-3.2237,-3.1397,-3.0852,-2.9967,-2.9418,-2.9252,-2.8705,-2.8305,-2.818,-2.724,-2.6337,-2.5597,-2.4932,-2.431,-2.3731,-2.3626,-2.361,-2.3595,-2.3595,-2.3595,-2.3595,-2.3595,-2.3551,-2.3508,-2.3508,-2.345,-2.3363,-2.3377,-2.348,-2.3348,-2.3083,-2.3009,-2.3333,-2.277,-2.2725,-2.2905,-2.2725,-2.2694,-2.283,-2.2558,-2.2785,-2.329,-2.3348,-2.3172,-2.3216,-2.2875,-2.2104,-2.1327,-2.0626,-2.0118,-1.9498,-1.9045,-1.8932,-1.8898,-1.8898,-1.8912,-1.9003,-1.904,-1.9055,-1.9116,-1.9176,-1.925,-1.9266,-1.8716,-1.8135,-1.75,-1.683,-1.6292,-1.6002,-1.5913,-1.5955,-1.6095,-1.6123,-1.6052,-1.608,-1.6065,-1.612,-1.616,-1.6015,-1.5683,-4.0174,-4.0055,-3.9239,-3.8958,-3.9104,-3.8958,-3.887,-3.887,-3.8738,-3.862,-3.8385,-3.7623,-3.6908,-3.6377,-3.5688,-3.5083,-3.4593,-3.4616,-3.4631,-3.4414,-3.4414,-3.4414,-3.4467,-3.4467,-3.4616,-3.4683,-3.4549,-3.4616,-3.461,-3.4603,-3.4522,-3.4403,-3.4398,-3.4185,-3.355,-3.3363,-3.2706,-3.1762,-3.0896,-3.0395,-2.9879,-2.9304,-2.8866,-2.8773,-2.7944,-2.7086,-2.6223,-2.5869,-2.5295,-2.441,-2.3777,-2.3466,-2.3656,-2.3581,-2.3508,-2.3508,-2.3508,-2.3421,-2.3201,-2.329,-2.3216,-2.2634,-2.274,-2.2843,-2.2775,-2.2477,-2.2271,-2.226,-2.2165,-2.2128,-2.2267,-2.2374,-2.2282,-2.2282,-2.2203,-2.2109,-2.2342,-2.2463,-2.2586,-2.2678,-2.2512,-2.2027,-2.1322,-2.0755,-2.0133,-1.9387,-1.903,-1.8782,-1.8764,-1.8778,-1.8798,-1.8851,-1.8903,-1.8941,-1.8965,-1.9026,-1.9064,-1.9049,-1.8563,-1.8,-1.7383,-1.6822,-1.6318,-1.5936,-1.5668,-1.574,-1.5754,-1.5638,-1.5492,-1.5638,-1.5754,-1.5754,-1.5694,-1.5512,-1.5409,-4.0852,-4.0763,-3.9591,-3.9254,-3.9373,-3.8855,-3.8664,-3.8664,-3.859,-3.8355,-3.8062,-3.7492,-3.6852,-3.602,-3.5627,-3.5078,-3.453,-3.4481,-3.4481,-3.4414,-3.4414,-3.4414,-3.4264,-3.4045,-3.4045,-3.4428,-3.4481,-3.4481,-3.4549,-3.4549,-3.4452,-3.4414,-3.4534,-3.433,-3.3929,-3.3828,-3.3352,-3.2689,-3.1988,-3.1406,-3.0896,-3.0192,-2.9116,-2.8397,-2.7554,-2.6676,-2.6136,-2.5374,-2.4929,-2.4348,-2.3526,-2.3383,-2.3777,-2.3377,-2.3068,-2.3201,-2.2995,-2.2815,-2.2694,-2.268,-2.2634,-2.2128,-2.2267,-2.2324,-2.2287,-2.1996,-2.1894,-2.1777,-2.1663,-2.1444,-2.1444,-2.1492,-2.1589,-2.1684,-2.1602,-2.1554,-2.1698,-2.1888,-2.2077,-2.2217,-2.2123,-2.1787,-2.1324,-2.0773,-2.044,-1.9824,-1.9346,-1.9103,-1.8948,-1.8959,-1.8754,-1.875,-1.8788,-1.8865,-1.8889,-1.8874,-1.8836,-1.8755,-1.8522,-1.7895,-1.7315,-1.6774,-1.6278,-1.5869,-1.5395,-1.518,-1.5181,-1.5045,-1.5074,-1.521,-1.53,-1.53,-1.5271,-1.5242,-1.5183,-4.1404,-4.1228,-3.9794,-3.9346,-3.9247,-3.842,-3.8037,-3.8202,-3.8277,-3.7731,-3.7181,-3.7065,-3.6359,-3.5482,-3.4995,-3.4634,-3.4106,-3.3962,-3.3756,-3.3825,-3.3756,-3.387,-3.3872,-3.3551,-3.3564,-3.422,-3.4131,-3.4142,-3.4113,-3.4182,-3.4113,-3.4182,-3.4182,-3.3919,-3.3873,-3.3705,-3.3168,-3.272,-3.2225,-3.1632,-3.1113,-3.0448,-2.9312,-2.7897,-2.7041,-2.6407,-2.604,-2.5285,-2.4477,-2.449,-2.3278,-2.3392,-2.3645,-2.3087,-2.2235,-2.2694,-2.2346,-2.2114,-2.2095,-2.2095,-2.2081,-2.1941,-2.1988,-2.1908,-2.1779,-2.1554,-2.1492,-2.1444,-2.1264,-2.0835,-2.0712,-2.0848,-2.0898,-2.0934,-2.0997,-2.1082,-2.1264,-2.152,-2.1664,-2.1746,-2.1766,-2.1531,-2.1204,-2.0803,-2.0601,-2.0325,-1.981,-1.9418,-1.9279,-1.9081,-1.8908,-1.8669,-1.8683,-1.84,-1.8358,-1.8539,-1.85,-1.8277,-1.8157,-1.7687,-1.707,-1.6302,-1.5692,-1.5419,-1.5055,-1.4858,-1.4662,-1.4627,-1.4672,-1.4814,-1.489,-1.4859,-1.4904,-1.4966,-1.4949,-3.9986,-3.9444,-3.8558,-3.7948,-3.7479,-3.6531,-3.6596,-3.7092,-3.7141,-3.671,-3.6032,-3.6081,-3.5655,-3.4803,-3.371,-3.3051,-3.2952,-3.2886,-3.2759,-3.28,-3.2828,-3.2994,-3.3294,-3.3115,-3.3246,-3.3606,-3.3615,-3.3466,-3.3437,-3.3367,-3.3452,-3.3395,-3.3381,-3.3157,-3.2932,-3.2877,-3.2639,-3.2083,-3.1682,-3.1115,-3.0287,-2.9683,-2.9031,-2.7713,-2.7112,-2.6727,-2.6344,-2.5837,-2.5548,-2.5426,-2.4075,-2.3514,-2.3279,-2.2428,-2.1999,-2.1927,-2.1819,-2.1595,-2.1492,-2.1732,-2.1541,-2.1215,-2.1313,-2.1313,-2.1082,-2.0885,-2.0983,-2.0934,-2.0885,-2.0699,-2.0699,-2.0699,-2.0699,-2.0749,-2.0799,-2.0785,-2.0885,-2.1033,-2.1264,-2.1375,-2.1369,-2.1397,-2.1103,-2.0877,-2.0671,-2.0488,-2.0106,-1.9763,-1.9598,-1.9378,-1.9193,-1.8875,-1.8599,-1.8139,-1.772,-1.8001,-1.8066,-1.768,-1.749,-1.7299,-1.6595,-1.5605,-1.5044,-1.5148,-1.4775,-1.4341,-1.4214,-1.4176,-1.4259,-1.4406,-1.4401,-1.4415,-1.4511,-1.4592,-1.4592,-3.9005,-3.8658,-3.7675,-3.7107,-3.6789,-3.5978,-3.5855,-3.6146,-3.5963,-3.5576,-3.5336,-3.5247,-3.4766,-3.4077,-3.3977,-3.349,-3.2976,-3.2556,-3.2651,-3.284,-3.2949,-3.303,-3.3163,-3.2961,-3.2664,-3.2741,-3.2751,-3.2927,-3.3087,-3.3059,-3.2866,-3.269,-3.2648,-3.2448,-3.2218,-3.2407,-3.2212,-3.1595,-3.1514,-3.1148,-3.0146,-2.9388,-2.8439,-2.7987,-2.7052,-2.644,-2.6076,-2.5543,-2.5149,-2.4697,-2.3806,-2.3179,-2.2688,-2.2141,-2.1592,-2.1448,-2.1166,-2.0944,-2.0835,-2.1019,-2.0921,-2.0586,-2.0848,-2.0898,-2.0712,-2.0662,-2.0649,-2.0699,-2.0699,-2.0699,-2.0699,-2.0699,-2.0699,-2.0699,-2.0699,-2.0699,-2.0699,-2.0785,-2.0934,-2.1095,-2.1118,-2.1148,-2.1172,-2.0955,-2.0772,-2.0549,-2.0375,-2.0161,-1.9959,-1.9525,-1.9211,-1.8549,-1.8126,-1.78,-1.7366,-1.7435,-1.7504,-1.7146,-1.6909,-1.6752,-1.6368,-1.5545,-1.5314,-1.5337,-1.4818,-1.4078,-1.3815,-1.3762,-1.3881,-1.398,-1.4059,-1.4092,-1.4157,-1.4189,-1.4208,-3.8087,-3.7885,-3.6818,-3.6235,-3.606,-3.537,-3.5142,-3.5211,-3.4928,-3.4673,-3.4499,-3.4445,-3.392,-3.3282,-3.3421,-3.362,-3.3194,-3.2688,-3.2718,-3.2879,-3.2972,-3.3116,-3.2987,-3.2673,-3.2199,-3.2173,-3.233,-3.2528,-3.242,-3.2509,-3.2293,-3.2004,-3.1856,-3.1723,-3.1576,-3.1709,-3.1783,-3.1649,-3.1636,-3.1282,-3.0445,-2.9162,-2.8161,-2.8045,-2.6637,-2.6005,-2.5937,-2.5443,-2.4835,-2.4343,-2.3689,-2.3072,-2.2372,-2.1882,-2.1495,-2.1107,-2.0682,-2.0476,-2.0489,-2.0566,-2.0707,-2.0566,-2.0526,-2.0524,-2.0511,-2.0498,-2.0536,-2.0599,-2.0599,-2.0599,-2.0599,-2.0599,-2.0649,-2.0699,-2.0662,-2.0662,-2.0699,-2.0699,-2.0749,-2.0848,-2.0898,-2.0957,-2.0962,-2.0948,-2.0753,-2.0761,-2.0563,-2.055,-2.0259,-1.9452,-1.8913,-1.8042,-1.7543,-1.7337,-1.7047,-1.6879,-1.6824,-1.6497,-1.6411,-1.6337,-1.6065,-1.5672,-1.555,-1.5414,-1.4689,-1.4016,-1.3712,-1.3476,-1.3628,-1.3715,-1.3775,-1.3728,-1.3669,-1.3702,-1.3735,-3.6809,-3.6284,-3.5726,-3.5186,-3.4612,-3.3849,-3.3882,-3.4454,-3.4406,-3.3959,-3.3283,-3.3459,-3.3109,-3.2452,-3.1937,-3.1818,-3.1818,-3.1758,-3.1877,-3.2201,-3.2133,-3.2133,-3.1843,-3.1618,-3.1896,-3.2041,-3.22,-3.1803,-3.1563,-3.1716,-3.1533,-3.1176,-3.0983,-3.0771,-3.052,-3.0859,-3.0696,-3.0228,-3.0152,-2.9885,-2.9325,-2.8616,-2.8037,-2.7586,-2.715,-2.6766,-2.6327,-2.5824,-2.5272,-2.4745,-2.4192,-2.3389,-2.2535,-2.2284,-2.1907,-2.1605,-2.1352,-2.1243,-2.1011,-2.0909,-2.0909,-2.0847,-2.0643,-2.0322,-2.0283,-2.0283,-2.0334,-2.0233,-2.0283,-2.0334,-2.0448,-2.0385,-2.0448,-2.0511,-2.0562,-2.0612,-2.0649,-2.0536,-2.0599,-2.0649,-2.0699,-2.0749,-2.0759,-2.0736,-2.0736,-2.0809,-2.0805,-2.0744,-2.0306,-1.9303,-1.8297,-1.7362,-1.7021,-1.6824,-1.6539,-1.6423,-1.6306,-1.5957,-1.6013,-1.6013,-1.5867,-1.5684,-1.5526,-1.5245,-1.458,-1.4299,-1.4224,-1.3993,-1.3642,-1.3412,-1.3378,-1.3229,-1.3067,-1.3135,-1.3251,-3.5826,-3.5226,-3.4344,-3.3858,-3.3679,-3.324,-3.3326,-3.3505,-3.3296,-3.281,-3.221,-3.2275,-3.2219,-3.1938,-3.1072,-3.1223,-3.1938,-3.1712,-3.18,-3.2227,-3.229,-3.2303,-3.2361,-3.2026,-3.2051,-3.2114,-3.2089,-3.1663,-3.121,-3.1161,-3.1174,-3.0369,-3.0279,-3.0216,-2.9792,-3.0152,-3.0062,-2.9934,-2.9767,-2.9666,-2.934,-2.8888,-2.8448,-2.8185,-2.762,-2.7218,-2.6854,-2.6389,-2.5824,-2.5285,-2.4745,-2.4117,-2.3389,-2.2962,-2.2523,-2.2058,-2.2272,-2.2052,-2.1458,-2.1331,-2.1348,-2.1221,-2.0947,-2.063,-2.0348,-2.0169,-2.0169,-2.022,-2.022,-2.0233,-2.0296,-2.0233,-2.0283,-2.0334,-2.0398,-2.0398,-2.0448,-2.0385,-2.0385,-2.0435,-2.0485,-2.0498,-2.0498,-2.0448,-2.0498,-2.0686,-2.0468,-2.0124,-1.9507,-1.8536,-1.7505,-1.6523,-1.6398,-1.6343,-1.6064,-1.5812,-1.5913,-1.5715,-1.5828,-1.586,-1.5812,-1.5688,-1.5581,-1.5453,-1.5159,-1.4937,-1.4771,-1.42,-1.3529,-1.3233,-1.2953,-1.2766,-1.2567,-1.2579,-1.2602,-3.5228,-3.4625,-3.3671,-3.3206,-3.3081,-3.3081,-3.3081,-3.3018,-3.2654,-3.2227,-3.1813,-3.1682,-3.165,-3.1725,-3.0984,-3.1273,-3.2679,-3.2102,-3.2365,-3.2855,-3.3056,-3.2905,-3.2604,-3.2328,-3.2177,-3.2215,-3.2202,-3.1775,-3.1399,-3.1203,-3.0863,-2.9842,-2.9934,-2.9869,-2.9792,-2.9856,-2.9856,-2.9779,-2.9779,-2.9767,-2.9666,-2.9365,-2.9089,-2.8712,-2.8172,-2.757,-2.7256,-2.6929,-2.6402,-2.5598,-2.5234,-2.472,-2.4167,-2.3803,-2.3376,-2.3012,-2.3125,-2.2874,-2.2254,-2.1889,-2.1819,-2.1592,-2.1205,-2.0716,-2.0411,-2.022,-2.0067,-2.0067,-2.0067,-2.0067,-2.0131,-2.0131,-2.0169,-2.0182,-2.0182,-2.0182,-2.0195,-2.0182,-2.0182,-2.0283,-2.0283,-2.0233,-2.0233,-2.0118,-2.022,-2.0536,-2.0243,-1.9623,-1.8808,-1.7915,-1.7097,-1.6215,-1.6268,-1.6207,-1.5739,-1.5482,-1.5471,-1.5574,-1.57,-1.5697,-1.5706,-1.5703,-1.5672,-1.5603,-1.5434,-1.503,-1.4606,-1.397,-1.341,-1.3095,-1.2794,-1.2353,-1.2115,-1.209,-1.197,-3.5228,-3.4675,-3.4098,-3.3545,-3.3081,-3.3081,-3.3081,-3.3081,-3.3018,-3.2905,-3.2579,-3.1913,-3.1449,-3.1436,-3.1411,-3.1562,-3.234,-3.2754,-3.2905,-3.2993,-3.3043,-3.283,-3.2566,-3.2353,-3.224,-3.2277,-3.224,-3.2152,-3.1976,-3.1537,-3.0859,-2.9942,-2.988,-2.9817,-2.9779,-2.9779,-2.9779,-2.9779,-2.9779,-2.9779,-2.9779,-2.9641,-2.9453,-2.9063,-2.8787,-2.836,-2.7381,-2.7205,-2.6804,-2.585,-2.5548,-2.5285,-2.4808,-2.4443,-2.4017,-2.3766,-2.3565,-2.3314,-2.2836,-2.2435,-2.2259,-2.1958,-2.1511,-2.0936,-2.0721,-2.0164,-1.995,-1.9976,-2.0065,-1.9977,-2.0016,-1.9926,-1.9965,-2.0016,-2.0016,-1.9926,-1.9978,-1.9978,-2.0029,-2.0067,-1.9965,-1.9747,-1.9695,-1.9579,-1.9798,-2.0105,-1.9748,-1.9189,-1.8495,-1.7629,-1.6896,-1.6315,-1.6407,-1.6148,-1.551,-1.5464,-1.5846,-1.587,-1.5916,-1.5786,-1.5666,-1.5664,-1.5468,-1.5466,-1.5245,-1.4827,-1.4344,-1.3693,-1.3163,-1.2954,-1.2588,-1.2047,-1.1608,-1.1479,-1.1319,-3.5416,-3.519,-3.4638,-3.3897,-3.3081,-3.3081,-3.3081,-3.3081,-3.3081,-3.2855,-3.2516,-3.1775,-3.1587,-3.1725,-3.1562,-3.1901,-3.2604,-3.2528,-3.2805,-3.3006,-3.3031,-3.293,-3.2667,-3.2466,-3.2378,-3.2566,-3.2428,-3.2202,-3.2139,-3.1938,-3.1524,-3.0846,-3.0193,-2.9842,-2.9779,-2.9804,-2.9779,-2.9779,-2.9779,-2.9779,-2.9779,-2.9779,-2.9679,-2.9503,-2.9026,-2.8787,-2.826,-2.7595,-2.7105,-2.6578,-2.5988,-2.5611,-2.5259,-2.4808,-2.4317,-2.4054,-2.3754,-2.3403,-2.3165,-2.284,-2.2698,-2.2297,-2.1895,-2.1518,-2.1204,-2.0903,-2.0627,-2.0489,-2.0313,-2.0328,-1.9925,-1.9875,-1.985,-1.9901,-1.9862,-1.9759,-1.9668,-1.9668,-1.9552,-1.9488,-1.9214,-1.8951,-1.8939,-1.8939,-1.9319,-1.9579,-1.9153,-1.8641,-1.7958,-1.7498,-1.688,-1.646,-1.6487,-1.6501,-1.5971,-1.6097,-1.6353,-1.624,-1.6125,-1.5986,-1.5777,-1.512,-1.4994,-1.5051,-1.4949,-1.4507,-1.3937,-1.3368,-1.2913,-1.2608,-1.2156,-1.163,-1.125,-1.095,-1.0736,-3.5542,-3.5361,-3.4776,-3.4035,-3.3357,-3.3319,-3.3232,-3.3093,-3.3081,-3.288,-3.2428,-3.1926,-3.1825,-3.2014,-3.1888,-3.1976,-3.2566,-3.2641,-3.2792,-3.2955,-3.3081,-3.3081,-3.293,-3.2792,-3.2704,-3.2918,-3.2754,-3.2503,-3.2528,-3.2315,-3.1951,-3.1411,-3.0758,-3.0357,-3.003,-2.9854,-2.9792,-2.9779,-2.9779,-2.9779,-2.9779,-2.9779,-2.9779,-2.9729,-2.9402,-2.9089,-2.885,-2.8373,-2.7846,-2.7218,-2.6521,-2.6045,-2.5619,-2.5144,-2.4503,-2.4091,-2.3816,-2.3453,-2.3165,-2.3027,-2.2962,-2.2661,-2.2347,-2.2058,-2.1845,-2.1606,-2.1154,-2.0991,-2.0957,-2.0727,-2.0263,-2.0275,-2.0188,-2.0253,-1.9913,-1.9759,-1.9356,-1.9198,-1.9028,-1.8857,-1.8525,-1.8135,-1.8298,-1.8352,-1.8405,-1.8738,-1.862,-1.807,-1.7413,-1.7092,-1.7013,-1.6695,-1.6541,-1.6608,-1.6573,-1.6727,-1.6811,-1.6558,-1.6446,-1.6261,-1.5959,-1.5218,-1.4638,-1.4686,-1.4536,-1.4107,-1.359,-1.3022,-1.2569,-1.2172,-1.1706,-1.1215,-1.1182,-1.0872,-1.0468,-3.5554,-3.5311,-3.4412,-3.3947,-3.3922,-3.3872,-3.3558,-3.3181,-3.3093,-3.3043,-3.2905,-3.2416,-3.2215,-3.2277,-3.2227,-3.2365,-3.2503,-3.283,-3.3031,-3.3056,-3.3081,-3.3081,-3.3068,-3.3006,-3.2943,-3.3043,-3.2955,-3.2905,-3.298,-3.2579,-3.2277,-3.2077,-3.1549,-3.1009,-3.0595,-3.0043,-2.9804,-2.9804,-2.9829,-2.9779,-2.9702,-2.9702,-2.9702,-2.9664,-2.9614,-2.9262,-2.9075,-2.9038,-2.8462,-2.7551,-2.7076,-2.6582,-2.6139,-2.5903,-2.5264,-2.439,-2.4526,-2.4054,-2.3095,-2.308,-2.3015,-2.2915,-2.2602,-2.2364,-2.2221,-2.1933,-2.1619,-2.1531,-2.1455,-2.1443,-2.1217,-2.0966,-2.0686,-2.0366,-2.0002,-1.9426,-1.9036,-1.8602,-1.8363,-1.8147,-1.7699,-1.7368,-1.76,-1.771,-1.7611,-1.7722,-1.7843,-1.7542,-1.6916,-1.6861,-1.6968,-1.6944,-1.6763,-1.677,-1.6886,-1.7174,-1.7243,-1.6979,-1.666,-1.6412,-1.5897,-1.5094,-1.4692,-1.4504,-1.3884,-1.3304,-1.3025,-1.2745,-1.243,-1.2088,-1.1345,-1.0951,-1.0924,-1.0676,-1.0145,-3.5755,-3.5981,-3.4914,-3.4663,-3.4801,-3.3784,-3.3432,-3.3533,-3.3269,-3.3081,-3.3056,-3.283,-3.278,-3.278,-3.2754,-3.2754,-3.2817,-3.2867,-3.3081,-3.3081,-3.3081,-3.3081,-3.3081,-3.3081,-3.3081,-3.3081,-3.3081,-3.3081,-3.3056,-3.2792,-3.2792,-3.2654,-3.2127,-3.165,-3.1009,-3.0394,-2.9917,-3.0193,-3.0043,-2.9702,-2.9599,-2.9521,-2.9521,-2.9521,-2.9456,-2.9332,-2.9172,-2.9222,-2.8687,-2.794,-2.7457,-2.69,-2.6433,-2.6079,-2.5351,-2.4743,-2.469,-2.4097,-2.3343,-2.3084,-2.2921,-2.2907,-2.2855,-2.2693,-2.2752,-2.2605,-2.2318,-2.2076,-2.1918,-2.1838,-2.1481,-2.0908,-2.0523,-2.0314,-1.9825,-1.896,-1.8362,-1.7923,-1.7589,-1.7379,-1.7045,-1.6842,-1.6909,-1.7067,-1.7067,-1.7078,-1.72,-1.7357,-1.6972,-1.7038,-1.7115,-1.7104,-1.706,-1.7059,-1.7157,-1.7274,-1.7286,-1.6968,-1.6629,-1.6273,-1.5655,-1.4911,-1.4464,-1.4073,-1.3263,-1.2501,-1.255,-1.254,-1.2423,-1.2054,-1.1299,-1.0918,-1.0961,-1.0406,-0.9582,-3.5868,-3.6194,-3.4977,-3.5002,-3.5516,-3.4261,-3.3872,-3.406,-3.3608,-3.3357,-3.3332,-3.3181,-3.3068,-3.3068,-3.3081,-3.3081,-3.3081,-3.3081,-3.3081,-3.3081,-3.3081,-3.3081,-3.3081,-3.3081,-3.3081,-3.3081,-3.3081,-3.3081,-3.3081,-3.3081,-3.3043,-3.2794,-3.2431,-3.2034,-3.1447,-3.0929,-3.0256,-3.0382,-3.0118,-2.9702,-2.9509,-2.9419,-2.9341,-2.9275,-2.9275,-2.9172,-2.9164,-2.8941,-2.8556,-2.8172,-2.7705,-2.7114,-2.6539,-2.599,-2.5318,-2.4896,-2.4438,-2.3986,-2.3735,-2.2929,-2.286,-2.317,-2.2997,-2.286,-2.2909,-2.2737,-2.2673,-2.2474,-2.229,-2.1975,-2.1575,-2.0913,-2.0323,-2.0064,-1.9425,-1.855,-1.7937,-1.7505,-1.7088,-1.6874,-1.674,-1.6477,-1.6374,-1.6363,-1.6467,-1.6534,-1.6602,-1.6761,-1.692,-1.6976,-1.7022,-1.7067,-1.7056,-1.7014,-1.7092,-1.7291,-1.7213,-1.6989,-1.6531,-1.6069,-1.5401,-1.4651,-1.4172,-1.3609,-1.2826,-1.2292,-1.2363,-1.2295,-1.2187,-1.1877,-1.1249,-1.1038,-1.1041,-1.0255,-0.9312,-3.5868,-3.6081,-3.4613,-3.4926,-3.5994,-3.5127,-3.4713,-3.4638,-3.4073,-3.3822,-3.3847,-3.3282,-3.3081,-3.3081,-3.3081,-3.3081,-3.3081,-3.3081,-3.3081,-3.3081,-3.3081,-3.3081,-3.3081,-3.3081,-3.3081,-3.3081,-3.3081,-3.3081,-3.3081,-3.3081,-3.2982,-3.271,-3.2361,-3.2226,-3.2,-3.1377,-3.071,-3.0603,-3.0124,-2.9708,-2.9312,-2.9263,-2.9197,-2.9118,-2.9118,-2.9131,-2.9003,-2.8929,-2.8619,-2.8374,-2.8093,-2.7383,-2.6809,-2.6432,-2.5586,-2.4828,-2.4323,-2.4135,-2.3952,-2.3114,-2.281,-2.3047,-2.271,-2.269,-2.2543,-2.2469,-2.2384,-2.2286,-2.2091,-2.1956,-2.1735,-2.085,-2.0048,-1.9576,-1.9007,-1.8316,-1.7675,-1.7201,-1.6827,-1.6597,-1.6452,-1.6269,-1.6259,-1.6192,-1.6134,-1.6192,-1.6316,-1.6374,-1.6534,-1.6602,-1.6648,-1.6751,-1.6797,-1.692,-1.6976,-1.7032,-1.6797,-1.6503,-1.6177,-1.5705,-1.5054,-1.4389,-1.3781,-1.3128,-1.242,-1.2072,-1.2076,-1.2067,-1.1968,-1.1558,-1.1037,-1.1042,-1.1013,-1.0136,-0.9306,-3.5868,-3.6245,-3.5429,-3.5567,-3.6182,-3.5604,-3.5102,-3.4638,-3.3759,-3.3495,-3.3872,-3.3319,-3.3093,-3.3081,-3.3081,-3.3081,-3.3081,-3.3081,-3.3081,-3.3081,-3.3081,-3.3081,-3.3081,-3.3081,-3.3081,-3.3081,-3.3081,-3.3081,-3.3081,-3.3081,-3.2909,-3.2661,-3.2413,-3.2438,-3.2191,-3.1685,-3.1249,-3.0798,-3.0233,-2.9732,-2.9253,-2.9101,-2.8998,-2.8895,-2.8816,-2.8816,-2.8882,-2.8803,-2.8645,-2.844,-2.8195,-2.7548,-2.689,-2.6407,-2.5709,-2.5168,-2.4719,-2.4357,-2.4194,-2.325,-2.2622,-2.2596,-2.1939,-2.1661,-2.1717,-2.1874,-2.1812,-2.1702,-2.1565,-2.1365,-2.1037,-2.0336,-1.9736,-1.9242,-1.8719,-1.8071,-1.7462,-1.7172,-1.6734,-1.6478,-1.6321,-1.6097,-1.6077,-1.6019,-1.6019,-1.6029,-1.6087,-1.6144,-1.6202,-1.6316,-1.6374,-1.6467,-1.6534,-1.6648,-1.6534,-1.6467,-1.6239,-1.5999,-1.568,-1.5284,-1.4658,-1.3996,-1.3376,-1.2762,-1.2151,-1.1858,-1.1778,-1.1719,-1.1619,-1.1259,-1.0831,-1.0934,-1.0807,-0.9905,-0.9239,-3.573,-3.5943,-3.5454,-3.5416,-3.5629,-3.5353,-3.5115,-3.4826,-3.3884,-3.3621,-3.3809,-3.3307,-3.3081,-3.3081,-3.3081,-3.3081,-3.3081,-3.3081,-3.3081,-3.3081,-3.3081,-3.3081,-3.3081,-3.3081,-3.3081,-3.3081,-3.3081,-3.3081,-3.2995,-3.2822,-3.2649,-3.2463,-3.2463,-3.2388,-3.2166,-3.1797,-3.1418,-3.106,-3.0532,-2.9829,-2.9382,-2.9059,-2.893,-2.8669,-2.851,-2.8578,-2.8645,-2.8645,-2.8578,-2.8419,-2.8089,-2.761,-2.6871,-2.6327,-2.5406,-2.4814,-2.4531,-2.412,-2.3733,-2.2992,-2.2579,-2.2029,-2.1086,-2.0672,-2.0809,-2.0938,-2.0952,-2.0933,-2.073,-2.0526,-2.0204,-1.9814,-1.942,-1.9069,-1.844,-1.782,-1.7416,-1.7119,-1.6798,-1.6487,-1.6227,-1.5946,-1.5856,-1.5856,-1.5856,-1.5914,-1.5972,-1.5972,-1.6077,-1.6134,-1.6192,-1.6296,-1.6306,-1.6374,-1.6192,-1.5894,-1.5594,-1.5303,-1.4942,-1.4551,-1.4082,-1.3535,-1.2791,-1.2316,-1.1901,-1.1743,-1.1578,-1.1368,-1.1209,-1.0804,-1.0395,-1.0167,-0.9938,-0.9478,-0.8978,-3.5441,-3.5454,-3.4926,-3.4788,-3.4726,-3.47,-3.4901,-3.5265,-3.4173,-3.3897,-3.3859,-3.3345,-3.3081,-3.3081,-3.3081,-3.3081,-3.3081,-3.3081,-3.3081,-3.3081,-3.3081,-3.3081,-3.3081,-3.3081,-3.3081,-3.3068,-3.2982,-3.2896,-3.2723,-3.2562,-3.2388,-3.2038,-3.2038,-3.2038,-3.2001,-3.1777,-3.1549,-3.1272,-3.0809,-3.026,-2.9667,-2.9391,-2.9246,-2.8674,-2.851,-2.851,-2.8339,-2.8339,-2.8431,-2.8099,-2.7683,-2.7197,-2.6558,-2.5733,-2.4717,-2.4265,-2.3986,-2.3738,-2.3274,-2.2622,-2.2357,-2.1573,-2.0513,-2.0134,-2.0222,-2.0339,-2.0325,-2.0249,-2.0118,-1.9857,-1.9562,-1.911,-1.8654,-1.8489,-1.8185,-1.7816,-1.7649,-1.7273,-1.6951,-1.6604,-1.6207,-1.595,-1.5899,-1.5851,-1.5672,-1.5788,-1.5788,-1.5788,-1.5904,-1.6009,-1.6009,-1.6056,-1.6134,-1.6019,-1.5594,-1.5294,-1.4942,-1.4597,-1.4181,-1.3881,-1.3408,-1.2845,-1.2184,-1.1946,-1.1809,-1.1557,-1.1326,-1.1057,-1.0694,-1.0293,-0.9829,-0.9309,-0.8975,-0.8781,-0.874,-3.4537,-3.4901,-3.4776,-3.4726,-3.4663,-3.4261,-3.4186,-3.4223,-3.3583,-3.3759,-3.4223,-3.3558,-3.3081,-3.3081,-3.3081,-3.3081,-3.3081,-3.3081,-3.3081,-3.3081,-3.3081,-3.2995,-3.2995,-3.2909,-3.2896,-3.2982,-3.2896,-3.2723,-3.2636,-3.2475,-3.23,-3.2038,-3.195,-3.195,-3.1761,-3.1661,-3.1517,-3.1499,-3.0735,-3.017,-2.9448,-2.8931,-2.8582,-2.851,-2.851,-2.8099,-2.7926,-2.7592,-2.751,-2.7348,-2.6577,-2.6062,-2.5605,-2.4526,-2.3952,-2.3709,-2.34,-2.3119,-2.2765,-2.2286,-2.1977,-2.1499,-2.0696,-2.0143,-1.9912,-1.9825,-1.9766,-1.9594,-1.9448,-1.9235,-1.8911,-1.8462,-1.8066,-1.8017,-1.7968,-1.7929,-1.7822,-1.7497,-1.715,-1.6747,-1.6314,-1.6077,-1.595,-1.5782,-1.5615,-1.5478,-1.5478,-1.5536,-1.5672,-1.5788,-1.572,-1.5778,-1.5904,-1.573,-1.5177,-1.4697,-1.4291,-1.3812,-1.339,-1.3033,-1.2773,-1.2364,-1.1958,-1.1918,-1.178,-1.1292,-1.0863,-1.0568,-1.021,-0.9658,-0.9179,-0.8586,-0.8357,-0.8132,-0.8287,-3.4073,-3.4336,-3.4361,-3.4349,-3.4299,-3.4022,-3.3909,-3.3847,-3.3571,-3.3771,-3.4186,-3.352,-3.3081,-3.3081,-3.3081,-3.3081,-3.3081,-3.3081,-3.2995,-3.2995,-3.2909,-3.2822,-3.2736,-3.2649,-3.2649,-3.2723,-3.255,-3.2376,-3.2376,-3.2201,-3.195,-3.1849,-3.1849,-3.1849,-3.1661,-3.1383,-3.1282,-3.1625,-3.0581,-2.9612,-2.9035,-2.8797,-2.8623,-2.8643,-2.8339,-2.7926,-2.751,-2.7174,-2.6928,-2.667,-2.6069,-2.5236,-2.4766,-2.403,-2.3519,-2.3147,-2.2817,-2.2497,-2.2143,-2.1842,-2.1603,-2.111,-2.0851,-2.0262,-2.0193,-2.0099,-1.9485,-1.9334,-1.9052,-1.8823,-1.8532,-1.8134,-1.8076,-1.7978,-1.7959,-1.7949,-1.7812,-1.7559,-1.735,-1.7135,-1.6635,-1.6096,-1.5939,-1.5684,-1.5537,-1.543,-1.542,-1.5449,-1.5576,-1.5371,-1.5371,-1.5303,-1.5303,-1.4883,-1.4094,-1.3795,-1.3631,-1.3147,-1.2658,-1.2554,-1.2398,-1.207,-1.1768,-1.1677,-1.1325,-1.0673,-1.0249,-0.9923,-0.9365,-0.8772,-0.8332,-0.7899,-0.7727,-0.7611,-0.7644,-3.3834,-3.3897,-3.3834,-3.3847,-3.3884,-3.3809,-3.3822,-3.3872,-3.3809,-3.3809,-3.3872,-3.3357,-3.3119,-3.3081,-3.3081,-3.3081,-3.3081,-3.3081,-3.2995,-3.281,-3.2711,-3.2636,-3.2562,-3.2388,-3.2388,-3.23,-3.2201,-3.2113,-3.2038,-3.1849,-3.1761,-3.1749,-3.1661,-3.1661,-3.1294,-3.0824,-3.0531,-3.0376,-2.96,-2.8729,-2.8607,-2.8809,-2.8432,-2.8286,-2.8087,-2.7672,-2.7092,-2.667,-2.6257,-2.5997,-2.5484,-2.4798,-2.4053,-2.3483,-2.3012,-2.2582,-2.2234,-2.1713,-2.1141,-2.1318,-2.1088,-2.0847,-2.0644,-2.0527,-2.043,-2.0117,-1.9521,-1.916,-1.8896,-1.8574,-1.8301,-1.8115,-1.8125,-1.8018,-1.8018,-1.8008,-1.7842,-1.7695,-1.7568,-1.7432,-1.6943,-1.6409,-1.6103,-1.583,-1.5654,-1.5586,-1.5449,-1.5439,-1.5381,-1.4852,-1.4588,-1.446,-1.4273,-1.3726,-1.3122,-1.3009,-1.3017,-1.2605,-1.2212,-1.2163,-1.2059,-1.1709,-1.1468,-1.1288,-1.088,-1.0257,-0.9621,-0.913,-0.8575,-0.8063,-0.7707,-0.743,-0.73,-0.7176,-0.6995,-3.3495,-3.3872,-3.342,-3.347,-3.3784,-3.3445,-3.3483,-3.3771,-3.342,-3.3458,-3.3646,-3.3357,-3.3081,-3.3081,-3.3081,-3.3081,-3.3081,-3.3081,-3.2896,-3.2723,-3.2624,-3.255,-3.2388,-3.2125,-3.2125,-3.2038,-3.2025,-3.2038,-3.1849,-3.1749,-3.1661,-3.1572,-3.1649,-3.1282,-3.0441,-3.0068,-2.9852,-2.9398,-2.85,-2.7525,-2.7509,-2.7459,-2.705,-2.6682,-2.6329,-2.5746,-2.5253,-2.4999,-2.4925,-2.484,-2.4659,-2.4159,-2.3599,-2.3103,-2.2655,-2.2269,-2.1859,-2.1352,-2.1006,-2.0896,-2.0722,-2.0722,-2.0576,-2.0566,-2.0508,-2.0498,-2.0029,-1.9727,-1.9414,-1.9004,-1.873,-1.8574,-1.8516,-1.8193,-1.8057,-1.8027,-1.793,-1.79,-1.7852,-1.7676,-1.7402,-1.708,-1.6998,-1.665,-1.6286,-1.6036,-1.5449,-1.5482,-1.5311,-1.4671,-1.3967,-1.3674,-1.3425,-1.3061,-1.2634,-1.2573,-1.2466,-1.205,-1.1864,-1.1889,-1.1768,-1.1488,-1.1233,-1.1035,-1.0565,-1.0002,-0.9314,-0.8554,-0.8132,-0.7741,-0.7337,-0.7064,-0.6961,-0.6764,-0.6546]},{"header":{"parameterUnit":"m.s-1","parameterCategory":1,"la1":31.0,"la2":29.5877,"lo1":-88.7671,"lo2":-86.6584,"dy":0.0162,"dx":0.0185,"nx":115,"ny":88,"refTime":"2023-04-16T18:00:00:Z","depth":0,"parameterNumber":3,"parameterNumberName":"V-component_of_WINDS"},"data":[0.0,0.0,0.0,0.0,0.0,0.0,0.0,0.0,0.0,0.0,0.0,0.0,0.0,0.0,0.0,0.0,0.0,0.0,0.0,0.0,0.0,0.0,0.0,0.0,0.0,0.0,0.0,0.0,0.0,0.0,0.0,0.0,0.0,0.0,0.0,0.0,0.0,0.0,0.0,0.0,0.0,0.0,0.0,0.0,0.0,0.0,0.0,0.0,0.0,0.0,0.0,0.0,0.0,0.0,0.0,0.0,0.0,0.0,0.0,0.0,0.0,0.0,0.0,0.0,0.0,0.0,0.0,0.0,0.0,0.0,0.0,0.0,0.0,0.0,0.0,0.0,0.0,0.0,0.0,0.0,0.0,0.0,0.0,0.0,0.0,0.0,0.0,0.0,0.0,0.0,0.0,0.0,0.0,0.0,0.0,0.0,0.0,0.0,0.0,0.0,0.0,0.0,0.0,0.0,0.0,0.0,0.0,0.0,0.0,0.0,0.0,0.0,0.0,0.0,0.0,0.0,0.0,0.0,0.0,0.0,0.0,0.0,0.0,0.0,0.0,0.0,0.0,0.0,0.0,0.0,0.0,0.0,0.0,0.0,0.0,0.0,0.0,0.0,0.0,0.0,0.0,0.0,0.0,0.0,0.0,0.0,0.0,0.0,0.0,0.0,0.0,0.0,0.0,0.0,0.0,0.0,0.0,0.0,0.0,0.0,0.0,0.0,0.0,0.0,0.0,0.0,0.0,0.0,0.0,0.0,0.0,0.0,0.0,0.0,0.0,0.0,0.0,0.0,0.0,0.0,0.0,0.0,0.0,0.0,0.0,0.0,0.0,0.0,0.0,0.0,0.0,0.0,0.0,0.0,0.0,0.0,0.0,0.0,0.0,0.0,0.0,0.0,0.0,0.0,0.0,0.0,0.0,0.0,0.0,0.0,0.0,0.0,0.0,0.0,0.0,0.0,0.0,0.0,0.0,0.0,0.0,0.0,0.0,0.0,0.0,0.0,0.0,0.0,0.0,0.0,0.0,0.0,0.0,0.0,0.0,0.0,0.0,0.0,0.0,0.0,0.0,0.0,0.0,0.0,0.0,0.0,0.0,0.0,0.0,0.0,0.0,0.0,0.0,0.0,0.0,0.0,0.0,0.0,0.0,0.0,0.0,0.0,0.0,0.0,0.0,0.0,0.0,0.0,0.0,0.0,0.0,0.0,0.0,0.0,0.0,0.0,0.0,0.0,0.0,0.0,0.0,0.0,0.0,0.0,0.0,0.0,0.0,0.0,0.0,0.0,0.0,0.0,0.0,0.0,0.0,0.0,0.0,0.0,0.0,0.0,0.0,0.0,0.0,0.0,0.0,0.0,0.0,0.0,0.0,0.0,0.0,0.0,0.0,0.0,0.0,0.0,0.0,0.0,0.0,0.0,0.0,0.0,0.0,0.0,0.0,0.0,0.0,0.0,0.0,0.0,0.0,0.0,0.0,0.0,0.0,0.0,0.0,0.0,0.0,0.0,0.0,0.0,0.0,0.0,0.0,0.0,0.0,0.0,0.0,0.0,0.0,0.0,0.0,0.0,0.0,0.0,0.0,0.0,0.0,0.0,0.0,0.0,0.0,0.0,0.0,0.0,0.0,0.0,0.0,0.0,0.0,0.0,0.0,0.0,0.0,0.0,0.0,0.0,0.0,0.0,0.0,0.0,0.0,0.0,0.0,0.0,0.0,0.0,0.0,0.0,0.0,0.0,0.0,0.0,0.0,0.0,0.0,0.0,0.0,0.0,0.0,0.0,0.0,0.0,0.0,0.0,0.0,0.0,0.0,0.0,0.0,0.0,0.0,0.0,0.0,0.0,0.0,0.0,0.0,0.0,0.0,0.0,0.0,0.0,0.0,0.0,0.0,0.0,0.0,0.0,0.0,0.0,0.0,0.0,0.0,0.0,0.0,0.0,0.0,0.0,0.0,0.0,0.0,0.0,0.0,0.0,0.0,0.0,0.0,0.0,0.0,0.0,0.0,0.0,0.0,0.0,0.0,0.0,0.0,0.0,0.0,0.0,0.0,0.0,0.0,0.0,0.0,0.0,0.0,0.0,0.0,0.0,0.0,0.0,0.0,0.0,0.0,0.0,0.0,0.0,0.0,0.0,0.0,0.0,0.0,0.0,0.0,0.0,0.0,0.0,0.0,0.0,0.0,0.0,0.0,0.0,0.0,0.0,0.0,0.0,0.0,0.0,0.0,0.0,0.0,0.0,0.0,0.0,0.0,0.0,0.0,0.0,0.0,0.0,0.0,0.0,0.0,0.0,0.0,0.0,0.0,0.0,0.0,0.0,0.0,0.0,0.0,0.0,0.0,0.0,0.0,0.0,0.0,0.0,0.0,0.0,0.0,0.0,0.0,0.0,0.0,0.0,0.0,0.0,0.0,0.0,0.0,0.0,0.0,0.0,0.0,0.0,0.0,0.0,0.0,0.0,0.0,0.0,0.0,0.0,0.0,0.0,0.0,0.0,0.0,0.0,0.0,0.0,0.0,0.0,0.0,0.0,0.0,0.0,0.0,0.0,0.0,0.0,0.0,0.0,0.0,0.0,0.0,0.0,0.0,0.0,0.0,0.0,0.0,0.0,0.0,0.0,0.0,0.0,0.0,0.0,0.0,0.0,0.0,0.0,0.0,0.0,0.0,0.0,0.0,0.0,0.0,0.0,0.0,0.0,0.0,0.0,0.0,0.0,0.0,0.0,0.0,0.0,0.0,0.0,0.0,0.0,0.0,0.0,0.0,0.0,0.0,0.0,0.0,0.0,0.0,0.0,0.0,0.0,0.0,0.0,0.0,0.0,0.0,0.0,0.0,0.0,0.0,0.0,0.0,0.0,0.0,0.0,0.0,0.0,0.0,0.0,0.0,0.0,0.0,0.0,0.0,0.0,0.0,0.0,0.0,0.0,0.0,0.0,0.0,0.0,0.0,0.0,0.0,0.0,0.0,0.0,0.0,0.0,0.0,0.0,0.0,0.0,0.0,0.0,0.0,0.0,0.0,0.0,0.0,0.0,0.0,0.0,0.0,0.0,0.0,0.0,0.0,0.0,0.0,0.0,0.0,0.0,0.0,0.0,0.0,0.0,0.0,0.0,0.0,0.0,0.0,0.0,0.0,0.0,0.0,0.0,0.0,0.0,0.0,0.0,0.0,0.0,0.0,0.0,0.0,0.0,0.0,0.0,0.0,0.0,0.0,0.0,0.0,0.0,0.0,0.0,0.0,0.0,0.0,0.0,0.0,0.0,0.0,0.0,0.0,0.0,0.0,0.0,0.0,0.0,0.0,0.0,0.0,0.0,0.0,0.0,0.0,0.0,0.0,0.0,0.0,0.0,0.0,0.0,0.0,0.0,0.0,0.0,0.0,0.0,0.0,0.0,0.0,0.0,0.0,0.0,0.0,0.0,0.0,0.0,0.0,0.0,0.0,0.0,0.0,0.0,0.0,0.0,0.0,0.0,0.0,0.0,0.0,0.0,0.0,0.0,0.0,0.0,0.0,0.0,0.0,0.0,0.0,0.0,0.0,0.0,0.0,0.0,0.0,0.0,0.0,0.0,0.0,0.0,0.0,0.0,0.0,0.0,0.0,0.0,0.0,0.0,0.0,0.0,0.0,0.0,0.0,0.0,0.0,0.0,0.0,0.0,0.0,0.0,0.0,0.0,0.0,0.0,0.0,0.0,0.0,0.0,0.0,0.0,0.0,0.0,0.0,0.0,0.0,0.0,0.0,0.0,0.0,0.0,0.0,0.0,0.0,0.0,0.0,0.0,0.0,0.0,0.0,0.0,0.0,0.0,0.0,0.0,0.0,0.0,0.0,0.0,0.0,0.0,0.0,0.0,0.0,0.0,0.0,0.0,0.0,0.0,0.0,0.0,0.0,0.0,0.0,0.0,0.0,0.0,0.0,0.0,0.0,0.0,0.0,0.0,0.0,0.0,0.0,0.0,0.0,0.0,0.0,0.0,0.0,0.0,0.0,0.0,0.0,0.0,0.0,0.0,0.0,0.0,0.0,0.0,0.0,0.0,0.0,0.0,0.0,0.0,0.0,0.0,0.0,0.0,0.0,0.0,0.0,0.0,0.0,0.0,0.0,0.0,0.0,0.0,0.0,0.0,0.0,0.0,0.0,0.0,0.0,0.0,0.0,0.0,0.0,0.0,0.0,0.0,0.0,0.0,0.0,0.0,0.0,0.0,0.0,0.0,0.0,0.0,0.0,0.0,0.0,0.0,0.0,0.0,0.0,0.0,0.0,0.0,0.3429,0.0,0.0,0.0,0.0,0.0,0.0,0.0,0.0,0.0,0.0,0.0,0.0,0.0,0.0,0.0,0.0,0.0,0.0,0.0,0.0,0.0,0.0,0.0,0.0,0.0,0.0,0.0,0.0,0.0,0.0,0.0,0.0,0.0,0.0,0.0,0.0,0.0,0.0,0.0,0.0,0.0,0.0,0.0,0.0,0.0,0.0,0.0,0.0,0.0,0.0,0.0,0.0,0.0,0.0,0.0,0.0,0.0,0.0,0.0,0.0,0.0,0.0,0.0,0.0,0.0,0.0,0.0,0.0,0.0,0.0,0.0,0.0,0.0,0.0,0.0,0.0,0.0,0.0,0.0,0.0,0.0,0.0,0.0,0.0,0.0,0.0,0.0,0.0,0.0,0.0,0.0,0.0,0.0,0.0,0.0,0.0,0.0,0.0,0.0,0.0,0.0,0.0,0.0,0.0,0.0,0.0,0.0,0.0,0.0,0.0,0.3146,0.3245,0.334,0.3434,0.3536,0.0,0.0,0.0,0.0,0.0,0.0,0.0,0.0,0.0,0.0,0.0,0.0,0.0,0.0,0.0,0.0,0.0,0.0,0.0,0.0,0.0,0.0,0.0,0.0,0.0,0.0,0.0,0.0,0.0,0.0,0.0,0.0,0.0,0.0,0.0,0.0,0.0,0.0,0.0,0.0,0.0,0.0,0.0,0.0,0.0,0.0,0.0,0.0,0.0,0.0,0.0,0.0,0.0,0.0,0.0,0.0,0.0,0.0,0.0,0.0,0.0,0.0,0.0,0.0,0.0,0.0,0.0,0.0,0.0,0.0,0.0,0.0,0.0,0.0,0.0,0.0,0.0,0.0,0.0,0.0,0.0,0.0,0.0,0.0,0.0,0.0,0.0,0.0,0.0,0.0,0.0,0.0,0.0,0.0,0.0,0.0,0.0,0.0,0.0,0.0,0.0,0.0,0.0,0.0,0.0,0.0,0.0,0.0,0.0,0.0,0.0,0.0,0.3566,0.3632,0.3699,0.0,0.0,0.0,0.0,0.0,0.0,0.0,0.0,0.0,0.0,0.0,0.0,0.0,0.0,0.0,0.0,0.0,0.0,0.0,0.0,0.0,0.0,0.0,0.0,0.0,0.0,0.0,0.0,0.0,0.0,0.0,0.0,0.0,0.0,0.0,0.0,0.0,0.0,0.0,0.0,0.0,0.0,0.0,0.0,0.0,0.0,0.0,0.0,0.0,0.0,0.0,0.0,0.0,0.0,0.0,0.0,0.0,0.0,0.0,0.0,0.0,0.0,0.0,0.0,0.0,0.0,0.0,0.0,0.0,0.0,0.0,0.0,0.0,0.0,0.0,0.0,0.0,0.0,0.0,0.0,0.0,0.0,0.0,0.0,0.0,0.0,0.0,0.0,0.0,0.0,0.0,0.0,0.0,0.0,0.0,0.0,0.0,0.0,0.0,0.0,0.0,0.0,0.0,0.0,0.0,0.0,0.0,0.0,0.0,0.0,0.3474,0.4002,0.3972,0.0,0.3927,0.0,0.0,0.0,0.0,0.0,0.0,0.0,0.0,0.0,0.0,0.0,0.0,0.0,0.0,0.0,0.0,0.0,0.0,0.0,0.0,0.0,0.0,0.0,0.0,0.0,0.0,0.0,0.0,0.0,0.0,0.0,0.0,0.0,0.0,0.0,0.0,0.0,0.0,0.0,0.0,0.0,0.0,0.0,0.0,0.0,0.0,0.0,0.0,0.0,0.0,0.0,0.0,0.0,0.0,0.0,0.0,0.0,0.0,0.0,0.0,0.0,0.0,0.0,0.0,0.0,0.0,0.0,0.0,0.0,0.0,0.0,0.0,0.0,0.0,0.0,0.0,0.0,0.0,0.0,0.0,0.0,0.0,0.0,0.0,0.0,0.0,0.0,0.0,0.0,0.0,0.0,0.0,0.0,0.0,0.0,0.0,0.0,0.0,0.0,0.0,0.0,0.0,0.0,0.0,0.0,0.0,0.0,0.0,0.0,0.0,0.3625,0.4053,0.4147,0.4113,0.0,0.0,0.0,0.0,0.0,0.0,0.0,0.0,0.0,0.0,0.0,0.0,0.0,0.0,0.0,0.0,0.0,0.0,0.0,0.0,0.0,0.0,0.0,0.0,0.0,0.0,0.0,0.0,0.0,0.0,0.0,0.0,0.0,0.0,0.0,0.0,0.0,0.0,0.0,0.0,0.0,0.0,0.0,0.0,0.0,0.0,0.0,0.0,0.0,0.0,0.0,0.0,0.0,0.0,0.0,0.0,0.0,0.0,0.0,0.0,0.0,0.0,0.0,0.0,0.0,0.0,0.0,0.0,0.0,0.0,0.0,0.0,0.0,0.0,0.0,0.0,0.0,0.0,0.0,0.0,0.0,0.0,0.0,0.0,0.0,0.0,0.0,0.0,0.0,0.0,0.0,0.0,0.0,0.0,0.0,0.0,0.0,0.0,0.0,0.0,0.0,0.0,0.0,0.0,0.0,0.0,0.0,0.0,0.0,0.0,0.3472,0.3796,0.4155,0.4111,0.4023,0.3923,0.0,0.0,0.0,0.0,0.0,0.0,0.0,0.0,0.0,0.0,0.0,0.0,0.0,0.0,0.0,0.0,0.0,0.0,0.0,0.0,0.0,0.0,0.0,0.0,0.0,0.0,0.0,0.0,0.0,0.0,0.0,0.0,0.0,0.0,0.0,0.0,0.0,0.0,0.0,0.0,0.0,0.0,0.0,0.0,0.0,0.0,0.0,0.0,0.0,0.0,0.0,0.0,0.0,0.0,0.0,0.0,0.0,0.0,0.0,0.0,0.0,0.0,0.0,0.0,0.0,0.0,0.0,0.0,0.0,0.0,0.0,0.0,0.0,0.0,0.0,0.0,0.0,0.0,0.0,0.0,0.0,0.0,0.0,0.0,0.0,0.0,0.0,0.0,0.0,0.0,0.0,0.0,0.0,0.0,0.0,0.0,0.0,0.0,0.0,0.0,0.0,0.0,0.0,0.0,0.0,0.0,0.0,0.0,0.4254,0.3826,0.3936,0.4607,0.3953,0.3663,0.0,0.0,0.0,0.0,0.0,0.0,0.0,0.0,0.0,0.0,0.0,0.0,0.0,0.0,0.0,0.0,0.0,0.0,0.0,0.0,0.0,0.0,0.0,0.0,0.0,0.0,0.0,0.0,0.0,0.0,0.0,0.0,0.0,0.0,0.0,0.0,0.0,0.0,0.0,0.0,0.0,0.0,0.0,0.0,0.0,0.0,0.0,0.0,0.0,0.0,0.0,0.0,0.0,0.0,0.0,0.0,0.0,0.0,0.0,0.0,0.0,0.0,0.0,0.0,0.0,0.0,0.0,0.0,0.0,0.0,0.0,0.0,0.0,0.0,0.0,0.0,0.0,0.0,0.0,0.0,0.0,0.0,0.0,0.0,0.0,0.0,0.0,0.0,0.0,0.0,0.0,0.0,0.0,0.0,0.0,0.0,0.0,0.0,0.0,0.0,0.0,0.0,0.0,0.0,0.0,0.0,0.0,0.0,0.0,0.3298,0.3464,0.3748,0.4156,0.394,0.3851,0.0,0.0,0.0,0.0,0.0,0.0,0.0,0.0,0.0,0.0,0.0,0.0,0.0,0.0,0.0,0.0,0.0,0.0,0.0,0.0,0.0,0.0,0.0,0.0,0.0,0.0,0.0,0.0,0.0,0.0,0.0,0.0,0.0,0.0,0.0,0.0,0.0,0.0,0.0,0.0,0.0,0.0,0.0,0.0,0.0,0.0,0.0,0.0,0.0,0.0,0.0,0.0,0.0,0.0,0.0,0.0,0.0,0.0,0.0,0.0,0.0,0.0,0.0,0.0,0.0,0.0,0.0,0.0,0.0,0.0,0.0,0.0,0.0,0.0,0.0,0.0,0.0,0.0,0.0,0.0,0.0,0.0,0.0,0.0,0.0,0.0,0.0,0.0,0.0,0.0,0.0,0.0,0.0,0.0,0.0,0.0,0.0,0.0,0.0,0.0,0.0,0.0,0.0,0.0,0.0,0.0,0.0,0.0,0.0,0.2993,0.0,0.3742,0.3941,0.3909,0.3809,0.0,0.0,0.0,0.0,0.0,0.0,0.0,0.0,0.0,0.0,0.0,0.0,0.0,0.0,0.0,0.0,0.0,0.0,0.0,0.0,0.0,0.0,0.0,0.0,0.0,0.0,0.0,0.0,0.0,0.0,0.0,0.0,0.0,0.0,0.0,0.0,0.0,0.0,0.0,0.0,0.0,0.0,0.0,0.0,0.0,0.0,0.0,0.0,0.0,0.0,0.0,0.0,0.0,0.0,0.0,0.0,0.0,0.0,0.0,0.0,0.0,0.0,0.0,0.0,0.0,0.0,0.0,0.0,0.0,0.0,0.0,0.0,0.0,0.0,0.0,0.0,0.0,0.0,0.0,0.0,0.0,0.0,0.0,0.0,0.0,0.0,0.0,0.0,0.0,0.0,0.0,0.0,0.0,0.0,0.0,0.0,0.0,0.0,0.0,0.0,0.0,0.0,0.0,0.0,0.0,0.0,0.0,0.0,0.3139,0.3563,0.3832,0.4012,0.4093,0.3789,0.3534,0.0,0.0,0.0,0.0,0.0,0.0,0.0,0.0,0.0,0.0,0.0,0.0,0.0,0.0,0.0,0.0,0.0,0.0,0.0,0.0,0.0,0.0,0.0,0.0,0.0,0.0,0.0,0.0,0.0,0.0,0.0,0.0,0.0,0.0,0.0,0.0,0.0,0.0,0.0,0.0,0.0,0.0,0.0,0.0,0.0,0.0,0.0,0.0,0.0,0.0,0.0,0.0,0.0,0.0,0.0,0.0,0.0,0.0,0.0,0.0,0.0,0.0,0.0,0.0,0.0,0.0,0.0,0.0,0.0,0.0,0.0,0.0,0.0,0.0,0.0,0.0,0.0,0.0,0.0,0.0,0.0,0.0,0.0,0.0,0.0,0.0,0.0,0.0,0.0,0.0,0.0,0.0,0.0,0.0,0.0,0.0,0.0,0.0,0.0,0.0,0.0,0.0,0.0,0.0,0.0,0.0,0.0,0.0,0.0,0.3197,0.3508,0.384,0.4217,0.3597,0.3572,0.0,0.0,0.0,0.0,0.0,0.0,0.0,0.0,0.0,0.0,0.0,0.0,0.0,0.0,0.0,0.0,0.0,0.0,0.0,0.0,0.0,0.0,0.0,0.0,0.0,0.0,0.0,0.0,0.0,0.0,0.0,0.0,0.0,0.0,0.0,0.0,0.0,0.0,0.0,0.0,0.0,0.0,0.0,0.0,0.0,0.0,0.0,0.0,0.0,0.0,0.0,0.0,0.0,0.0,0.0,0.0,0.0,0.0,0.0,0.0,0.0,0.0,0.0,0.0,0.0,0.0,0.0,0.0,0.0,0.0,0.0,0.0,0.0,0.0,0.0,0.0,0.0,0.0,0.0,0.0,0.0,0.0,0.0,0.0,0.0,0.0,0.0,0.0,0.0,0.0,0.0,0.0,0.0,0.0,0.0,0.0,0.0,0.0,0.0,0.0,0.0,0.0,0.0,0.0,0.0,0.0,0.0,0.0,0.0,0.3559,0.3776,0.4073,0.437,0.3835,0.3718,0.4088,0.0,0.0,0.0,0.0,0.0,0.0,0.0,0.0,0.0,0.0,0.0,0.0,0.0,0.0,0.0,0.0,0.0,0.0,0.0,0.0,0.0,0.0,0.0,0.0,0.0,0.0,0.0,0.0,0.0,0.0,0.0,0.0,0.0,0.0,0.0,0.0,0.0,0.0,0.0,0.0,0.0,0.0,0.0,0.0,0.0,0.0,0.0,0.0,0.0,0.0,0.0,0.0,0.0,0.0,0.0,0.0,0.0,0.0,0.0,0.0,0.0,0.0,0.0,0.0,0.0,0.0,0.0,0.0,0.0,0.0,0.0,0.0,0.0,0.0,0.0,0.0,0.0,0.0,0.0,0.0,0.0,0.0,0.0,0.0,0.0,0.0,0.0,0.0,0.0,0.0,0.0,0.0,0.0,0.0,0.0,0.0,0.0,0.0,0.0,0.0,0.0,0.0,0.0,0.0,0.0,0.0,0.0,0.0,0.4478,0.4642,0.4674,0.458,0.4394,0.4026,0.0,0.0,0.0,0.0,0.0,0.0,0.0,0.0,0.0,0.0,0.0,0.0,0.0,0.0,0.0,0.0,0.0,0.0,0.0,0.0,0.0,0.0,0.0,0.0,0.0,0.0,0.0,0.0,0.0,0.0,0.0,0.0,0.0,0.0,0.0,0.0,0.0,0.0,0.0,0.0,0.0,0.0,0.0,0.0,0.0,0.0,0.0,0.0,0.0,0.0,0.0,0.0,0.0,0.0,0.0,0.0,0.0,0.0,0.0,0.0,0.0,0.0,0.0,0.0,0.0,0.0,0.0,0.0,0.0,0.0,0.0,0.0,0.0,0.0,0.0,0.0,0.0,0.0,0.0,0.0,0.0,0.0,0.0,0.0,0.0,0.0,0.0,0.0,0.0,0.0,0.0,0.0,0.0,0.0,0.0,0.0,0.0,0.0,0.0,0.0,0.0,0.0,0.0,0.0,0.0,0.0,0.0,0.0,0.0,0.5596,0.5999,0.5967,0.5416,0.4778,0.4597,0.0,0.0,0.0,0.0,0.0,0.0,0.0,0.0,0.0,0.0,0.0,0.0,0.0,0.0,0.0,0.0,0.0,0.0,0.0,0.0,0.0,0.0,0.0,0.0,0.0,0.0,0.0,0.0,0.0,0.0,0.0,0.0,0.0,0.0,0.0,0.0,0.0,0.0,0.0,0.0,0.0,0.0,0.0,0.0,0.0,0.0,0.0,0.0,0.0,0.0,0.0,0.0,0.0,0.0,0.0,0.0,0.0,0.0,0.0,0.0,0.0,0.0,0.0,0.0,0.0,0.0,0.0,0.0,0.0,0.0,0.0,0.0,0.0,0.0,0.0,0.0,0.0,0.0,0.0,0.0,0.0,0.0,0.0,0.0,0.0,0.0,0.0,0.0,0.0,0.0,0.0,0.0,0.0,0.0,0.0,0.0,0.0,0.0,0.0,0.0,0.0,0.0,0.0,0.0,0.0,0.0,0.0,0.0,0.5954,0.6043,0.686,0.6973,0.6375,0.5685,0.5287,0.0,0.0,0.0,0.0,0.0,0.0,0.0,0.0,0.0,0.0,0.0,0.0,0.0,0.0,0.0,0.0,0.0,0.0,0.0,0.0,0.0,0.0,0.0,0.0,0.0,0.0,0.0,0.0,0.0,0.0,0.0,0.0,0.0,0.0,0.0,0.0,0.0,0.0,0.0,0.0,0.0,0.0,0.0,0.0,0.0,0.0,0.0,0.0,0.0,0.0,0.0,0.0,0.0,0.0,0.0,0.0,0.0,0.0,0.0,0.0,0.0,0.0,0.0,0.0,0.0,0.0,0.0,0.0,0.0,0.0,0.0,0.0,0.0,0.0,0.0,0.0,0.0,0.0,0.0,0.0,0.0,0.0,0.0,0.0,0.0,0.0,0.0,0.0,0.0,0.0,0.0,0.0,0.0,0.0,0.0,0.0,0.0,0.0,0.0,0.0,0.0,0.0,0.0,0.0,0.0,0.0,0.0,0.0,0.6288,0.6142,0.7334,0.7778,0.7314,0.6765,0.5956,0.0,0.0,0.0,0.0,0.0,0.0,0.0,0.0,0.0,0.0,0.0,0.0,0.0,0.0,0.0,0.0,0.0,0.0,0.0,0.0,0.0,0.0,0.0,0.0,0.0,0.0,0.0,0.0,0.0,0.0,0.0,0.0,0.0,0.0,0.0,0.0,0.0,0.0,0.0,0.0,0.0,0.0,0.0,0.0,0.0,0.0,0.0,0.0,0.0,0.0,0.0,0.0,0.0,0.0,0.0,0.0,0.0,0.0,0.0,0.0,0.0,0.0,0.0,0.0,0.0,0.0,0.0,0.0,0.0,0.0,0.0,0.0,0.0,0.0,0.0,0.0,0.0,0.0,0.0,0.0,0.0,0.0,0.0,0.0,0.0,0.0,0.0,0.0,0.0,0.0,0.0,0.0,0.0,0.0,0.0,0.0,0.0,0.0,0.0,0.0,0.0,0.0,0.0,0.0,0.0,0.0,0.0,0.0,0.6293,0.6302,0.7696,0.8201,0.7645,0.6579,0.5907,0.0,0.0,0.0,0.0,0.0,0.0,0.0,0.0,0.0,0.0,0.0,0.0,0.0,0.0,0.0,0.0,0.0,0.0,0.0,0.0,0.0,0.0,0.0,0.0,0.0,0.0,0.0,0.0,0.0,0.0,0.0,0.0,0.0,0.0,0.0,0.0,0.0,0.0,0.0,0.0,0.0,0.0,0.0,0.0,0.0,0.0,0.0,0.0,0.1019,0.0,0.0,0.0,0.0,0.0,0.0,0.0,0.0,0.0,0.0,0.0,0.0,0.0,0.0,0.0,0.0,0.0,0.0,0.0,0.0,0.0,0.0,0.0,0.0,0.0,0.0,0.0,0.0,0.0,0.0,0.0,0.0,0.0,0.0,0.0,0.0,0.0,0.0,0.0,0.0,0.0,0.0,0.0,0.0,0.0,0.0,0.0,0.0,0.0,0.0,0.0,0.0,0.0,0.0,0.0,0.0,0.0,0.0,0.0,0.6669,0.7152,0.8165,0.8463,0.7961,0.7068,0.6532,0.0,0.0,0.0,0.0,0.0,0.0,0.0,0.0,0.0,0.0,0.0,0.0,0.0,0.0,0.0,0.0,0.0,0.0,0.0,0.0,0.0,0.0,0.0,0.0,0.0,0.0,0.0,0.0,0.0,0.0,0.0,0.0,0.0,0.0,0.0,0.0,0.0,0.0,0.0,0.0,0.0,0.0,0.0,0.0,0.0,0.0,0.0,0.0,0.0,0.0,0.0,0.0,0.0,0.0,0.0,0.0,0.0,0.0,0.0,0.0,0.0,0.0,0.0,0.0,0.0,0.0,0.0,0.0,0.0,0.0,0.0,0.0,0.0,0.0,0.0,0.0,0.0,0.0,0.0,0.0,0.0,0.0,0.0,0.0,0.0,0.0,0.0,0.0,0.0,0.0,0.0,0.0,0.0,0.0,0.0,0.0,0.0,0.0,0.0,0.0,0.0,0.0,0.0,0.0,0.0,0.0,0.0,0.6514,0.7107,0.8072,0.8608,0.8704,0.8334,0.7706,0.7267,0.7082,0.0,0.0,0.0,0.0,0.0,0.0,0.0,0.0,0.0,0.0,0.0,0.0,0.0,0.0,0.0,0.0,0.0,0.0,0.0,0.0,0.0,0.0,0.0,0.0,0.0,0.0,0.0,0.0,0.0,0.0,0.0,0.0,0.0,0.0,0.0,0.0,0.0,0.0,0.0964,0.0834,0.0,0.0,0.0,0.0,0.0,0.0,0.0,0.0,0.1188,0.0,0.0,0.0,0.0,0.0,0.0,0.0,0.0,0.0,0.0,0.0,0.0,0.0,0.0,0.0,0.0,0.0,0.0,0.0,0.0,0.0,0.0,0.0,0.0,0.0,0.0,0.0,0.0,0.0,0.0,0.0,0.0,0.0,0.0,0.0,0.0,0.0,0.0,0.0,0.0,0.0,0.0,0.0,0.0,0.0,0.0,0.0,0.0,0.0,0.0,0.0,0.0,0.0,0.0,0.0,0.0,0.6922,0.6882,0.7311,0.8259,0.896,0.9006,0.843,0.7904,0.7569,0.7375,0.0,0.0,0.0,0.0,0.0,0.0,0.0,0.0,0.0,0.0,0.0,0.0,0.0,0.0,0.0,0.0,0.0,0.0,0.0,0.0,0.0,0.0,0.0,0.0,0.0,0.0,0.0,0.0,0.0,0.0,0.0,0.0,0.0,0.0,0.0,0.0,0.0,0.0,0.0,0.1327,0.1415,0.0,0.0,0.0,0.0,0.0,0.0,0.0,0.0,0.1942,0.0,0.0,0.0,0.0,0.0,0.0,0.0,0.0,0.0,0.0,0.0,0.0,0.0,0.0,0.0,0.0,0.0,0.0,0.0,0.0,0.0,0.0,0.0,0.0,0.0,0.0,0.0,0.0,0.0,0.0,0.0,0.0,0.0,0.0,0.0,0.0,0.0,0.0,0.0,0.0,0.0,0.0,0.0,0.0,0.0,0.0,0.0,0.0,0.0,0.0,0.0,0.0,0.0,0.0,0.0,0.6655,0.7113,0.7684,0.8379,0.895,0.89,0.8096,0.781,0.7516,0.0,0.0,0.0,0.0,0.0,0.0,0.0,0.0,0.0,0.0,0.0,0.0,0.0,0.0,0.0,0.0,0.0,0.0,0.0,0.0,0.0,0.0,0.0,0.0,0.0,0.0,0.0,0.0,0.0,0.0,0.0,0.0,0.0,0.0,0.0,0.0,0.0,0.0,0.0,0.0,0.1545,0.1696,0.2215,0.0,0.0,0.0,0.0,0.0,0.0,0.196,0.1937,0.0,0.0,0.0,0.0,0.0,0.0,0.0,0.0,0.0,0.0,0.0,0.0,0.0,0.0,0.0,0.0,0.0,0.0,0.0,0.0,0.0,0.0,0.0,0.0,0.0,0.0,0.0,0.0,0.0,0.0,0.0,0.0,0.0,0.0,0.0,0.0,0.0,0.0,0.0,0.0,0.0,0.0,0.0,0.0,0.0,0.0,0.0,0.0,0.0,0.0,0.0,0.0,0.0,0.0,0.0,0.6471,0.7401,0.8072,0.8498,0.8885,0.8665,0.7821,0.7575,0.7253,0.0,0.0,0.0,0.0,0.0,0.0,0.0,0.0,0.0,0.0,0.0,0.0,0.0,0.0,0.0,0.0,0.0,0.0,0.0,0.0,0.0,0.0,0.0,0.0,0.0,0.0,0.0,0.0,0.0,0.0,0.0,0.0,0.0,0.0,0.0,0.0,0.0,0.0,0.0,0.0,0.0,0.1909,0.2712,0.2146,0.0,0.0,0.0,0.0,0.2077,0.207,0.0,0.0,0.0,0.0,0.0,0.0,0.0,0.0,0.0,0.0,0.0,0.0,0.0,0.0,0.0,0.0,0.0,0.0,0.0,0.0,0.0,0.0,0.0,0.0,0.0,0.0,0.0,0.0,0.0,0.0,0.0,0.0,0.0,0.0,0.0,0.0,0.0,0.0,0.0,0.0,0.0,0.0,0.0,0.0,0.0,0.0,0.0,0.0,0.0,0.0,0.0,0.0,0.0,0.0,0.0,0.0,0.7041,0.7998,0.8486,0.85,0.8875,0.8674,0.7812,0.7213,0.6911,0.0,0.0,0.0,0.0,0.0,0.0,0.0,0.0,0.0,0.0,0.0,0.0,0.0,0.0,0.0,0.0,0.0,0.0,0.0,0.0,0.0,0.0,0.0,0.0,0.0,0.0,0.0,0.0,0.0,0.0,0.0,0.0,0.0,0.0,0.0,0.0,0.0,0.0,0.0,0.0,0.0,0.2136,0.2663,0.2252,0.2065,0.0,0.0,0.2558,0.312,0.3396,0.0,0.0,0.0,0.0,0.0,0.0,0.0,0.0,0.0,0.0,0.0,0.0,0.0,0.0,0.0,0.0,0.0,0.0,0.0,0.0,0.0,0.0,0.0,0.0,0.0,0.0,0.0,0.0,0.0,0.0,0.0,0.0,0.0,0.0,0.0,0.0,0.0,0.0,0.0,0.0,0.0,0.0,0.0,0.0,0.0,0.0,0.0,0.0,0.0,0.0,0.0,0.0,0.0,0.0,0.0,0.6697,0.6912,0.8211,0.8757,0.8526,0.8664,0.8445,0.7803,0.7169,0.6897,0.0,0.0,0.0,0.0,0.0,0.0,0.0,0.0,0.0,0.0,0.0,0.0,0.0,0.0,0.0,0.0,0.0,0.0,0.0,0.0,0.0,0.0,0.0,0.0,0.0,0.0,0.0,0.0,0.0,0.0,0.0,0.0,0.0,0.0,0.0,0.0,0.0,0.0,0.0,0.0,0.0,0.0,0.2783,0.2574,0.0,0.0,0.0,0.2623,0.2599,0.0,0.0,0.0,0.0,0.0,0.0,0.0,0.0,0.0,0.0,0.0,0.0,0.0,0.0,0.0,0.0,0.0,0.0,0.0,0.0,0.0,0.0,0.0,0.0,0.0,0.0,0.0,0.0,0.0,0.0,0.0,0.0,0.0,0.0,0.0,0.0,0.0,0.0,0.0,0.0,0.0,0.0,0.0,0.0,0.0,0.0,0.0,0.0,0.0,0.0,0.0,0.0,0.0,0.0,0.0,0.0,0.0,0.704,0.8504,0.9014,0.8516,0.8498,0.836,0.7981,0.7391,0.0,0.0,0.0,0.0,0.0,0.0,0.0,0.0,0.0,0.0,0.0,0.0,0.0,0.0,0.0,0.0,0.0,0.0,0.0,0.0,0.0,0.0,0.0,0.0,0.0,0.0,0.0,0.0,0.0,0.0,0.0,0.0,0.0,0.0,0.0,0.0,0.0,0.0,0.0,0.0,0.0,0.0,0.2788,0.3003,0.285,0.2855,0.0,0.0,0.2767,0.2506,0.3159,0.3457,0.0,0.0,0.0,0.0,0.0,0.0,0.0,0.0,0.0,0.0,0.0,0.0,0.0,0.0,0.0,0.0,0.0,0.0,0.0,0.0,0.0,0.0,0.0,0.0,0.0,0.0,0.0,0.0,0.0,0.0,0.0,0.0,0.0,0.0,0.0,0.0,0.0,0.0,0.0,0.0,0.0,0.0,0.0,0.0,0.0,0.0,0.0,0.0,0.0,0.0,0.0,0.0,0.0,0.0,0.0,0.7868,0.9017,0.929,0.8544,0.8498,0.848,0.8452,0.7858,0.7546,0.0,0.0,0.0,0.0,0.0,0.0,0.0,0.0,0.0,0.0,0.0,0.0,0.0,0.0,0.0,0.0,0.0,0.0,0.0,0.0,0.0,0.0,0.0,0.0,0.0,0.0,0.0,0.0,0.0,0.0,0.0,0.0,0.0,0.0,0.0,0.0,0.0,0.0,0.0,0.0,0.0,0.3063,0.3333,0.3104,0.3195,0.0,0.0,0.335,0.3632,0.4434,0.4535,0.3027,0.0,0.0,0.0,0.0,0.0,0.0,0.0,0.0,0.0,0.0,0.0,0.0,0.0,0.0,0.0,0.0,0.0,0.0,0.0,0.0,0.0,0.0,0.0,0.0,0.0,0.0,0.0,0.0,0.0,0.0,0.0,0.0,0.0,0.0,0.0,0.0,0.0,0.0,0.0,0.0,0.0,0.0,0.0,0.0,0.0,0.0,0.0,0.0,0.0,0.0,0.0,0.0,0.0,0.8477,0.8282,0.9256,0.9605,0.9253,0.8765,0.8618,0.8857,0.8087,0.7431,0.0,0.0,0.0,0.0,0.0,0.0,0.0,0.0,0.0,0.0,0.0,0.0,0.0,0.0,0.0,0.0,0.0,0.0,0.0,0.0,0.0,0.0,0.0,0.0,0.0,0.0,0.0,0.0,0.255,0.2711,0.283,0.0,0.0,0.0,0.0,0.0,0.0,0.0,0.0,0.0,0.0,0.3625,0.3698,0.3748,0.0,0.0,0.3748,0.36,0.339,0.3894,0.4118,0.3558,0.324,0.0,0.0,0.0,0.0,0.0,0.0,0.0,0.0,0.0,0.0,0.0,0.0,0.0,0.0,0.0,0.0,0.0,0.0,0.0,0.0,0.0,0.0,0.0,0.0,0.0,0.0,0.0,0.0,0.0,0.0,0.0,0.0,0.0,0.0,0.0,0.0,0.0,0.0,0.0,0.0,0.0,0.0,0.0,0.0,0.0,0.0,0.0,0.0,0.0,0.0,0.0,0.0,0.8997,0.8699,0.9509,0.9873,0.9713,0.8912,0.8737,0.9263,0.8445,0.778,0.0,0.0,0.0,0.0,0.0,0.0,0.0,0.0,0.0,0.0,0.0,0.0,0.0,0.0,0.0,0.0,0.0,0.0,0.0,0.0,0.0,0.0,0.0,0.0,0.0,0.0,0.0,0.0,0.3019,0.3234,0.3338,0.0,0.0,0.0,0.0,0.0,0.0,0.0,0.0,0.0,0.0,0.4251,0.4048,0.4114,0.4061,0.3738,0.3653,0.3486,0.3204,0.3567,0.3873,0.3835,0.0,0.0,0.0,0.0,0.0,0.0,0.0,0.0,0.0,0.0,0.0,0.0,0.0,0.0,0.0,0.0,0.0,0.0,0.0,0.0,0.0,0.0,0.0,0.0,0.0,0.0,0.0,0.0,0.0,0.0,1.0725,0.0,0.0,0.0,0.0,0.0,0.0,0.0,0.0,0.0,0.0,0.0,0.0,0.0,0.0,0.0,0.0,0.0,0.0,0.0,0.0,0.0,0.0,0.9567,0.9217,0.9926,1.0118,0.9732,0.8931,0.893,0.9709,0.9003,0.8786,0.9178,0.0,0.0,0.0,0.0,0.0,0.0,0.0,0.0,0.0,0.0,0.0,0.0,0.0,0.0,0.0,0.0,0.0,0.0,0.0,0.0,0.0,0.0,0.0,0.0,0.0,0.0,0.3617,0.3672,0.37,0.0,0.0,0.0,0.0,0.0,0.0,0.0,0.0,0.0,0.0,0.457,0.4945,0.4269,0.4048,0.3886,0.3764,0.3291,0.3022,0.3274,0.3858,0.415,0.0,0.0,0.0,0.0,0.0,0.0,0.0,0.0,0.0,0.0,0.0,0.0,0.0,0.0,0.0,0.0,0.0,0.0,0.0,0.0,0.0,0.0,0.0,0.0,0.0,0.0,0.0,1.2709,1.26,0.0,0.0,0.0,0.0,0.0,0.0,0.0,0.0,0.0,0.0,0.0,1.1295,1.0956,0.0,0.0,0.0,0.0,0.0,0.0,0.0,0.0,0.0,0.0,0.0,0.0,0.9987,0.9787,1.0615,1.0804,1.0315,0.9741,0.9591,0.9892,0.931,0.9095,0.9263,0.0,0.0,0.0,0.0,0.0,0.0,0.0,0.0,0.0,0.0,0.0,0.0,0.0,0.0,0.0,0.0,0.0,0.0,0.0,0.0,0.0,0.0,0.0,0.0,0.0,0.4293,0.0,0.0,0.0,0.0,0.0,0.0,0.0,0.0,0.0,0.0,0.0,0.4272,0.4449,0.4608,0.4627,0.4437,0.4372,0.4406,0.0,0.0,0.0,0.0,0.0,0.0,0.0,0.0,0.0,0.0,0.0,0.0,0.0,0.0,0.3724,0.2238,0.2565,0.2901,0.2239,0.0,0.0,0.0,0.0,0.0,0.0,0.0,0.0,0.0,0.0,0.0,0.0,0.0,0.0,1.372,0.0,1.3528,0.0,0.0,0.0,0.0,0.0,0.0,0.0,0.0,1.18,1.188,1.1886,1.1553,1.1397,0.0,1.1166,1.0554,0.0,0.0,0.0,0.0,0.0,0.0,0.0,0.0,1.0355,1.0119,1.1057,1.1318,1.0856,1.0425,1.0217,1.0269,0.9964,0.9844,0.9938,0.8567,0.7891,0.0,0.0,0.0,0.0,0.0,0.0,0.0,0.0,0.0,0.0,0.0,0.0,0.0,0.0,0.0,0.0,0.0,0.0,0.0,0.0,0.0,0.0,0.0,0.4716,0.0,0.0,0.0,0.0,0.0,0.0,0.0,0.0,0.0,0.4352,0.4525,0.4739,0.4969,0.4974,0.487,0.4524,0.0,0.0,0.0,0.0,0.0,0.0,0.0,0.351,0.3508,0.3878,0.422,0.4377,0.4614,0.4634,0.4172,0.0,0.0,0.3491,0.3783,0.4069,0.3452,0.318,0.2891,0.2424,0.2361,0.2252,0.0,0.0,0.0,0.0,0.0,0.0,0.0,0.0,1.4785,1.4369,0.0,1.4321,0.0,0.0,0.0,0.0,0.0,1.2784,0.0,0.0,1.379,1.3693,1.2746,1.2044,1.1641,1.1533,1.108,1.0784,1.0784,1.1026,0.0,0.0,0.0,0.0,0.0,0.0,1.0638,1.0234,1.1331,1.1721,1.1338,1.0946,1.0759,1.0813,1.0834,1.0947,1.1078,1.048,1.0344,1.0811,0.9119,0.0,0.0,0.0,0.0,0.0,0.0,0.0,0.0,0.0,0.0,0.0,0.0,0.0,0.0,0.0,0.0,0.0,0.0,0.0,0.0,0.4954,0.0,0.0,0.0,0.0,0.0,0.0,0.0,0.0,0.0,0.0,0.4706,0.4906,0.513,0.5259,0.0,0.0,0.0,0.0,0.4384,0.3541,0.315,0.3055,0.3203,0.3608,0.4137,0.4707,0.0,0.0,0.5563,0.5177,0.4802,0.4361,0.5186,0.564,0.4986,0.4531,0.4205,0.4101,0.4248,0.4074,0.3429,0.3432,0.3427,1.9784,0.0,0.0,0.0,0.0,1.7331,1.7647,1.8411,1.7362,1.6687,1.6218,1.588,0.0,0.0,0.0,0.0,0.0,0.0,1.386,1.4025,1.4439,1.4486,1.4185,1.3451,1.3106,1.3037,1.252,1.2278,1.2287,1.2357,1.17,1.033,0.0,0.0,0.0,0.0,1.1163,1.1405,1.2214,1.2396,1.196,1.1779,1.1566,1.1248,1.103,1.1045,1.1354,1.1384,1.1071,1.0376,1.0531,0.0,0.0,0.0,0.0,0.0,0.0,0.0,0.0,0.0,0.0,0.0,0.0,0.0,0.0,0.0,0.0,0.0,0.0,0.0,0.5745,0.4236,0.3731,0.0,0.0,0.0,0.0,0.0,0.0,0.0,0.0,0.0,0.5474,0.5162,0.4987,0.0,0.0,0.4506,0.4171,0.4444,0.4711,0.4712,0.4562,0.0,0.0,0.469,0.4612,0.4829,0.5621,0.6165,0.5972,0.6376,0.6552,0.5964,0.6293,0.6578,0.6426,0.6405,0.6125,0.5515,0.5509,0.549,0.4898,0.4645,0.4442,2.3217,2.1338,1.9772,1.9325,1.9701,1.9391,1.9679,2.0357,1.967,1.9033,1.8351,1.8126,1.7196,1.5768,1.5509,0.0,0.0,0.0,1.543,1.5658,1.5557,1.5398,1.5153,1.4697,1.4226,1.3709,1.3352,1.3086,1.2881,1.2695,1.2032,1.101,0.0,0.0,1.0517,1.117,1.1626,1.1939,1.2551,1.2744,1.25,1.2268,1.1989,1.1737,1.1516,1.1602,1.2045,1.2025,1.183,1.1446,1.1028,1.0178,0.0,0.0,0.0,0.0,0.0,0.0,0.0,0.0,0.0,0.0,0.0,0.7233,0.0,0.0,0.0,0.0,0.626,0.5882,0.4875,0.4226,0.0,0.0,0.0,0.0,0.0,0.0,0.0,0.5867,0.6201,0.6462,0.6411,0.605,0.5691,0.5444,0.5108,0.4796,0.4624,0.0,0.5271,0.536,0.521,0.5224,0.5531,0.5325,0.5242,0.5624,0.6281,0.6598,0.6331,0.6949,0.7266,0.6774,0.6689,0.6768,0.6719,0.6985,0.7076,0.6562,0.638,0.6241,0.5843,0.5536,0.5214,2.6339,2.5636,2.2847,2.1646,2.1612,2.1599,2.1656,2.1744,2.1707,2.1256,2.0526,2.0698,1.985,1.828,1.7687,0.0,1.73,1.7242,1.7347,1.7581,1.7138,1.6576,1.5913,1.5777,1.5109,1.3922,1.3831,1.3491,1.2968,1.2461,1.2209,1.2173,1.2134,1.1774,1.117,1.1727,1.1984,1.1939,1.2522,1.2832,1.2881,1.249,1.2229,1.2275,1.228,1.2457,1.2848,1.241,1.2541,1.3257,1.0972,0.9864,1.0381,0.0,0.0,0.0,0.0,0.0,0.0,0.0,0.0,0.0,0.0,0.0,0.0,0.0,0.0,0.0,0.6585,0.0,0.3701,0.5032,0.0,0.0,0.0,0.7063,0.772,0.7744,0.7673,0.7463,0.0,0.0,0.7344,0.7237,0.6966,0.6488,0.6184,0.5915,0.5575,0.5782,0.59,0.5631,0.5381,0.5366,0.5796,0.5835,0.6085,0.6713,0.7181,0.7147,0.6719,0.7056,0.7273,0.681,0.6647,0.652,0.638,0.6641,0.6914,0.7286,0.6907,0.6435,0.6228,0.5902,0.5595,2.826,2.8047,2.6909,2.5507,2.3979,2.3967,2.3967,2.4004,2.3577,2.3015,2.238,2.1656,2.0611,1.9393,1.9269,1.9195,1.9146,1.9592,1.9368,1.8702,1.8905,1.8494,1.7512,1.6631,1.6046,1.5719,1.4861,1.4153,1.361,1.3476,1.3152,1.2695,1.2279,1.181,1.1284,1.1404,1.1659,1.2059,1.2221,1.2482,1.2871,1.2783,1.2725,1.2725,1.2802,1.2827,1.2796,1.2431,1.2307,1.2391,1.1198,0.9982,0.8835,0.8725,0.0,0.0,0.0,0.0,0.0,0.0,0.0,0.0,0.0,0.7832,0.7015,0.0,0.7275,0.0,0.7302,0.7578,0.7042,0.7747,0.0,0.0,0.7947,0.7896,0.827,0.8325,0.8168,0.7815,0.7954,0.8019,0.7936,0.7862,0.7924,0.8031,0.7032,0.6117,0.5791,0.6028,0.6211,0.616,0.6306,0.6575,0.6838,0.6991,0.71,0.728,0.736,0.7335,0.7209,0.7412,0.7489,0.7021,0.6979,0.6894,0.6683,0.6295,0.6422,0.7182,0.6979,0.6392,0.5996,0.5481,0.5237,2.9315,2.9289,2.8976,2.8009,2.664,2.6389,2.6151,2.5887,2.5598,2.4996,2.418,2.3351,2.2485,2.1681,2.1669,2.1393,2.0953,2.1255,2.0926,2.0158,2.0441,1.9951,1.8823,1.7931,1.7261,1.6707,1.5888,1.5157,1.4584,1.4371,1.3941,1.3334,1.2987,1.2553,1.198,1.1572,1.1554,1.2068,1.2124,1.2385,1.29,1.3113,1.3024,1.2588,1.2797,1.2789,1.2583,1.2172,1.202,1.2156,1.1224,1.0184,0.9235,0.8859,0.8229,0.0,0.0,0.0,0.0,0.0,0.0,0.0,0.0,0.0,0.0,0.0,0.7812,0.0,0.8295,0.873,0.8436,0.8644,0.8878,0.9002,0.8896,0.9007,0.9449,0.9534,0.9385,0.906,0.9345,0.9506,0.9358,0.947,0.9567,0.963,0.8799,0.7926,0.7192,0.7145,0.7138,0.6949,0.7086,0.7262,0.7555,0.7551,0.7565,0.7722,0.758,0.737,0.7209,0.7503,0.7628,0.7202,0.6901,0.681,0.6852,0.6416,0.6246,0.667,0.6634,0.6349,0.6136,0.5959,0.591,2.9779,2.9779,2.9779,2.9503,2.9001,2.8524,2.7971,2.7381,2.7306,2.664,2.5573,2.5121,2.4619,2.4117,2.4017,2.3464,2.2535,2.246,2.2121,2.1606,2.1594,2.1014,2.0,1.9406,1.8568,1.7531,1.6964,1.6369,1.5609,1.5132,1.4602,1.3921,1.3768,1.3491,1.2979,1.2087,1.1768,1.1976,1.2144,1.2412,1.2783,1.3155,1.2979,1.2214,1.2564,1.2583,1.2234,1.1789,1.1752,1.2156,1.1078,1.0464,1.0552,0.9117,0.8704,0.0,0.9204,0.0,0.0,0.0,0.0,0.0,0.0,0.0,0.0,0.8717,0.8427,0.8664,0.9283,0.9467,0.8891,0.8942,0.9243,0.9883,1.0019,1.0273,1.0907,1.0997,1.087,1.0636,1.0974,1.1172,1.0986,1.1285,1.128,1.0916,1.064,1.0047,0.9064,0.8544,0.8198,0.778,0.7635,0.7724,0.8026,0.787,0.7825,0.8151,0.7874,0.7384,0.7083,0.7454,0.7712,0.7293,0.6823,0.6647,0.7105,0.6761,0.6459,0.6634,0.6513,0.6392,0.6435,0.6471,0.6556,2.9779,2.9779,2.9779,2.9729,2.9628,2.9515,2.8888,2.7921,2.7482,2.664,2.5598,2.5498,2.5146,2.4644,2.4192,2.3891,2.3653,2.3188,2.2686,2.2159,2.2146,2.18,2.1176,2.0552,1.9927,1.9312,1.8766,1.7722,1.6253,1.5736,1.5163,1.452,1.3693,1.3552,1.3928,0.0,0.0,0.0,1.2134,1.2219,1.2334,1.2073,1.1911,1.1797,1.2302,0.0,1.2007,1.1933,1.1911,1.1829,1.0729,0.0,0.0,0.0,0.0,0.0,0.0,0.0,0.0,0.0,0.0,0.0,1.1629,1.1012,1.0565,1.0026,0.9556,0.9227,0.9776,1.0143,1.0081,1.0695,1.116,1.1292,1.1593,1.1861,1.1996,1.1901,1.1828,1.1785,1.1824,1.18,1.1661,1.1697,1.1669,1.1514,1.1334,1.1046,1.0424,0.9528,0.8651,0.7881,0.7887,0.8223,0.8866,0.8568,0.8261,0.826,0.815,0.7836,0.7454,0.7377,0.7503,0.737,0.7419,0.7286,0.7245,0.7112,0.7098,0.753,0.716,0.6738,0.6689,0.5996,0.5701,2.9779,0.0,2.9779,2.9779,0.0,2.9779,2.9465,2.89,2.8335,2.7469,2.644,2.6427,2.6138,2.5586,2.477,2.4406,2.4356,2.3514,2.2927,2.2723,2.2664,2.2339,2.1718,2.1272,2.1018,2.0848,1.9853,1.8963,1.8056,1.7331,1.6648,1.5992,1.5504,1.5368,1.5631,1.4971,1.4027,1.2927,1.2937,1.2914,1.2886,1.3177,1.2981,1.2396,0.0,0.0,0.0,0.0,0.0,0.0,0.0,0.0,0.0,0.0,0.0,1.2791,1.2954,1.3228,1.3566,1.3504,1.3615,1.3947,1.3531,1.2591,1.1172,1.0878,1.0672,1.0425,1.0661,1.0946,1.1217,1.1577,1.1867,1.2088,1.2246,1.2393,1.2307,1.2254,1.2169,1.2156,1.2297,1.2341,1.2242,1.2388,1.2417,1.2335,1.2057,1.163,1.0912,1.0234,0.9502,0.8577,0.8439,0.8663,0.9185,0.8909,0.8735,0.8877,0.8572,0.8126,0.7855,0.7697,0.7628,0.7621,0.737,0.716,0.7587,0.737,0.7245,0.7704,0.7454,0.7112,0.7021,0.638,0.5879,2.9779,2.9779,2.9779,2.9779,2.9779,2.9779,2.9779,2.9754,0.0,0.0,0.0,2.718,2.6892,2.6389,2.541,2.4958,2.4883,2.3803,2.3278,2.3414,2.3165,2.2852,2.2346,2.1989,2.1944,2.2115,2.0742,1.9963,1.978,1.8802,1.8015,1.7495,1.7387,1.729,1.723,1.6669,1.5753,1.4407,1.395,1.3658,1.3663,1.4372,1.4194,1.3057,1.3717,1.3826,1.3181,1.3159,1.3159,1.317,1.3305,1.3414,1.344,1.3535,1.3663,1.3796,1.3838,1.4105,1.4767,1.4607,1.4769,1.5433,1.4982,1.3806,1.1769,1.1789,1.1833,1.1746,1.1708,1.1832,1.2189,1.2227,1.2297,1.2658,1.2732,1.2741,1.2611,1.2546,1.2544,1.2446,1.2709,1.2869,1.2787,1.3024,1.318,1.3064,1.2718,1.2158,1.1254,1.0591,0.9995,0.9426,0.9115,0.9125,0.9436,0.9179,0.905,0.9393,0.8898,0.839,0.8259,0.8111,0.7953,0.7953,0.728,0.7238,0.7878,0.7628,0.7328,0.7836,0.7607,0.7356,0.7308,0.6979,0.6471,2.9792,2.9779,2.9779,2.9779,2.9779,2.9779,2.9779,2.9704,2.8674,2.7871,2.7268,2.6779,2.6527,2.6427,2.5774,2.5485,2.5423,2.4368,2.413,2.4531,2.3528,2.3376,2.384,2.3203,2.2896,2.2879,2.1788,2.0748,1.9776,1.8778,1.8196,1.7975,1.7665,1.7605,1.7834,1.7664,1.7411,1.7027,1.4858,1.3685,1.3695,1.3453,1.3306,1.3167,1.3304,1.3342,1.3369,1.338,1.3369,1.3369,1.3369,1.3686,1.4352,1.4452,1.4713,1.5397,1.5433,1.5525,1.5628,1.5584,1.5576,1.5478,1.4827,1.4111,1.3423,1.339,1.3215,1.2759,1.265,1.2726,1.2813,1.3065,1.327,1.3366,1.3619,1.3725,1.3569,1.3522,1.3465,1.3362,1.3429,1.3402,1.3297,1.3321,1.3324,1.3218,1.3002,1.273,1.1866,1.0511,0.9744,0.9799,0.9748,0.9703,0.9776,0.9635,0.941,0.8987,0.909,0.8918,0.8553,0.8308,0.8226,0.8185,0.7863,0.7787,0.7961,0.801,0.7919,0.7995,0.7863,0.7655,0.7273,0.7021,0.6894,3.0068,2.9792,2.9779,2.9779,2.9779,2.9779,2.9779,2.9716,2.8913,2.8247,2.7695,2.7143,2.6741,2.6414,2.585,2.5586,2.5561,2.4795,2.4582,2.4745,2.3979,2.3554,2.3592,2.323,2.3122,2.3052,2.2304,2.1693,2.1131,2.0118,1.9587,1.9485,1.9018,1.8796,1.8846,1.8524,1.829,1.8105,1.6693,1.558,1.4891,1.5014,1.4803,1.4257,1.4462,1.4646,1.4689,1.5002,1.5142,1.5154,1.5412,1.5586,1.5686,1.5946,1.6004,1.5828,1.6056,1.6092,1.5804,1.5792,1.5703,1.5501,1.5201,1.4852,1.4508,1.3838,1.3299,1.2964,1.2889,1.3009,1.3314,1.351,1.3694,1.3842,1.4021,1.4046,1.3915,1.3821,1.3763,1.3716,1.3668,1.3563,1.3515,1.3515,1.3467,1.3294,1.3067,1.2652,1.2088,1.1267,1.0634,1.0746,1.0676,1.0474,1.0242,1.0123,0.987,0.9399,0.9288,0.9208,0.8967,0.8756,0.8643,0.8602,0.8357,0.8193,0.8267,0.816,0.8077,0.8118,0.8028,0.7821,0.7572,0.7405,0.7224,3.0382,2.998,2.9842,2.9779,2.9779,2.9779,2.9779,2.9729,2.9176,2.8687,2.8247,2.7582,2.7042,2.6615,2.605,2.5787,2.5724,2.5234,2.5071,2.5109,2.4506,2.3953,2.3628,2.3442,2.3339,2.3263,2.2648,2.2322,2.2196,2.1317,2.0907,2.079,2.0263,1.9947,1.9843,1.9307,1.8933,1.8819,1.8437,1.7642,1.6396,1.6786,1.6594,1.581,1.6049,1.6242,1.6266,1.6628,1.6798,1.6857,1.7183,1.7219,1.6811,1.7183,1.7051,1.6284,1.6524,1.6536,1.602,1.5852,1.5748,1.5614,1.557,1.5468,1.5129,1.4353,1.3673,1.3345,1.3303,1.3456,1.3772,1.386,1.3945,1.4236,1.4222,1.4186,1.4046,1.3962,1.3868,1.3868,1.3705,1.3668,1.3621,1.3621,1.3563,1.3369,1.302,1.263,1.2238,1.2123,1.199,1.1836,1.1608,1.1236,1.079,1.0672,1.0429,0.9966,0.9731,0.9564,0.9399,0.9269,0.9165,0.9059,0.8675,0.8513,0.8594,0.8398,0.8201,0.8209,0.8118,0.7987,0.787,0.7665,0.7409,3.0583,3.047,2.9993,2.9779,2.9779,2.9779,2.9779,2.9716,2.9189,2.89,2.8762,2.7745,2.7281,2.713,2.6628,2.6445,2.637,2.5787,2.5799,2.6113,2.5222,2.4893,2.5053,2.4292,2.4003,2.3915,2.2971,2.2472,2.2435,2.1757,2.1418,2.1355,2.0853,2.0577,2.0514,2.0012,1.9633,1.949,1.9583,1.8946,1.7714,1.7689,1.7652,1.7567,1.7555,1.7603,1.7554,1.7556,1.7508,1.752,1.7448,1.7412,1.7352,1.74,1.7376,1.7255,1.7291,1.7111,1.6536,1.6056,1.5792,1.5792,1.5748,1.5703,1.5513,1.533,1.5048,1.4609,1.4347,1.4255,1.4297,1.4297,1.4297,1.4351,1.4373,1.4326,1.4222,1.4176,1.4129,1.3973,1.3868,1.3763,1.3763,1.3668,1.3563,1.3409,1.3338,1.3199,1.2987,1.2882,1.2865,1.277,1.2385,1.181,1.1391,1.1189,1.0931,1.0517,1.0331,1.0128,0.9908,0.978,0.973,0.9415,0.9088,0.8886,0.8756,0.8635,0.8521,0.8316,0.8193,0.8111,0.7923,0.7558,0.7266,3.0896,3.057,3.003,2.9779,2.9779,2.9779,2.9779,2.9754,2.9541,2.944,2.934,2.8599,2.7896,2.7281,2.7042,2.6779,2.6521,2.6214,2.6294,2.6377,2.5636,2.5526,2.5927,2.496,2.4608,2.4823,2.4117,2.3791,2.364,2.2912,2.2133,2.1543,2.1255,2.1004,2.0731,2.0426,2.015,1.972,1.9747,1.9521,1.9021,1.8586,1.8215,1.7847,1.781,1.781,1.7847,1.8044,1.8166,1.8203,1.8333,1.8307,1.798,1.8208,1.8061,1.7484,1.7111,1.6859,1.6596,1.6092,1.5792,1.5792,1.5792,1.5748,1.5691,1.5558,1.5379,1.5198,1.4846,1.4523,1.443,1.443,1.443,1.443,1.443,1.4373,1.4326,1.4269,1.4176,1.415,1.401,1.3868,1.3821,1.3668,1.3573,1.3515,1.3515,1.3467,1.3372,1.3286,1.3238,1.3122,1.2839,1.2441,1.196,1.1762,1.1525,1.1151,1.0879,1.068,1.0544,1.0233,1.0071,0.9899,0.9479,0.9177,0.907,0.8837,0.8643,0.8423,0.8094,0.7879,0.7908,0.7444,0.7249,3.1173,3.0746,3.0093,2.9779,2.9779,2.9779,2.9779,2.9779,2.9779,2.9779,2.9754,2.934,2.8637,2.7795,2.7582,2.7281,2.6942,2.6917,2.6829,2.6653,2.6251,2.6211,2.6375,2.5517,2.5161,2.5355,2.4973,2.4808,2.4732,2.3992,2.3175,2.2472,2.2096,2.1744,2.1343,2.1079,2.0614,2.01,2.0037,1.9962,1.9773,1.9321,1.8834,1.8376,1.8339,1.8339,1.8351,1.8684,1.8881,1.8893,1.912,1.9092,1.8714,1.8939,1.8754,1.7967,1.7339,1.7063,1.7051,1.6524,1.6224,1.6212,1.6116,1.608,1.6164,1.6001,1.5771,1.5692,1.5372,1.5015,1.4523,1.4477,1.4466,1.4419,1.443,1.443,1.4373,1.4326,1.4269,1.4222,1.415,1.402,1.3821,1.3716,1.3668,1.3621,1.361,1.3563,1.3467,1.342,1.3372,1.3266,1.319,1.2926,1.2441,1.2153,1.1933,1.1679,1.1426,1.1252,1.1095,1.0652,1.0289,1.0004,0.9641,0.9395,0.9248,0.8999,0.8756,0.8634,0.8286,0.7945,0.7998,0.7525,0.7425,3.1373,3.121,3.0218,2.9804,2.9792,2.9792,2.9779,2.9779,2.9779,2.9779,2.9779,2.9741,2.9402,2.88,2.8335,2.8072,2.7996,2.7946,2.7695,2.7268,2.7193,2.6929,2.6483,2.5837,2.5598,2.5715,2.5272,2.4958,2.487,2.477,2.4732,2.4569,2.3552,2.3037,2.2774,2.1945,2.1192,2.0743,2.0643,2.0376,1.9911,1.9798,1.9723,1.9634,1.9647,1.9597,1.9622,1.9581,1.9503,1.9554,1.9448,1.9344,1.9371,1.9344,1.9267,1.9,1.8449,1.8097,1.8001,1.7544,1.7267,1.7243,1.6822,1.6739,1.7123,1.6775,1.6455,1.6303,1.6244,1.5788,1.5015,1.4764,1.4616,1.4419,1.4441,1.4463,1.443,1.4485,1.4384,1.4384,1.4233,1.4093,1.3858,1.381,1.3716,1.3668,1.361,1.3621,1.3573,1.3467,1.3409,1.3362,1.3314,1.317,1.2996,1.2673,1.2268,1.2115,1.1945,1.1681,1.1154,1.0709,1.0442,1.0117,0.9833,0.9554,0.9377,0.9199,0.8999,0.8844,0.8633,0.8383,0.8292,0.8189,0.8005,3.17,3.1298,3.0244,2.9993,3.0269,2.9942,2.9779,2.9779,2.9779,2.9779,2.9779,2.9779,2.9679,2.9465,2.9277,2.8787,2.816,2.8109,2.7996,2.7821,2.7808,2.7708,2.7519,2.7281,2.7005,2.6678,2.649,2.6013,2.536,2.531,2.5146,2.4833,2.4443,2.3879,2.3188,2.2761,2.2108,2.1255,2.0932,2.0727,2.0778,2.0175,1.9962,2.0313,1.9987,1.9798,1.9798,1.9747,1.9759,1.9708,1.9617,1.9512,1.9525,1.9473,1.938,1.9267,1.8814,1.8408,1.8285,1.786,1.7497,1.74,1.7255,1.7195,1.7339,1.7243,1.7075,1.7027,1.6979,1.6716,1.6218,1.5486,1.4834,1.4684,1.5023,1.509,1.4655,1.4777,1.496,1.4507,1.4269,1.4176,1.4046,1.3952,1.3868,1.3763,1.3716,1.3716,1.3621,1.3563,1.3515,1.3515,1.342,1.3324,1.3276,1.3014,1.2742,1.2694,1.2531,1.2194,1.1691,1.1151,1.079,1.0365,1.0031,0.9713,0.9536,0.9478,0.9279,0.8933,0.8721,0.8825,0.8594,0.8481,0.8331,3.1788,3.1097,3.0545,3.0419,3.0557,3.0218,2.9955,2.9804,2.9779,2.9779,2.9779,2.9779,2.9779,2.9779,2.9779,2.9415,2.8699,2.8662,2.8561,2.8373,2.8373,2.8285,2.8134,2.8109,2.7908,2.7544,2.7344,2.6779,2.5975,2.5875,2.5686,2.5372,2.5172,2.4707,2.3991,2.3615,2.2937,2.2083,2.1468,2.133,2.1368,2.0564,2.025,2.0567,2.01,1.9798,1.9798,1.9798,1.9798,1.9798,1.9708,1.9656,1.9656,1.9512,1.946,1.9423,1.9076,1.8829,1.8717,1.8361,1.8128,1.7967,1.781,1.7762,1.7869,1.7772,1.7688,1.7676,1.7664,1.7541,1.7096,1.6385,1.5695,1.5495,1.5852,1.5921,1.5269,1.5322,1.5082,1.4529,1.4316,1.4269,1.4222,1.414,1.4093,1.4082,1.3952,1.3858,1.4129,1.3847,1.3847,1.4025,1.3931,1.38,1.3847,1.3747,1.3263,1.313,1.2785,1.2459,1.2083,1.1537,1.1027,1.0574,1.0236,0.9946,0.9783,0.9725,0.9469,0.9133,0.9209,0.9379,0.9106,0.8803,0.8675,3.1625,3.0896,3.1173,3.1072,3.0771,3.0658,3.0306,2.9905,2.9854,2.9854,2.9804,2.9779,2.9779,2.9779,2.9779,2.9741,2.9654,2.9603,2.9377,2.8963,2.8938,2.8687,2.8285,2.8298,2.8235,2.8084,2.7544,2.703,2.6634,2.6496,2.6433,2.6395,2.5837,2.5473,2.5485,2.4431,2.369,2.3012,2.2422,2.1995,2.1518,2.0991,2.069,2.0665,2.0175,1.9849,1.9811,1.9798,1.9798,1.9798,1.9798,1.9798,1.9747,1.9656,1.9617,1.9617,1.9488,1.9396,1.9384,1.931,1.9196,1.9004,1.8675,1.8527,1.869,1.8446,1.8205,1.8205,1.8193,1.8037,1.7591,1.7423,1.712,1.6787,1.6703,1.6726,1.6451,1.5958,1.5266,1.4642,1.4507,1.4337,1.428,1.4269,1.4362,1.449,1.4408,1.4362,1.4858,1.4444,1.4398,1.4766,1.472,1.4398,1.4501,1.4593,1.3999,1.3484,1.3011,1.2589,1.2196,1.1666,1.1287,1.0884,1.0597,1.0322,1.0205,1.0147,1.0069,0.9845,0.9963,0.9935,0.9696,0.9403,0.9168,3.2252,3.2215,3.1625,3.1537,3.1637,3.1323,3.0846,3.0394,3.0369,3.0143,2.9842,2.9779,2.9779,2.9792,2.9779,2.9792,2.9779,2.9779,2.9691,2.9528,2.9515,2.9415,2.9264,2.9239,2.9051,2.8574,2.772,2.7406,2.7406,2.6898,2.6628,2.6841,2.6465,2.5787,2.5172,2.4707,2.413,2.3128,2.2585,2.2385,2.2485,2.1707,2.123,2.1167,2.069,2.0225,1.9836,1.9798,1.9798,1.9798,1.9798,1.9798,1.9798,1.9747,1.9759,1.9759,1.9708,1.9604,1.9565,1.9512,1.946,1.9344,1.9092,1.904,1.9109,1.8895,1.8722,1.8734,1.8746,1.8638,1.8542,1.8506,1.804,1.7126,1.7438,1.7384,1.6854,1.6486,1.5969,1.5311,1.5163,1.4923,1.4554,1.4558,1.4903,1.4937,1.4983,1.5152,1.4983,1.4983,1.4755,1.4892,1.4858,1.504,1.5073,1.513,1.4823,1.4209,1.3557,1.2941,1.2457,1.188,1.1481,1.1229,1.094,1.0764,1.0649,1.0611,1.0611,1.0495,1.0427,1.0379,1.0253,0.9999,0.9643,3.2629,3.2692,3.2227,3.2077,3.219,3.1825,3.1399,3.0947,3.0909,3.0708,3.0407,3.0181,3.0105,3.0055,2.9892,2.9869,2.9869,2.9869,2.9869,2.9934,2.9869,2.9792,2.9779,2.9779,2.949,2.8925,2.8235,2.7959,2.8034,2.7256,2.7042,2.7406,2.6841,2.6276,2.5661,2.5096,2.4406,2.374,2.3037,2.2786,2.2887,2.2259,2.1794,2.1694,2.1054,2.0501,2.0137,1.9924,1.9798,1.9798,1.9798,1.9798,1.9798,1.9798,1.9798,1.9798,1.9798,1.9747,1.9656,1.9656,1.9604,1.946,1.9368,1.9328,1.9275,1.917,1.9158,1.9076,1.904,1.904,1.8975,1.8987,1.861,1.793,1.8199,1.8037,1.7319,1.7089,1.6769,1.6192,1.6081,1.5782,1.5439,1.5453,1.569,1.565,1.5599,1.5864,1.5543,1.5555,1.5421,1.5377,1.5555,1.5644,1.5599,1.5611,1.5591,1.4987,1.4268,1.355,1.2951,1.2142,1.16,1.1561,1.1367,1.1282,1.1207,1.133,1.1319,1.1142,1.0916,1.0905,1.0812,1.0211,0.9884,3.2754,3.2353,3.2842,3.2729,3.2328,3.2265,3.1951,3.1486,3.1436,3.1386,3.1223,3.0914,3.0687,3.0495,3.0184,3.0047,3.0088,2.9934,3.0011,3.0152,3.0088,2.9869,2.9934,2.9934,2.9592,2.9101,2.8963,2.8724,2.8434,2.7754,2.7679,2.8069,2.7301,2.6798,2.671,2.5624,2.4921,2.4556,2.369,2.3165,2.3213,2.2661,2.2297,2.2234,2.1393,2.084,2.0718,2.0225,1.9874,1.9811,1.9798,1.9798,1.9798,1.9798,1.9798,1.9798,1.9798,1.9798,1.9798,1.9798,1.9759,1.9604,1.9617,1.9577,1.9433,1.938,1.9316,1.9223,1.9223,1.917,1.9093,1.9052,1.8992,1.8975,1.8919,1.8622,1.8017,1.7922,1.7674,1.7135,1.7118,1.7183,1.6574,1.6733,1.6757,1.666,1.63,1.6398,1.6484,1.6355,1.6269,1.6225,1.6182,1.6225,1.6182,1.6194,1.6163,1.5763,1.5029,1.431,1.3489,1.2628,1.2008,1.1966,1.1884,1.1799,1.1799,1.1847,1.1774,1.1516,1.1442,1.1527,1.1224,1.0683,1.0392,3.2993,3.2867,3.3018,3.2993,3.2855,3.2855,3.2516,3.2039,3.2167,3.1953,3.1518,3.1665,3.1334,3.0833,3.0681,3.0481,3.0305,3.0075,3.0152,3.0368,3.0305,3.0228,3.0228,3.0228,3.0075,2.9796,2.9466,2.9452,2.9454,2.8543,2.8477,2.9033,2.8116,2.741,2.6985,2.6375,2.5706,2.5026,2.4217,2.3778,2.369,2.3213,2.2723,2.2309,2.2008,2.1644,2.1335,2.0727,2.0213,1.9836,1.9798,1.9798,1.9798,1.9798,1.9798,1.9798,1.9798,1.9798,1.9798,1.9798,1.9798,1.9747,1.9759,1.9695,1.9567,1.9448,1.9371,1.9347,1.9371,1.9368,1.9303,1.9316,1.9316,1.9223,1.9368,1.9282,1.8887,1.9175,1.9169,1.8286,1.8413,1.8226,1.7696,1.753,1.7486,1.7375,1.7136,1.6863,1.6892,1.6976,1.6795,1.6595,1.6552,1.6723,1.6778,1.6778,1.668,1.6434,1.5852,1.5187,1.4262,1.3323,1.2818,1.2544,1.2401,1.2282,1.2258,1.2258,1.2077,1.1884,1.192,1.192,1.1689,1.1278,1.112,3.342,3.3395,3.3255,3.3167,3.3068,3.3154,3.3038,3.2773,3.2819,3.2612,3.213,3.2056,3.166,3.107,3.0802,3.0624,3.047,3.0305,3.0381,3.0596,3.0672,3.052,3.0444,3.0368,3.0292,3.0203,2.996,2.9998,3.0012,2.9298,2.9321,2.9551,2.8855,2.8244,2.8081,2.7105,2.6515,2.5855,2.5027,2.452,2.4419,2.3963,2.3583,2.3056,2.274,2.223,2.1617,2.1116,2.0547,1.9988,1.9798,1.9798,1.9798,1.9798,1.9798,1.9798,1.9798,1.9798,1.9798,1.9798,1.9798,1.9798,1.9798,1.9786,1.9773,1.9798,1.9876,1.9515,1.9876,2.0003,1.9862,1.9914,1.9965,1.9914,2.0055,2.0016,1.9344,1.9734,1.9813,1.951,1.9471,1.9423,1.8503,1.8403,1.8135,1.7804,1.7508,1.728,1.7131,1.7227,1.7227,1.7031,1.6905,1.7044,1.6989,1.6947,1.6918,1.6714,1.6319,1.5705,1.4828,1.3827,1.3238,1.2862,1.2815,1.2768,1.2627,1.2556,1.2473,1.2365,1.2365,1.2282,1.209,1.189,1.1733,3.3897,3.3935,3.3553,3.3326,3.3154,3.3326,3.3373,3.3471,3.3433,3.3263,3.2969,3.25,3.2012,3.1265,3.0971,3.0623,3.0698,3.052,3.0685,3.0836,3.0911,3.0823,3.0508,3.0508,3.052,3.0444,3.0444,3.0419,3.0329,2.983,2.9969,3.0098,2.9417,2.9151,2.9057,2.8023,2.7293,2.6938,2.605,2.5461,2.5205,2.4733,2.4389,2.4175,2.3471,2.2694,2.2056,2.1482,2.0947,2.0001,1.9913,1.9811,1.9798,1.9798,1.9798,1.9798,1.9798,1.985,1.9901,1.9901,1.994,2.0042,2.0055,1.9965,2.0118,2.0422,2.0446,2.0016,2.0683,2.0733,2.0534,2.0733,2.0795,2.0646,2.0944,2.0696,2.0156,2.0118,2.0321,2.0271,2.0597,2.0254,1.9628,1.9234,1.9091,1.8182,1.7837,1.75,1.7393,1.7393,1.7406,1.7337,1.7295,1.7308,1.7212,1.7115,1.7031,1.6896,1.6486,1.5904,1.5146,1.4248,1.349,1.3074,1.306,1.2978,1.2803,1.2768,1.2826,1.2791,1.2779,1.2708,1.2626,1.24,1.2253,3.4161,3.421,3.3811,3.3569,3.3398,3.3569,3.3641,3.3641,3.3823,3.372,3.3515,3.3286,3.2797,3.2042,3.1435,3.1176,3.0875,3.0761,3.0773,3.0986,3.0986,3.0986,3.0898,3.0898,3.0761,3.0685,3.0836,3.0761,3.062,3.048,3.0543,3.0706,3.0299,2.998,2.9813,2.9258,2.8556,2.7855,2.7095,2.6422,2.5973,2.5473,2.5203,2.5012,2.4506,2.3649,2.2795,2.2488,2.1988,2.1219,2.0488,2.0131,1.9938,1.9875,1.9901,1.9901,1.9901,2.0003,2.0258,2.0156,2.0181,2.0832,2.0746,2.0749,2.1053,2.1144,2.1135,2.1032,2.1218,2.1369,2.1224,2.114,2.1237,2.1237,2.1348,2.1444,2.1202,2.1131,2.097,2.0871,2.0993,2.0994,2.0234,1.9782,1.9358,1.864,1.8138,1.7746,1.7651,1.7665,1.7529,1.7502,1.7474,1.7432,1.7378,1.7282,1.724,1.7227,1.6862,1.6494,1.5721,1.4883,1.4185,1.3671,1.3323,1.3207,1.316,1.3297,1.3467,1.3297,1.316,1.316,1.311,1.2901,1.2872,3.52,3.5124,3.4568,3.4123,3.3926,3.3926,3.3907,3.3907,3.3992,3.3933,3.3674,3.361,3.3036,3.215,3.1798,3.1446,3.1091,3.0911,3.0911,3.0986,3.0986,3.0986,3.1123,3.1334,3.1334,3.0999,3.0911,3.0911,3.0836,3.0836,3.0885,3.0986,3.0823,3.0641,3.0416,3.006,2.9507,2.9048,2.8425,2.7786,2.7095,2.6594,2.6216,2.6021,2.5695,2.5204,2.4694,2.4079,2.3554,2.2804,2.1938,2.1054,2.0578,2.0501,2.0409,2.0258,2.0434,2.0633,2.0795,2.0782,2.0832,2.1369,2.1224,2.1277,2.1429,2.1616,2.1609,2.1588,2.1758,2.2109,2.2109,2.2063,2.1969,2.1874,2.1983,2.203,2.1888,2.1698,2.1506,2.1361,2.1458,2.1131,2.0683,2.0325,1.9912,1.9312,1.8682,1.8287,1.8139,1.807,1.7719,1.7638,1.7597,1.7515,1.7461,1.7447,1.7488,1.7489,1.7424,1.7205,1.6794,1.5918,1.5048,1.4541,1.4046,1.3789,1.3729,1.3907,1.3934,1.3756,1.3656,1.3656,1.363,1.3485,1.3552,3.647,3.6315,3.5518,3.4964,3.4723,3.4593,3.4551,3.4397,3.4314,3.4423,3.407,3.3964,3.3463,3.2656,3.2349,3.1876,3.1527,3.1394,3.1616,3.1542,3.1616,3.1723,3.1864,3.2258,3.2413,3.1633,3.1413,3.1286,3.1259,3.1185,3.1259,3.1185,3.1185,3.1355,3.1175,3.075,3.0527,3.0379,3.005,2.9369,2.8635,2.8146,2.7816,2.7176,2.7041,2.6872,2.6384,2.573,2.5126,2.4813,2.3895,2.2787,2.1954,2.1435,2.1286,2.0795,2.1113,2.1355,2.1431,2.1431,2.1417,2.1561,2.1513,2.1623,2.1779,2.203,2.2063,2.2109,2.231,2.2737,2.2902,2.2752,2.2706,2.2646,2.2615,2.2509,2.231,2.2091,2.1949,2.1841,2.1766,2.1531,2.1112,2.0712,2.0333,1.9973,1.9382,1.8917,1.878,1.8507,1.818,1.795,1.7963,1.8003,1.7962,1.7747,1.7787,1.7961,1.7999,1.7998,1.7754,1.7029,1.6179,1.5351,1.4859,1.4474,1.4283,1.4374,1.4356,1.4181,1.413,1.4163,1.4144,1.4078,1.4124,3.7451,3.6943,3.6431,3.5854,3.5412,3.6056,3.5963,3.5507,3.54,3.5762,3.6032,3.5148,3.4886,3.4803,3.4154,3.3487,3.2952,3.2742,3.2759,3.28,3.2828,3.2994,3.3439,3.3698,3.398,3.39,3.3033,3.2177,3.2009,3.1942,3.2023,3.1969,3.1955,3.216,3.2362,3.2167,3.1796,3.1804,3.1682,3.1115,3.0287,2.9813,2.9414,2.8573,2.8446,2.8165,2.764,2.699,2.6455,2.6329,2.5593,2.4563,2.3483,2.2428,2.1808,2.1547,2.1629,2.188,2.2063,2.1827,2.2016,2.2356,2.2263,2.2263,2.2509,2.2692,2.2601,2.2646,2.2692,2.2888,2.2888,2.2888,2.2888,2.2843,2.2797,2.2783,2.2692,2.2555,2.231,2.2231,2.2128,2.1965,2.1569,2.1244,2.1035,2.0667,2.0194,1.9763,1.9513,1.9126,1.8616,1.8467,1.8357,1.8458,1.8511,1.8238,1.8145,1.8549,1.8674,1.8878,1.8593,1.811,1.7382,1.6531,1.557,1.485,1.4783,1.4873,1.4766,1.4596,1.4655,1.4669,1.4574,1.4465,1.4465,3.8666,3.8322,3.751,3.6945,3.6629,3.6772,3.6646,3.6304,3.5963,3.6045,3.6116,3.5711,3.5224,3.5134,3.5339,3.4832,3.4297,3.386,3.3959,3.4156,3.4269,3.4353,3.4794,3.5039,3.5182,3.5111,3.4512,3.38,3.3232,3.3204,3.301,3.269,3.2648,3.2875,3.3073,3.2834,3.2779,3.2861,3.2776,3.2396,3.149,3.124,3.063,3.0276,2.9782,2.9493,2.9216,2.8618,2.8053,2.7671,2.7026,2.6199,2.5197,2.4269,2.3155,2.2405,2.2402,2.2558,2.2737,2.254,2.2632,2.2963,2.2752,2.2706,2.2902,2.2947,2.2933,2.2888,2.2888,2.2888,2.2888,2.2888,2.2888,2.2888,2.2888,2.2888,2.2888,2.2783,2.2646,2.2523,2.2449,2.2285,2.202,2.1795,2.1699,2.1372,2.0915,2.0606,2.0311,1.9697,1.9127,1.8712,1.8607,1.8758,1.8869,1.8779,1.8688,1.9043,1.9281,1.9442,1.9334,1.8774,1.8332,1.78,1.6749,1.5498,1.5209,1.5284,1.5149,1.5058,1.5011,1.498,1.4918,1.4887,1.4842,3.9786,3.9575,3.846,3.8017,3.7833,3.7599,3.7357,3.7105,3.6646,3.6538,3.6514,3.6297,3.5744,3.538,3.5839,3.6053,3.5596,3.5053,3.5239,3.5569,3.5669,3.5669,3.5842,3.6128,3.6394,3.6365,3.6383,3.5811,3.4314,3.4257,3.403,3.3578,3.3422,3.3575,3.3713,3.3561,3.3492,3.3644,3.363,3.34,3.2792,3.2246,3.1831,3.1699,3.1188,3.0854,3.0503,2.9922,2.9337,2.8755,2.8106,2.7375,2.6662,2.6078,2.4946,2.3545,2.3583,2.3659,2.3466,2.3451,2.3405,2.3555,2.32,2.3097,2.3082,2.3068,2.3008,2.2978,2.2978,2.2978,2.2978,2.2978,2.2933,2.2888,2.2947,2.2947,2.2888,2.2888,2.2843,2.2752,2.2706,2.2572,2.2381,2.2366,2.2255,2.2167,2.1764,2.1561,2.1163,2.0232,1.9585,1.9013,1.8812,1.9003,1.9184,1.9332,1.9354,1.966,1.9732,1.9818,1.9662,1.9353,1.8948,1.8452,1.7505,1.6411,1.6055,1.564,1.5403,1.5299,1.5298,1.5314,1.5315,1.5285,1.5255,4.0524,3.9946,3.9159,3.8568,3.8272,3.8767,3.8634,3.8098,3.7878,3.8384,3.8457,3.7653,3.7259,3.7497,3.7064,3.7089,3.7089,3.6857,3.6832,3.7043,3.7128,3.7128,3.7119,3.7183,3.7511,3.7515,3.7868,3.6586,3.5209,3.5071,3.4868,3.4322,3.4259,3.4476,3.4802,3.4423,3.4543,3.5082,3.5148,3.4836,3.4184,3.3505,3.2972,3.2586,3.2213,3.1898,3.1375,3.0776,3.0118,2.949,2.8831,2.7874,2.6856,2.6557,2.6108,2.5521,2.5222,2.4982,2.4384,2.4266,2.4266,2.4087,2.3643,2.3378,2.3231,2.3231,2.3187,2.3275,2.3231,2.3187,2.3112,2.3142,2.3112,2.3082,2.3037,2.2992,2.2933,2.3008,2.2978,2.2933,2.2888,2.2843,2.2754,2.2828,2.2828,2.2709,2.2606,2.2343,2.1871,2.0882,2.0056,1.9453,1.9155,1.9354,1.9624,1.9747,1.9869,2.015,2.0131,2.0131,1.9947,1.9718,1.9345,1.8743,1.7925,1.7346,1.6952,1.6456,1.5832,1.5566,1.5595,1.5696,1.5781,1.5724,1.5652,4.1396,4.0701,3.9682,3.9121,3.8914,3.9265,3.9192,3.8884,3.8471,3.8246,3.8217,3.7623,3.7723,3.8063,3.703,3.721,3.8063,3.7793,3.7898,3.8407,3.8482,3.8497,3.8396,3.8167,3.8197,3.8272,3.8242,3.7401,3.6221,3.6005,3.602,3.509,3.4986,3.5067,3.5504,3.5148,3.5198,3.5359,3.5474,3.5355,3.4966,3.4427,3.3903,3.3589,3.2916,3.2437,3.2003,3.145,3.0776,3.0133,2.949,2.8742,2.7874,2.7365,2.6841,2.6288,2.6542,2.6165,2.5235,2.5086,2.4995,2.4847,2.431,2.3732,2.3408,2.3304,2.3304,2.326,2.326,2.3275,2.3246,2.3275,2.3231,2.3187,2.3157,2.3157,2.3112,2.3142,2.3142,2.3098,2.3053,2.3068,2.3068,2.3112,2.3068,2.2873,2.2832,2.2747,2.2146,2.123,2.0495,1.9867,1.9717,1.9737,2.0015,2.0239,2.0185,2.0388,2.035,2.03,2.0239,1.9989,1.9676,1.9428,1.8888,1.8364,1.7919,1.715,1.6412,1.6124,1.5924,1.605,1.6157,1.6172,1.613,4.1983,4.1265,4.0127,3.9574,3.9424,3.9424,3.9424,3.9349,3.8916,3.8407,3.7913,3.759,3.7719,3.7808,3.6926,3.727,3.8945,3.8257,3.8571,3.9155,3.9394,3.9215,3.8856,3.8527,3.8347,3.8392,3.8377,3.7868,3.7419,3.7022,3.6619,3.5564,3.5359,3.5439,3.5504,3.5424,3.5424,3.5489,3.5489,3.5474,3.5355,3.4996,3.4666,3.4218,3.3574,3.2856,3.2482,3.2093,3.1465,3.0507,3.0073,2.946,2.8801,2.8368,2.7859,2.7425,2.756,2.726,2.6404,2.5971,2.5774,2.5506,2.4938,2.4148,2.3792,2.357,2.3392,2.3392,2.3392,2.3392,2.3363,2.3363,2.3304,2.3319,2.3319,2.3319,2.3334,2.3319,2.3319,2.3231,2.3231,2.3275,2.3275,2.3348,2.326,2.3008,2.2981,2.3078,2.2514,2.1732,2.1113,2.0569,2.0452,2.0375,2.0419,2.0639,2.0624,2.0668,2.0646,2.055,2.0469,2.0373,2.015,1.9882,1.9667,1.9412,1.895,1.7961,1.701,1.6761,1.6524,1.6468,1.6523,1.6565,1.6628,4.1983,4.1324,4.0636,3.9978,3.9424,3.9424,3.9424,3.9424,3.9349,3.9215,3.8826,3.8033,3.7479,3.7464,3.7434,3.7614,3.8542,3.9035,3.9215,3.932,3.9379,3.9125,3.8811,3.8556,3.8422,3.8467,3.8422,3.8317,3.8108,3.7584,3.6776,3.5684,3.5609,3.5534,3.5489,3.5489,3.5489,3.5489,3.5489,3.5489,3.5489,3.5325,3.51,3.4637,3.4307,3.3799,3.2632,3.2422,3.1943,3.0806,3.0447,3.0133,2.9564,2.9131,2.8622,2.8323,2.8083,2.7784,2.7215,2.6737,2.6527,2.6168,2.5523,2.473,2.4477,2.3925,2.3671,2.3701,2.3702,2.3598,2.3539,2.3538,2.348,2.3436,2.3436,2.3538,2.3494,2.3494,2.3451,2.3392,2.348,2.3638,2.3681,2.3752,2.3595,2.3334,2.3535,2.3591,2.3147,2.2463,2.192,2.1455,2.1286,2.114,2.096,2.109,2.1415,2.1349,2.1217,2.0949,2.0696,2.06,2.0527,2.0431,2.0231,2.0129,1.9925,1.9021,1.82,1.7506,1.7168,1.7125,1.7048,1.7018,1.7101,4.2207,4.1938,4.128,4.0397,3.9424,3.9424,3.9424,3.9424,3.9424,3.9155,3.8751,3.7868,3.7644,3.7808,3.7614,3.8018,3.8856,3.8766,3.9095,3.9334,3.9364,3.9245,3.8931,3.8691,3.8586,3.8811,3.8646,3.8377,3.8302,3.8063,3.7569,3.6761,3.5983,3.5564,3.5489,3.5519,3.5489,3.5489,3.5489,3.5489,3.5489,3.5489,3.537,3.516,3.4592,3.4307,3.3679,3.2886,3.2302,3.1674,3.0971,3.0522,3.0103,2.9564,2.9109,2.8667,2.8434,2.8015,2.773,2.734,2.7051,2.6572,2.6093,2.5644,2.527,2.4911,2.4582,2.4418,2.4208,2.4119,2.3641,2.3581,2.3551,2.3508,2.3566,2.3653,2.3754,2.3754,2.3824,2.3852,2.4048,2.4256,2.4241,2.4241,2.3964,2.3752,2.3971,2.4076,2.3616,2.3327,2.2813,2.2346,2.218,2.2097,2.1881,2.2055,2.2303,2.2047,2.1792,2.1506,2.1224,2.0906,2.0828,2.0811,2.0861,2.0814,2.0566,2.0007,1.9325,1.8518,1.8022,1.7738,1.7658,1.7524,1.7519,4.2357,4.2329,4.1444,4.0561,3.9753,3.9709,3.9604,3.9439,3.9424,3.9185,3.8646,3.8048,3.7928,3.8153,3.8003,3.8108,3.8811,3.8901,3.908,3.9275,3.9424,3.9424,3.9245,3.908,3.8975,3.923,3.9035,3.8736,3.8766,3.8512,3.8078,3.7434,3.6656,3.6178,3.5789,3.5579,3.5504,3.5489,3.5489,3.5489,3.5489,3.5489,3.5489,3.5429,3.504,3.4666,3.4382,3.3814,3.3185,3.2437,3.1747,3.1177,3.0668,3.0098,2.9462,2.8967,2.8509,2.8075,2.773,2.7565,2.7365,2.7006,2.6632,2.6288,2.6033,2.5749,2.5211,2.5016,2.4866,2.4702,2.4148,2.4163,2.4059,2.4029,2.3626,2.3653,2.4009,2.4135,2.4245,2.4354,2.4583,2.4847,2.4728,2.4688,2.4648,2.442,2.4486,2.4532,2.4189,2.3962,2.3851,2.3406,2.3084,2.2964,2.2916,2.3022,2.3033,2.2686,2.2429,2.2177,2.1866,2.1532,2.1199,2.1071,2.115,2.1415,2.1332,2.1043,2.0312,1.9479,1.8917,1.8302,1.807,1.7916,1.7771,4.2372,4.2269,4.101,4.0457,4.0427,4.0367,3.9993,3.9544,3.9439,3.9379,3.9215,3.8631,3.8392,3.8467,3.8407,3.8571,3.8736,3.9125,3.9364,3.9394,3.9424,3.9424,3.9409,3.9334,3.926,3.9379,3.9275,3.9215,3.9305,3.8826,3.8467,3.8227,3.7599,3.6956,3.6462,3.5804,3.5519,3.5519,3.5549,3.5489,3.5554,3.5554,3.5554,3.5509,3.5449,3.5183,3.4805,3.476,3.407,3.3126,3.2556,3.2103,3.1709,3.1423,3.0784,2.9985,2.9621,2.8922,2.8017,2.775,2.755,2.743,2.7055,2.6771,2.6482,2.6138,2.5764,2.5659,2.557,2.5555,2.5285,2.4986,2.4762,2.4596,2.4264,2.4204,2.4585,2.4574,2.4704,2.4863,2.516,2.5389,2.5253,2.5176,2.5269,2.5192,2.513,2.4936,2.4729,2.4648,2.4574,2.4425,2.4051,2.3951,2.3893,2.3856,2.3733,2.337,2.3142,2.3008,2.2703,2.2377,2.1988,2.1503,2.1584,2.1924,2.2113,2.2186,2.1421,2.0625,1.9453,1.8778,1.8545,1.8306,1.8114,4.2611,4.288,4.1609,4.1309,4.1474,4.0262,3.9843,3.9963,3.9649,3.9424,3.9394,3.9125,3.9065,3.9065,3.9035,3.9035,3.911,3.917,3.9424,3.9424,3.9424,3.9424,3.9424,3.9424,3.9424,3.9424,3.9424,3.9424,3.9394,3.908,3.908,3.8916,3.8287,3.7719,3.6956,3.6222,3.5654,3.5983,3.5804,3.5554,3.5589,3.5653,3.5653,3.5653,3.5733,3.5582,3.5232,3.5292,3.4645,3.3894,3.3457,3.2777,3.2352,3.2061,3.1167,3.0555,3.0219,2.9493,2.8697,2.8253,2.7806,2.7665,2.748,2.7285,2.7235,2.718,2.6834,2.6426,2.6354,2.6141,2.56,2.5819,2.5802,2.5768,2.5605,2.5623,2.5743,2.536,2.5237,2.5406,2.5631,2.5811,2.5791,2.5663,2.5663,2.568,2.5621,2.5492,2.5281,2.526,2.5255,2.5239,2.5056,2.4938,2.4847,2.467,2.4686,2.4574,2.4309,2.4126,2.3764,2.3293,2.2813,2.2413,2.2404,2.2436,2.2409,2.2392,2.2412,2.1746,2.0489,1.9495,1.9178,1.8774,1.8308,4.2746,4.3135,4.1683,4.1713,4.2327,4.0831,4.0367,4.0591,4.0053,3.9753,3.9723,3.9544,3.9409,3.9409,3.9424,3.9424,3.9424,3.9424,3.9424,3.9424,3.9424,3.9424,3.9424,3.9424,3.9424,3.9424,3.9424,3.9424,3.9424,3.9424,3.9379,3.9257,3.8822,3.8517,3.7811,3.7023,3.6058,3.6207,3.5893,3.5554,3.5638,3.5688,3.5752,3.5831,3.5831,3.5864,3.5695,3.5422,3.5107,3.4789,3.4213,3.3334,3.292,3.2383,3.1546,3.1158,3.0449,2.9885,2.931,2.8955,2.861,2.8233,2.8022,2.7855,2.779,2.7705,2.7504,2.7263,2.7161,2.7016,2.6761,2.701,2.6969,2.6992,2.6614,2.6615,2.6467,2.6075,2.5696,2.586,2.5901,2.6115,2.6203,2.6187,2.6099,2.6079,2.6059,2.5934,2.5807,2.577,2.5717,2.5663,2.5647,2.5464,2.5341,2.5277,2.54,2.5668,2.5455,2.5102,2.4646,2.4145,2.3703,2.322,2.2903,2.264,2.2535,2.2527,2.2563,2.222,2.1381,2.0543,1.9918,1.9389,1.8883,4.2746,4.3,4.125,4.1624,4.2895,4.1863,4.1369,4.128,4.0606,4.0307,4.0337,3.9664,3.9424,3.9424,3.9424,3.9424,3.9424,3.9424,3.9424,3.9424,3.9424,3.9424,3.9424,3.9424,3.9424,3.9424,3.9424,3.9424,3.9424,3.9424,3.9481,3.9505,3.9083,3.9094,3.8647,3.7895,3.6925,3.6633,3.622,3.5879,3.5876,3.5816,3.5894,3.5958,3.5958,3.5973,3.5976,3.5885,3.5658,3.5354,3.5003,3.4271,3.3704,3.323,3.2456,3.1636,3.0715,3.0341,3.0112,2.9852,2.9593,2.9235,2.8679,2.8271,2.8088,2.8122,2.8015,2.8018,2.8023,2.8229,2.8325,2.8306,2.8236,2.7828,2.7272,2.7154,2.7087,2.6742,2.6286,2.6178,2.6201,2.6291,2.6274,2.6293,2.6329,2.6293,2.6239,2.6203,2.6079,2.6059,2.6007,2.5917,2.5864,2.5807,2.577,2.5733,2.5864,2.603,2.6142,2.5881,2.5429,2.5048,2.4607,2.4053,2.3237,2.2824,2.2712,2.2694,2.2747,2.2322,2.2017,2.1555,2.0932,2.0219,1.9732,4.2746,4.3195,4.2222,4.2387,4.312,4.2432,4.1833,4.128,4.0232,3.9918,4.0367,3.9709,3.9439,3.9424,3.9424,3.9424,3.9424,3.9424,3.9424,3.9424,3.9424,3.9424,3.9424,3.9424,3.9424,3.9424,3.9424,3.9424,3.9424,3.9424,3.9568,3.9621,3.9496,3.9703,3.94,3.878,3.8077,3.736,3.6839,3.639,3.6125,3.6098,3.6131,3.6163,3.6226,3.6226,3.6148,3.6211,3.6012,3.6075,3.5447,3.4788,3.4263,3.3648,3.2906,3.2213,3.1497,3.1036,3.0966,3.0853,3.0712,3.0537,3.0196,2.9407,2.8951,2.8636,2.8684,2.8669,2.8748,2.8873,2.9088,2.9179,2.9259,2.9072,2.8551,2.8366,2.8218,2.7616,2.7175,2.6759,2.6764,2.6397,2.6364,2.6399,2.6399,2.6415,2.638,2.6345,2.631,2.6239,2.6203,2.6099,2.6079,2.6007,2.6079,2.6099,2.6241,2.6365,2.6488,2.6606,2.6444,2.6048,2.5559,2.4646,2.3466,2.3024,2.2868,2.2876,2.2927,2.3084,2.2835,2.2417,2.1914,2.1242,2.0751,4.2581,4.2836,4.2252,4.2207,4.2462,4.2132,4.1848,4.1504,4.0382,4.0068,4.0292,3.9694,3.9424,3.9424,3.9424,3.9424,3.9424,3.9424,3.9424,3.9424,3.9424,3.9424,3.9424,3.9424,3.9424,3.9424,3.9424,3.9424,3.9496,3.964,3.9783,3.991,3.991,3.9996,3.9899,3.9619,3.9146,3.8356,3.7704,3.7166,3.6774,3.6532,3.6534,3.6367,3.6492,3.6414,3.6336,3.6336,3.6414,3.6538,3.5953,3.5658,3.5019,3.4156,3.341,3.278,3.2407,3.23,3.2368,3.2085,3.1948,3.1903,3.1857,3.1381,3.0419,2.9902,2.951,2.9212,2.9332,2.9451,2.9673,2.9935,3.0192,3.0369,3.0092,2.9805,2.9273,2.8632,2.8095,2.7576,2.714,2.6671,2.652,2.652,2.652,2.6485,2.645,2.645,2.6364,2.6329,2.6293,2.6206,2.6222,2.6203,2.6293,2.6452,2.6607,2.6775,2.6956,2.708,2.7195,2.6422,2.5377,2.4435,2.3484,2.3171,2.297,2.3052,2.3109,2.3301,2.3486,2.3245,2.2855,2.2329,2.1945,4.2237,4.2252,4.1624,4.1459,4.1384,4.1354,4.1594,4.2028,4.0726,4.0397,4.0352,3.9738,3.9424,3.9424,3.9424,3.9424,3.9424,3.9424,3.9424,3.9424,3.9424,3.9424,3.9424,3.9424,3.9424,3.9409,3.9481,3.9553,3.9696,3.9854,3.9996,4.0277,4.0277,4.0277,4.0231,4.0309,3.9841,3.9314,3.8559,3.7872,3.7296,3.7116,3.6932,3.6537,3.6492,3.6492,3.66,3.66,3.6554,3.6785,3.6904,3.6754,3.5891,3.4776,3.402,3.3551,3.3319,3.328,3.3393,3.3225,3.3145,3.3219,3.3311,3.3017,3.2205,3.0875,3.0275,3.002,3.0108,3.0,3.0123,3.0435,3.074,3.0771,3.0566,3.0398,3.0111,2.9471,2.8777,2.8188,2.7515,2.7077,2.6858,2.6909,2.6606,2.6537,2.6537,2.6537,2.6468,2.6382,2.6382,2.633,2.6329,2.6399,2.6607,2.6758,2.6956,2.7166,2.7386,2.7539,2.7643,2.6483,2.498,2.4357,2.3815,2.3307,2.3095,2.3182,2.333,2.3531,2.3728,2.3937,2.3689,2.3177,2.3068,4.116,4.1594,4.1444,4.1384,4.1309,4.0831,4.0741,4.0786,4.0023,4.0232,4.0786,3.9993,3.9424,3.9424,3.9424,3.9424,3.9424,3.9424,3.9424,3.9424,3.9424,3.9496,3.9496,3.9568,3.9553,3.9481,3.9553,3.9696,3.9768,3.9925,4.0066,4.0277,4.0347,4.0347,4.047,4.0524,4.0339,3.9956,3.9339,3.8442,3.7692,3.703,3.6584,3.6492,3.6492,3.6785,3.6892,3.7118,3.7178,3.7298,3.778,3.7568,3.691,3.5685,3.5013,3.4659,3.4207,3.4115,3.4071,3.4153,3.4167,3.4239,3.4275,3.4196,3.347,3.2038,3.1176,3.1054,3.0823,3.0634,3.0559,3.0878,3.1134,3.105,3.0965,3.0898,3.0869,3.0154,2.9407,2.8716,2.7973,2.7568,2.7349,2.7062,2.6775,2.6674,2.6674,2.664,2.6606,2.6537,2.6555,2.6521,2.6468,2.6572,2.6825,2.7068,2.7307,2.7552,2.776,2.795,2.8027,2.6819,2.5499,2.4848,2.4286,2.3675,2.3295,2.3323,2.3482,2.3608,2.3757,2.3915,2.41,2.3785,2.3897,4.0606,4.092,4.095,4.0935,4.0876,4.0546,4.0412,4.0337,4.0008,4.0247,4.0741,3.9948,3.9424,3.9424,3.9424,3.9424,3.9424,3.9424,3.9496,3.9496,3.9568,3.964,3.9711,3.9783,3.9783,3.9696,3.9839,3.998,3.998,4.0121,4.0347,4.0401,4.0401,4.0401,4.0524,4.0715,4.0768,4.0478,3.9854,3.9118,3.8183,3.7529,3.68,3.6661,3.66,3.6892,3.7178,3.7401,3.7578,3.7738,3.8108,3.8127,3.7595,3.7003,3.6217,3.5643,3.5136,3.4808,3.4757,3.4785,3.4911,3.4961,3.5048,3.4918,3.48,3.345,3.2428,3.2177,3.1708,3.1482,3.0996,3.1095,3.1151,3.114,3.1106,3.1089,3.0852,3.0412,2.9901,2.9529,2.8668,2.7739,2.7468,2.7029,2.6776,2.6725,2.6708,2.6759,2.6708,2.6759,2.6759,2.6775,2.6775,2.6989,2.7365,2.7517,2.7642,2.7876,2.8101,2.7869,2.7683,2.6952,2.6124,2.5329,2.4566,2.3832,2.3571,2.352,2.3327,2.3306,2.3529,2.3781,2.396,2.3957,2.37,4.0322,4.0397,4.0322,4.0337,4.0382,4.0292,4.0307,4.0367,4.0292,4.0292,4.0367,3.9753,3.9469,3.9424,3.9424,3.9424,3.9424,3.9424,3.9496,3.9625,3.9681,3.9768,3.9854,3.9996,3.9996,4.0066,4.0121,4.0191,4.0277,4.0401,4.047,4.0455,4.0524,4.0524,4.0783,4.1091,4.126,4.0864,4.0369,3.9723,3.9015,3.8231,3.739,3.6863,3.6769,3.7058,3.746,3.7738,3.8026,3.8181,3.8502,3.8553,3.8493,3.8134,3.7369,3.6671,3.6105,3.5783,3.5534,3.5131,3.527,3.5391,3.5577,3.5554,3.5385,3.4844,3.3812,3.3186,3.273,3.2171,3.1698,3.1376,3.1393,3.1207,3.1207,3.119,3.0903,3.0649,3.0429,3.0192,2.9347,2.8279,2.7892,2.7418,2.7114,2.6996,2.6894,2.6877,2.6911,2.7072,2.7149,2.7195,2.7272,2.753,2.7823,2.7897,2.7915,2.8146,2.8255,2.7808,2.7406,2.709,2.6534,2.5654,2.4873,2.4311,2.3813,2.363,2.34,2.3251,2.3371,2.3563,2.3154,2.3111,2.288,3.9918,4.0367,3.9828,3.9888,4.0262,3.9858,3.9903,4.0247,3.9828,3.9873,4.0098,3.9753,3.9424,3.9424,3.9424,3.9424,3.9424,3.9424,3.9553,3.9696,3.9753,3.9839,3.9996,4.0207,4.0207,4.0277,4.0261,4.0277,4.0401,4.0455,4.0524,4.0593,4.0509,4.0768,4.1327,4.1575,4.1658,4.1406,4.0892,4.0236,3.9654,3.8854,3.7923,3.7754,3.7953,3.8351,3.8701,3.8865,3.8936,3.899,3.9082,3.9232,3.9276,3.9026,3.827,3.7431,3.6925,3.6249,3.584,3.5475,3.5532,3.5532,3.5639,3.5622,3.552,3.5504,3.4692,3.4167,3.3626,3.2916,3.2442,3.2171,3.207,3.1512,3.1275,3.1224,3.1055,3.1004,3.092,3.0615,3.0142,2.9583,2.9293,2.8839,2.8351,2.8201,2.8015,2.793,2.7622,2.7592,2.7561,2.7577,2.7678,2.7851,2.8047,2.8075,2.8165,2.8388,2.8466,2.818,2.7893,2.7565,2.6952,2.6315,2.5664,2.5071,2.4584,2.4155,2.3785,2.3648,2.3449,2.3288,2.2768,2.2297,2.2098]}]]